<?xml version="1.0" encoding="UTF-8" standalone="no" ?>
<gpx xmlns="http://www.topografix.com/GPX/1/1" xmlns:xsi="http://www.w3.org/2001/XMLSchema-instance" xsi:schemaLocation="http://www.topografix.com/GPX/1/1 http://www.topografix.com/GPX/1/1/gpx.xsd" version="1.1" creator="VisuGPX - https://www.visugpx.com">
  <metadata>
    <name>Macornay,Bornay,le sentier du tacot</name>
  </metadata>
  <trk>
    <name><![CDATA[Macornay,Bornay,le sentier du tacot_1]]></name>
    <trkseg>
      <trkpt lat="46.64408" lon="5.54062">
        <ele>268.8</ele>
        <time>2020-06-21T07:33:51Z</time>
      </trkpt>
      <trkpt lat="46.64412" lon="5.54061">
        <ele>274.6</ele>
        <time>2020-06-21T07:33:55Z</time>
      </trkpt>
      <trkpt lat="46.6441" lon="5.54054">
        <ele>265.7</ele>
        <time>2020-06-21T07:36:59Z</time>
      </trkpt>
      <trkpt lat="46.64407" lon="5.5406">
        <ele>265.2</ele>
        <time>2020-06-21T07:37:14Z</time>
      </trkpt>
      <trkpt lat="46.64404" lon="5.54072">
        <ele>265.8</ele>
        <time>2020-06-21T07:37:38Z</time>
      </trkpt>
      <trkpt lat="46.64402" lon="5.54078">
        <ele>265.8</ele>
        <time>2020-06-21T07:37:40Z</time>
      </trkpt>
      <trkpt lat="46.64399" lon="5.54084">
        <ele>266</ele>
        <time>2020-06-21T07:37:44Z</time>
      </trkpt>
      <trkpt lat="46.64397" lon="5.54092">
        <ele>267.1</ele>
        <time>2020-06-21T07:37:57Z</time>
      </trkpt>
      <trkpt lat="46.64395" lon="5.54098">
        <ele>267.6</ele>
        <time>2020-06-21T07:38:02Z</time>
      </trkpt>
      <trkpt lat="46.64393" lon="5.54104">
        <ele>267.8</ele>
        <time>2020-06-21T07:38:05Z</time>
      </trkpt>
      <trkpt lat="46.64391" lon="5.5411">
        <ele>268.1</ele>
        <time>2020-06-21T07:38:08Z</time>
      </trkpt>
      <trkpt lat="46.64388" lon="5.54116">
        <ele>268.5</ele>
        <time>2020-06-21T07:38:12Z</time>
      </trkpt>
      <trkpt lat="46.64386" lon="5.54123">
        <ele>269</ele>
        <time>2020-06-21T07:38:17Z</time>
      </trkpt>
      <trkpt lat="46.64382" lon="5.54128">
        <ele>269.5</ele>
        <time>2020-06-21T07:38:22Z</time>
      </trkpt>
      <trkpt lat="46.64378" lon="5.54129">
        <ele>270.2</ele>
        <time>2020-06-21T07:38:29Z</time>
      </trkpt>
      <trkpt lat="46.64373" lon="5.54131">
        <ele>271.1</ele>
        <time>2020-06-21T07:38:36Z</time>
      </trkpt>
      <trkpt lat="46.64368" lon="5.54134">
        <ele>271.5</ele>
        <time>2020-06-21T07:38:43Z</time>
      </trkpt>
      <trkpt lat="46.64357" lon="5.54141">
        <ele>270.3</ele>
        <time>2020-06-21T07:38:53Z</time>
      </trkpt>
      <trkpt lat="46.64352" lon="5.54142">
        <ele>270.2</ele>
        <time>2020-06-21T07:38:56Z</time>
      </trkpt>
      <trkpt lat="46.64348" lon="5.54143">
        <ele>270.1</ele>
        <time>2020-06-21T07:38:59Z</time>
      </trkpt>
      <trkpt lat="46.64343" lon="5.54144">
        <ele>270</ele>
        <time>2020-06-21T07:39:03Z</time>
      </trkpt>
      <trkpt lat="46.64338" lon="5.54146">
        <ele>270</ele>
        <time>2020-06-21T07:39:09Z</time>
      </trkpt>
      <trkpt lat="46.64333" lon="5.54147">
        <ele>270.3</ele>
        <time>2020-06-21T07:39:15Z</time>
      </trkpt>
      <trkpt lat="46.64329" lon="5.54146">
        <ele>270.8</ele>
        <time>2020-06-21T07:39:21Z</time>
      </trkpt>
      <trkpt lat="46.64323" lon="5.54147">
        <ele>271.2</ele>
        <time>2020-06-21T07:39:27Z</time>
      </trkpt>
      <trkpt lat="46.64319" lon="5.54147">
        <ele>271.6</ele>
        <time>2020-06-21T07:39:31Z</time>
      </trkpt>
      <trkpt lat="46.64314" lon="5.54147">
        <ele>271.9</ele>
        <time>2020-06-21T07:39:35Z</time>
      </trkpt>
      <trkpt lat="46.64309" lon="5.54146">
        <ele>272.5</ele>
        <time>2020-06-21T07:39:40Z</time>
      </trkpt>
      <trkpt lat="46.64297" lon="5.54145">
        <ele>274.6</ele>
        <time>2020-06-21T07:39:58Z</time>
      </trkpt>
      <trkpt lat="46.64292" lon="5.54147">
        <ele>274.9</ele>
        <time>2020-06-21T07:40:07Z</time>
      </trkpt>
      <trkpt lat="46.64286" lon="5.54149">
        <ele>274.8</ele>
        <time>2020-06-21T07:40:11Z</time>
      </trkpt>
      <trkpt lat="46.64281" lon="5.54153">
        <ele>274.9</ele>
        <time>2020-06-21T07:40:15Z</time>
      </trkpt>
      <trkpt lat="46.64277" lon="5.54156">
        <ele>275</ele>
        <time>2020-06-21T07:40:20Z</time>
      </trkpt>
      <trkpt lat="46.64273" lon="5.54159">
        <ele>275.4</ele>
        <time>2020-06-21T07:40:27Z</time>
      </trkpt>
      <trkpt lat="46.6427" lon="5.54167">
        <ele>275.7</ele>
        <time>2020-06-21T07:40:39Z</time>
      </trkpt>
      <trkpt lat="46.64266" lon="5.54173">
        <ele>275.5</ele>
        <time>2020-06-21T07:40:45Z</time>
      </trkpt>
      <trkpt lat="46.64261" lon="5.54175">
        <ele>275.2</ele>
        <time>2020-06-21T07:40:50Z</time>
      </trkpt>
      <trkpt lat="46.64257" lon="5.54177">
        <ele>274.5</ele>
        <time>2020-06-21T07:40:56Z</time>
      </trkpt>
      <trkpt lat="46.64252" lon="5.54177">
        <ele>273.7</ele>
        <time>2020-06-21T07:41:02Z</time>
      </trkpt>
      <trkpt lat="46.64247" lon="5.54177">
        <ele>273</ele>
        <time>2020-06-21T07:41:07Z</time>
      </trkpt>
      <trkpt lat="46.64241" lon="5.54177">
        <ele>272.2</ele>
        <time>2020-06-21T07:41:13Z</time>
      </trkpt>
      <trkpt lat="46.64236" lon="5.54177">
        <ele>271.6</ele>
        <time>2020-06-21T07:41:19Z</time>
      </trkpt>
      <trkpt lat="46.64231" lon="5.54178">
        <ele>271.3</ele>
        <time>2020-06-21T07:41:24Z</time>
      </trkpt>
      <trkpt lat="46.64226" lon="5.5418">
        <ele>271.2</ele>
        <time>2020-06-21T07:41:28Z</time>
      </trkpt>
      <trkpt lat="46.6422" lon="5.54183">
        <ele>271.3</ele>
        <time>2020-06-21T07:41:32Z</time>
      </trkpt>
      <trkpt lat="46.64215" lon="5.54184">
        <ele>271.5</ele>
        <time>2020-06-21T07:41:35Z</time>
      </trkpt>
      <trkpt lat="46.6421" lon="5.54185">
        <ele>271.6</ele>
        <time>2020-06-21T07:41:38Z</time>
      </trkpt>
      <trkpt lat="46.64205" lon="5.54186">
        <ele>271.9</ele>
        <time>2020-06-21T07:41:44Z</time>
      </trkpt>
      <trkpt lat="46.642" lon="5.54187">
        <ele>272.1</ele>
        <time>2020-06-21T07:41:50Z</time>
      </trkpt>
      <trkpt lat="46.64195" lon="5.54187">
        <ele>272.2</ele>
        <time>2020-06-21T07:41:54Z</time>
      </trkpt>
      <trkpt lat="46.6419" lon="5.54189">
        <ele>272.3</ele>
        <time>2020-06-21T07:41:58Z</time>
      </trkpt>
      <trkpt lat="46.64185" lon="5.5419">
        <ele>272.7</ele>
        <time>2020-06-21T07:42:02Z</time>
      </trkpt>
      <trkpt lat="46.6418" lon="5.54191">
        <ele>273</ele>
        <time>2020-06-21T07:42:06Z</time>
      </trkpt>
      <trkpt lat="46.64175" lon="5.54191">
        <ele>273.5</ele>
        <time>2020-06-21T07:42:11Z</time>
      </trkpt>
      <trkpt lat="46.64169" lon="5.54191">
        <ele>274</ele>
        <time>2020-06-21T07:42:17Z</time>
      </trkpt>
      <trkpt lat="46.64164" lon="5.54193">
        <ele>274.8</ele>
        <time>2020-06-21T07:42:24Z</time>
      </trkpt>
      <trkpt lat="46.6416" lon="5.54197">
        <ele>275.4</ele>
        <time>2020-06-21T07:42:30Z</time>
      </trkpt>
      <trkpt lat="46.64155" lon="5.54198">
        <ele>276</ele>
        <time>2020-06-21T07:42:36Z</time>
      </trkpt>
      <trkpt lat="46.6415" lon="5.54201">
        <ele>276.3</ele>
        <time>2020-06-21T07:42:41Z</time>
      </trkpt>
      <trkpt lat="46.64145" lon="5.54203">
        <ele>276.5</ele>
        <time>2020-06-21T07:42:50Z</time>
      </trkpt>
      <trkpt lat="46.6414" lon="5.54206">
        <ele>276.5</ele>
        <time>2020-06-21T07:42:54Z</time>
      </trkpt>
      <trkpt lat="46.64135" lon="5.5421">
        <ele>276.6</ele>
        <time>2020-06-21T07:42:58Z</time>
      </trkpt>
      <trkpt lat="46.64131" lon="5.54213">
        <ele>276.7</ele>
        <time>2020-06-21T07:43:03Z</time>
      </trkpt>
      <trkpt lat="46.64127" lon="5.54217">
        <ele>276.8</ele>
        <time>2020-06-21T07:43:08Z</time>
      </trkpt>
      <trkpt lat="46.64122" lon="5.5422">
        <ele>276.8</ele>
        <time>2020-06-21T07:43:12Z</time>
      </trkpt>
      <trkpt lat="46.64117" lon="5.54222">
        <ele>276.7</ele>
        <time>2020-06-21T07:43:17Z</time>
      </trkpt>
      <trkpt lat="46.64122" lon="5.54221">
        <ele>277.7</ele>
        <time>2020-06-21T07:43:47Z</time>
      </trkpt>
      <trkpt lat="46.64118" lon="5.54226">
        <ele>278.1</ele>
        <time>2020-06-21T07:44:09Z</time>
      </trkpt>
      <trkpt lat="46.64114" lon="5.5423">
        <ele>277.9</ele>
        <time>2020-06-21T07:44:14Z</time>
      </trkpt>
      <trkpt lat="46.6411" lon="5.54233">
        <ele>277.6</ele>
        <time>2020-06-21T07:44:20Z</time>
      </trkpt>
      <trkpt lat="46.64104" lon="5.54234">
        <ele>277.5</ele>
        <time>2020-06-21T07:44:24Z</time>
      </trkpt>
      <trkpt lat="46.64099" lon="5.54235">
        <ele>277.5</ele>
        <time>2020-06-21T07:44:28Z</time>
      </trkpt>
      <trkpt lat="46.64094" lon="5.54236">
        <ele>277.5</ele>
        <time>2020-06-21T07:44:32Z</time>
      </trkpt>
      <trkpt lat="46.6409" lon="5.54239">
        <ele>277.4</ele>
        <time>2020-06-21T07:44:36Z</time>
      </trkpt>
      <trkpt lat="46.64084" lon="5.54241">
        <ele>277.5</ele>
        <time>2020-06-21T07:44:40Z</time>
      </trkpt>
      <trkpt lat="46.6408" lon="5.54244">
        <ele>277.5</ele>
        <time>2020-06-21T07:44:45Z</time>
      </trkpt>
      <trkpt lat="46.64075" lon="5.54248">
        <ele>277.5</ele>
        <time>2020-06-21T07:44:49Z</time>
      </trkpt>
      <trkpt lat="46.64071" lon="5.54252">
        <ele>277.5</ele>
        <time>2020-06-21T07:44:55Z</time>
      </trkpt>
      <trkpt lat="46.64066" lon="5.54253">
        <ele>277.6</ele>
        <time>2020-06-21T07:45:00Z</time>
      </trkpt>
      <trkpt lat="46.64068" lon="5.54251">
        <ele>274.5</ele>
        <time>2020-06-21T07:46:02Z</time>
      </trkpt>
      <trkpt lat="46.64063" lon="5.54253">
        <ele>274.5</ele>
        <time>2020-06-21T07:46:06Z</time>
      </trkpt>
      <trkpt lat="46.64059" lon="5.54254">
        <ele>274.5</ele>
        <time>2020-06-21T07:46:10Z</time>
      </trkpt>
      <trkpt lat="46.64045" lon="5.54258">
        <ele>275.6</ele>
        <time>2020-06-21T07:46:24Z</time>
      </trkpt>
      <trkpt lat="46.6404" lon="5.54261">
        <ele>275.7</ele>
        <time>2020-06-21T07:46:28Z</time>
      </trkpt>
      <trkpt lat="46.64035" lon="5.54263">
        <ele>275.9</ele>
        <time>2020-06-21T07:46:32Z</time>
      </trkpt>
      <trkpt lat="46.6403" lon="5.54264">
        <ele>276.2</ele>
        <time>2020-06-21T07:46:36Z</time>
      </trkpt>
      <trkpt lat="46.64026" lon="5.54265">
        <ele>276.3</ele>
        <time>2020-06-21T07:46:40Z</time>
      </trkpt>
      <trkpt lat="46.64021" lon="5.54265">
        <ele>276.3</ele>
        <time>2020-06-21T07:46:44Z</time>
      </trkpt>
      <trkpt lat="46.64015" lon="5.54266">
        <ele>276.2</ele>
        <time>2020-06-21T07:46:48Z</time>
      </trkpt>
      <trkpt lat="46.64003" lon="5.54266">
        <ele>277.4</ele>
        <time>2020-06-21T07:47:39Z</time>
      </trkpt>
      <trkpt lat="46.63999" lon="5.54269">
        <ele>278.1</ele>
        <time>2020-06-21T07:47:43Z</time>
      </trkpt>
      <trkpt lat="46.63994" lon="5.54271">
        <ele>279.2</ele>
        <time>2020-06-21T07:47:48Z</time>
      </trkpt>
      <trkpt lat="46.63989" lon="5.54272">
        <ele>280.6</ele>
        <time>2020-06-21T07:47:56Z</time>
      </trkpt>
      <trkpt lat="46.63984" lon="5.54274">
        <ele>281.5</ele>
        <time>2020-06-21T07:48:02Z</time>
      </trkpt>
      <trkpt lat="46.63968" lon="5.54279">
        <ele>281.8</ele>
        <time>2020-06-21T07:48:16Z</time>
      </trkpt>
      <trkpt lat="46.63963" lon="5.54282">
        <ele>281.3</ele>
        <time>2020-06-21T07:48:21Z</time>
      </trkpt>
      <trkpt lat="46.63959" lon="5.54282">
        <ele>280.6</ele>
        <time>2020-06-21T07:48:27Z</time>
      </trkpt>
      <trkpt lat="46.63942" lon="5.54283">
        <ele>278.2</ele>
        <time>2020-06-21T07:48:40Z</time>
      </trkpt>
      <trkpt lat="46.63937" lon="5.54285">
        <ele>278.3</ele>
        <time>2020-06-21T07:48:44Z</time>
      </trkpt>
      <trkpt lat="46.63932" lon="5.54287">
        <ele>278.6</ele>
        <time>2020-06-21T07:48:48Z</time>
      </trkpt>
      <trkpt lat="46.63926" lon="5.54289">
        <ele>279.1</ele>
        <time>2020-06-21T07:48:54Z</time>
      </trkpt>
      <trkpt lat="46.63921" lon="5.54289">
        <ele>279.5</ele>
        <time>2020-06-21T07:48:59Z</time>
      </trkpt>
      <trkpt lat="46.63916" lon="5.54288">
        <ele>280</ele>
        <time>2020-06-21T07:49:08Z</time>
      </trkpt>
      <trkpt lat="46.63911" lon="5.54289">
        <ele>279.8</ele>
        <time>2020-06-21T07:49:13Z</time>
      </trkpt>
      <trkpt lat="46.63907" lon="5.5429">
        <ele>279.7</ele>
        <time>2020-06-21T07:49:18Z</time>
      </trkpt>
      <trkpt lat="46.63902" lon="5.54291">
        <ele>280</ele>
        <time>2020-06-21T07:49:24Z</time>
      </trkpt>
      <trkpt lat="46.63897" lon="5.54293">
        <ele>280.4</ele>
        <time>2020-06-21T07:49:29Z</time>
      </trkpt>
      <trkpt lat="46.63892" lon="5.54293">
        <ele>280.6</ele>
        <time>2020-06-21T07:49:33Z</time>
      </trkpt>
      <trkpt lat="46.63879" lon="5.54296">
        <ele>281</ele>
        <time>2020-06-21T07:49:44Z</time>
      </trkpt>
      <trkpt lat="46.63873" lon="5.54298">
        <ele>280.9</ele>
        <time>2020-06-21T07:49:48Z</time>
      </trkpt>
      <trkpt lat="46.63869" lon="5.54299">
        <ele>280.9</ele>
        <time>2020-06-21T07:49:52Z</time>
      </trkpt>
      <trkpt lat="46.63863" lon="5.54299">
        <ele>281.1</ele>
        <time>2020-06-21T07:49:57Z</time>
      </trkpt>
      <trkpt lat="46.63858" lon="5.54298">
        <ele>281.2</ele>
        <time>2020-06-21T07:50:04Z</time>
      </trkpt>
      <trkpt lat="46.63854" lon="5.54297">
        <ele>281.1</ele>
        <time>2020-06-21T07:50:10Z</time>
      </trkpt>
      <trkpt lat="46.63848" lon="5.54297">
        <ele>280.9</ele>
        <time>2020-06-21T07:50:15Z</time>
      </trkpt>
      <trkpt lat="46.63843" lon="5.54297">
        <ele>280.7</ele>
        <time>2020-06-21T07:50:20Z</time>
      </trkpt>
      <trkpt lat="46.63838" lon="5.54297">
        <ele>280.4</ele>
        <time>2020-06-21T07:50:25Z</time>
      </trkpt>
      <trkpt lat="46.63833" lon="5.54299">
        <ele>280.5</ele>
        <time>2020-06-21T07:50:31Z</time>
      </trkpt>
      <trkpt lat="46.63828" lon="5.54302">
        <ele>280.9</ele>
        <time>2020-06-21T07:50:36Z</time>
      </trkpt>
      <trkpt lat="46.63823" lon="5.54304">
        <ele>281.4</ele>
        <time>2020-06-21T07:50:40Z</time>
      </trkpt>
      <trkpt lat="46.63817" lon="5.54306">
        <ele>281.9</ele>
        <time>2020-06-21T07:50:43Z</time>
      </trkpt>
      <trkpt lat="46.63812" lon="5.54309">
        <ele>282.8</ele>
        <time>2020-06-21T07:50:49Z</time>
      </trkpt>
      <trkpt lat="46.63807" lon="5.54311">
        <ele>283.3</ele>
        <time>2020-06-21T07:50:52Z</time>
      </trkpt>
      <trkpt lat="46.63801" lon="5.54314">
        <ele>283.7</ele>
        <time>2020-06-21T07:50:55Z</time>
      </trkpt>
      <trkpt lat="46.63796" lon="5.54318">
        <ele>284.2</ele>
        <time>2020-06-21T07:50:58Z</time>
      </trkpt>
      <trkpt lat="46.63793" lon="5.54324">
        <ele>284.7</ele>
        <time>2020-06-21T07:51:01Z</time>
      </trkpt>
      <trkpt lat="46.63789" lon="5.54328">
        <ele>285.2</ele>
        <time>2020-06-21T07:51:04Z</time>
      </trkpt>
      <trkpt lat="46.63786" lon="5.54334">
        <ele>285.7</ele>
        <time>2020-06-21T07:51:09Z</time>
      </trkpt>
      <trkpt lat="46.63781" lon="5.54336">
        <ele>286.3</ele>
        <time>2020-06-21T07:51:14Z</time>
      </trkpt>
      <trkpt lat="46.63777" lon="5.5434">
        <ele>286.8</ele>
        <time>2020-06-21T07:51:20Z</time>
      </trkpt>
      <trkpt lat="46.63773" lon="5.54343">
        <ele>287.4</ele>
        <time>2020-06-21T07:51:25Z</time>
      </trkpt>
      <trkpt lat="46.63769" lon="5.54349">
        <ele>287.8</ele>
        <time>2020-06-21T07:51:30Z</time>
      </trkpt>
      <trkpt lat="46.63765" lon="5.54353">
        <ele>288</ele>
        <time>2020-06-21T07:51:34Z</time>
      </trkpt>
      <trkpt lat="46.63762" lon="5.54358">
        <ele>288</ele>
        <time>2020-06-21T07:51:39Z</time>
      </trkpt>
      <trkpt lat="46.63759" lon="5.54363">
        <ele>287.9</ele>
        <time>2020-06-21T07:51:44Z</time>
      </trkpt>
      <trkpt lat="46.63755" lon="5.54368">
        <ele>287.7</ele>
        <time>2020-06-21T07:51:49Z</time>
      </trkpt>
      <trkpt lat="46.63752" lon="5.54375">
        <ele>287.7</ele>
        <time>2020-06-21T07:51:54Z</time>
      </trkpt>
      <trkpt lat="46.63749" lon="5.5438">
        <ele>287.8</ele>
        <time>2020-06-21T07:51:58Z</time>
      </trkpt>
      <trkpt lat="46.63746" lon="5.54387">
        <ele>288</ele>
        <time>2020-06-21T07:52:03Z</time>
      </trkpt>
      <trkpt lat="46.63743" lon="5.54392">
        <ele>288.2</ele>
        <time>2020-06-21T07:52:07Z</time>
      </trkpt>
      <trkpt lat="46.63739" lon="5.54396">
        <ele>288.4</ele>
        <time>2020-06-21T07:52:11Z</time>
      </trkpt>
      <trkpt lat="46.63735" lon="5.54402">
        <ele>288.6</ele>
        <time>2020-06-21T07:52:16Z</time>
      </trkpt>
      <trkpt lat="46.63732" lon="5.54407">
        <ele>288.6</ele>
        <time>2020-06-21T07:52:20Z</time>
      </trkpt>
      <trkpt lat="46.63728" lon="5.54412">
        <ele>288.5</ele>
        <time>2020-06-21T07:52:24Z</time>
      </trkpt>
      <trkpt lat="46.63725" lon="5.54418">
        <ele>288.5</ele>
        <time>2020-06-21T07:52:28Z</time>
      </trkpt>
      <trkpt lat="46.63721" lon="5.54423">
        <ele>288.4</ele>
        <time>2020-06-21T07:52:33Z</time>
      </trkpt>
      <trkpt lat="46.63717" lon="5.54428">
        <ele>288.4</ele>
        <time>2020-06-21T07:52:38Z</time>
      </trkpt>
      <trkpt lat="46.63714" lon="5.54433">
        <ele>288.5</ele>
        <time>2020-06-21T07:52:42Z</time>
      </trkpt>
      <trkpt lat="46.6371" lon="5.54439">
        <ele>288.7</ele>
        <time>2020-06-21T07:52:47Z</time>
      </trkpt>
      <trkpt lat="46.63707" lon="5.54445">
        <ele>288.8</ele>
        <time>2020-06-21T07:52:52Z</time>
      </trkpt>
      <trkpt lat="46.63704" lon="5.5445">
        <ele>289</ele>
        <time>2020-06-21T07:52:56Z</time>
      </trkpt>
      <trkpt lat="46.63701" lon="5.54455">
        <ele>289.2</ele>
        <time>2020-06-21T07:53:00Z</time>
      </trkpt>
      <trkpt lat="46.63697" lon="5.5446">
        <ele>289.2</ele>
        <time>2020-06-21T07:53:04Z</time>
      </trkpt>
      <trkpt lat="46.63695" lon="5.54465">
        <ele>289.1</ele>
        <time>2020-06-21T07:53:09Z</time>
      </trkpt>
      <trkpt lat="46.63693" lon="5.54472">
        <ele>288.8</ele>
        <time>2020-06-21T07:53:15Z</time>
      </trkpt>
      <trkpt lat="46.63687" lon="5.54486">
        <ele>287.5</ele>
        <time>2020-06-21T07:53:28Z</time>
      </trkpt>
      <trkpt lat="46.63684" lon="5.54492">
        <ele>287.2</ele>
        <time>2020-06-21T07:53:31Z</time>
      </trkpt>
      <trkpt lat="46.63681" lon="5.54498">
        <ele>287</ele>
        <time>2020-06-21T07:53:34Z</time>
      </trkpt>
      <trkpt lat="46.63678" lon="5.54503">
        <ele>286.8</ele>
        <time>2020-06-21T07:53:38Z</time>
      </trkpt>
      <trkpt lat="46.63674" lon="5.54508">
        <ele>286.9</ele>
        <time>2020-06-21T07:53:43Z</time>
      </trkpt>
      <trkpt lat="46.6367" lon="5.54512">
        <ele>287.3</ele>
        <time>2020-06-21T07:53:48Z</time>
      </trkpt>
      <trkpt lat="46.63666" lon="5.54517">
        <ele>287.7</ele>
        <time>2020-06-21T07:53:51Z</time>
      </trkpt>
      <trkpt lat="46.63662" lon="5.5452">
        <ele>288.1</ele>
        <time>2020-06-21T07:53:54Z</time>
      </trkpt>
      <trkpt lat="46.63658" lon="5.54524">
        <ele>288.8</ele>
        <time>2020-06-21T07:53:58Z</time>
      </trkpt>
      <trkpt lat="46.63647" lon="5.5453">
        <ele>291.4</ele>
        <time>2020-06-21T07:54:08Z</time>
      </trkpt>
      <trkpt lat="46.63641" lon="5.54533">
        <ele>291.6</ele>
        <time>2020-06-21T07:54:11Z</time>
      </trkpt>
      <trkpt lat="46.63636" lon="5.54534">
        <ele>291.8</ele>
        <time>2020-06-21T07:54:14Z</time>
      </trkpt>
      <trkpt lat="46.63631" lon="5.54535">
        <ele>292</ele>
        <time>2020-06-21T07:54:18Z</time>
      </trkpt>
      <trkpt lat="46.63626" lon="5.54536">
        <ele>292.2</ele>
        <time>2020-06-21T07:54:22Z</time>
      </trkpt>
      <trkpt lat="46.63621" lon="5.54536">
        <ele>292.5</ele>
        <time>2020-06-21T07:54:27Z</time>
      </trkpt>
      <trkpt lat="46.63617" lon="5.54537">
        <ele>292.8</ele>
        <time>2020-06-21T07:54:32Z</time>
      </trkpt>
      <trkpt lat="46.63612" lon="5.54539">
        <ele>292.9</ele>
        <time>2020-06-21T07:54:36Z</time>
      </trkpt>
      <trkpt lat="46.63607" lon="5.54542">
        <ele>293</ele>
        <time>2020-06-21T07:54:40Z</time>
      </trkpt>
      <trkpt lat="46.63602" lon="5.54544">
        <ele>293</ele>
        <time>2020-06-21T07:54:45Z</time>
      </trkpt>
      <trkpt lat="46.63597" lon="5.54547">
        <ele>293.1</ele>
        <time>2020-06-21T07:54:50Z</time>
      </trkpt>
      <trkpt lat="46.63593" lon="5.5455">
        <ele>293.3</ele>
        <time>2020-06-21T07:54:55Z</time>
      </trkpt>
      <trkpt lat="46.63588" lon="5.54552">
        <ele>293</ele>
        <time>2020-06-21T07:55:00Z</time>
      </trkpt>
      <trkpt lat="46.63584" lon="5.54554">
        <ele>292.7</ele>
        <time>2020-06-21T07:55:05Z</time>
      </trkpt>
      <trkpt lat="46.63579" lon="5.54557">
        <ele>292.5</ele>
        <time>2020-06-21T07:55:09Z</time>
      </trkpt>
      <trkpt lat="46.63575" lon="5.54559">
        <ele>292.5</ele>
        <time>2020-06-21T07:55:14Z</time>
      </trkpt>
      <trkpt lat="46.6357" lon="5.5456">
        <ele>292.4</ele>
        <time>2020-06-21T07:55:18Z</time>
      </trkpt>
      <trkpt lat="46.63564" lon="5.54561">
        <ele>292.2</ele>
        <time>2020-06-21T07:55:23Z</time>
      </trkpt>
      <trkpt lat="46.63559" lon="5.54564">
        <ele>291.9</ele>
        <time>2020-06-21T07:55:28Z</time>
      </trkpt>
      <trkpt lat="46.63555" lon="5.54566">
        <ele>291.6</ele>
        <time>2020-06-21T07:55:33Z</time>
      </trkpt>
      <trkpt lat="46.6355" lon="5.54567">
        <ele>291.1</ele>
        <time>2020-06-21T07:55:38Z</time>
      </trkpt>
      <trkpt lat="46.63545" lon="5.54568">
        <ele>290.7</ele>
        <time>2020-06-21T07:55:43Z</time>
      </trkpt>
      <trkpt lat="46.6354" lon="5.54569">
        <ele>290.5</ele>
        <time>2020-06-21T07:55:46Z</time>
      </trkpt>
      <trkpt lat="46.63535" lon="5.5457">
        <ele>290.4</ele>
        <time>2020-06-21T07:55:49Z</time>
      </trkpt>
      <trkpt lat="46.6353" lon="5.54571">
        <ele>290.3</ele>
        <time>2020-06-21T07:55:53Z</time>
      </trkpt>
      <trkpt lat="46.63525" lon="5.54572">
        <ele>290.4</ele>
        <time>2020-06-21T07:55:58Z</time>
      </trkpt>
      <trkpt lat="46.63521" lon="5.54575">
        <ele>290.2</ele>
        <time>2020-06-21T07:56:05Z</time>
      </trkpt>
      <trkpt lat="46.63516" lon="5.54577">
        <ele>289.6</ele>
        <time>2020-06-21T07:56:13Z</time>
      </trkpt>
      <trkpt lat="46.63508" lon="5.54582">
        <ele>288.9</ele>
        <time>2020-06-21T07:56:22Z</time>
      </trkpt>
      <trkpt lat="46.63504" lon="5.54586">
        <ele>288.9</ele>
        <time>2020-06-21T07:56:27Z</time>
      </trkpt>
      <trkpt lat="46.63491" lon="5.54592">
        <ele>290.4</ele>
        <time>2020-06-21T07:56:37Z</time>
      </trkpt>
      <trkpt lat="46.63486" lon="5.54595">
        <ele>290.8</ele>
        <time>2020-06-21T07:56:40Z</time>
      </trkpt>
      <trkpt lat="46.63473" lon="5.546">
        <ele>292.4</ele>
        <time>2020-06-21T07:56:49Z</time>
      </trkpt>
      <trkpt lat="46.63467" lon="5.54601">
        <ele>292.7</ele>
        <time>2020-06-21T07:56:55Z</time>
      </trkpt>
      <trkpt lat="46.63461" lon="5.54601">
        <ele>293</ele>
        <time>2020-06-21T07:56:59Z</time>
      </trkpt>
      <trkpt lat="46.6345" lon="5.54602">
        <ele>294</ele>
        <time>2020-06-21T07:57:13Z</time>
      </trkpt>
      <trkpt lat="46.63445" lon="5.54601">
        <ele>294.5</ele>
        <time>2020-06-21T07:57:17Z</time>
      </trkpt>
      <trkpt lat="46.6344" lon="5.54601">
        <ele>295.2</ele>
        <time>2020-06-21T07:57:21Z</time>
      </trkpt>
      <trkpt lat="46.63435" lon="5.54602">
        <ele>295.9</ele>
        <time>2020-06-21T07:57:26Z</time>
      </trkpt>
      <trkpt lat="46.63431" lon="5.54603">
        <ele>297.3</ele>
        <time>2020-06-21T07:57:35Z</time>
      </trkpt>
      <trkpt lat="46.63426" lon="5.54603">
        <ele>297.7</ele>
        <time>2020-06-21T07:57:40Z</time>
      </trkpt>
      <trkpt lat="46.63421" lon="5.54603">
        <ele>298</ele>
        <time>2020-06-21T07:57:44Z</time>
      </trkpt>
      <trkpt lat="46.63416" lon="5.54604">
        <ele>298.1</ele>
        <time>2020-06-21T07:57:48Z</time>
      </trkpt>
      <trkpt lat="46.63412" lon="5.54606">
        <ele>298.2</ele>
        <time>2020-06-21T07:57:55Z</time>
      </trkpt>
      <trkpt lat="46.63406" lon="5.54608">
        <ele>297.8</ele>
        <time>2020-06-21T07:58:01Z</time>
      </trkpt>
      <trkpt lat="46.63401" lon="5.5461">
        <ele>297.1</ele>
        <time>2020-06-21T07:58:06Z</time>
      </trkpt>
      <trkpt lat="46.63396" lon="5.5461">
        <ele>296.3</ele>
        <time>2020-06-21T07:58:11Z</time>
      </trkpt>
      <trkpt lat="46.63391" lon="5.5461">
        <ele>295.9</ele>
        <time>2020-06-21T07:58:15Z</time>
      </trkpt>
      <trkpt lat="46.63386" lon="5.54611">
        <ele>295.4</ele>
        <time>2020-06-21T07:58:22Z</time>
      </trkpt>
      <trkpt lat="46.63381" lon="5.54613">
        <ele>295.4</ele>
        <time>2020-06-21T07:58:25Z</time>
      </trkpt>
      <trkpt lat="46.63377" lon="5.54616">
        <ele>295.5</ele>
        <time>2020-06-21T07:58:29Z</time>
      </trkpt>
      <trkpt lat="46.63372" lon="5.54618">
        <ele>295.7</ele>
        <time>2020-06-21T07:58:35Z</time>
      </trkpt>
      <trkpt lat="46.63367" lon="5.54612">
        <ele>295.4</ele>
        <time>2020-06-21T07:58:51Z</time>
      </trkpt>
      <trkpt lat="46.63364" lon="5.54606">
        <ele>294.9</ele>
        <time>2020-06-21T07:58:57Z</time>
      </trkpt>
      <trkpt lat="46.63358" lon="5.54588">
        <ele>294.3</ele>
        <time>2020-06-21T07:59:10Z</time>
      </trkpt>
      <trkpt lat="46.63356" lon="5.54581">
        <ele>294.3</ele>
        <time>2020-06-21T07:59:16Z</time>
      </trkpt>
      <trkpt lat="46.63354" lon="5.54575">
        <ele>294.3</ele>
        <time>2020-06-21T07:59:20Z</time>
      </trkpt>
      <trkpt lat="46.63355" lon="5.54581">
        <ele>294.8</ele>
        <time>2020-06-21T07:59:51Z</time>
      </trkpt>
      <trkpt lat="46.63357" lon="5.54588">
        <ele>295</ele>
        <time>2020-06-21T07:59:55Z</time>
      </trkpt>
      <trkpt lat="46.63358" lon="5.54595">
        <ele>295.2</ele>
        <time>2020-06-21T07:59:59Z</time>
      </trkpt>
      <trkpt lat="46.63357" lon="5.54603">
        <ele>295.1</ele>
        <time>2020-06-21T08:00:04Z</time>
      </trkpt>
      <trkpt lat="46.63354" lon="5.54609">
        <ele>295.1</ele>
        <time>2020-06-21T08:00:09Z</time>
      </trkpt>
      <trkpt lat="46.6335" lon="5.54613">
        <ele>295.2</ele>
        <time>2020-06-21T08:00:15Z</time>
      </trkpt>
      <trkpt lat="46.63346" lon="5.54617">
        <ele>295.3</ele>
        <time>2020-06-21T08:00:21Z</time>
      </trkpt>
      <trkpt lat="46.63334" lon="5.54626">
        <ele>295.9</ele>
        <time>2020-06-21T08:00:38Z</time>
      </trkpt>
      <trkpt lat="46.63329" lon="5.54629">
        <ele>296.1</ele>
        <time>2020-06-21T08:00:41Z</time>
      </trkpt>
      <trkpt lat="46.63309" lon="5.54641">
        <ele>298.3</ele>
        <time>2020-06-21T08:00:59Z</time>
      </trkpt>
      <trkpt lat="46.63304" lon="5.54641">
        <ele>298.7</ele>
        <time>2020-06-21T08:01:05Z</time>
      </trkpt>
      <trkpt lat="46.63299" lon="5.54642">
        <ele>299.4</ele>
        <time>2020-06-21T08:01:10Z</time>
      </trkpt>
      <trkpt lat="46.63294" lon="5.54643">
        <ele>300.1</ele>
        <time>2020-06-21T08:01:14Z</time>
      </trkpt>
      <trkpt lat="46.63288" lon="5.54641">
        <ele>300.5</ele>
        <time>2020-06-21T08:01:18Z</time>
      </trkpt>
      <trkpt lat="46.63283" lon="5.5464">
        <ele>300.6</ele>
        <time>2020-06-21T08:01:22Z</time>
      </trkpt>
      <trkpt lat="46.63277" lon="5.5464">
        <ele>300.6</ele>
        <time>2020-06-21T08:01:25Z</time>
      </trkpt>
      <trkpt lat="46.63272" lon="5.54641">
        <ele>300.4</ele>
        <time>2020-06-21T08:01:29Z</time>
      </trkpt>
      <trkpt lat="46.63267" lon="5.54642">
        <ele>300.3</ele>
        <time>2020-06-21T08:01:34Z</time>
      </trkpt>
      <trkpt lat="46.63263" lon="5.54642">
        <ele>300.2</ele>
        <time>2020-06-21T08:01:38Z</time>
      </trkpt>
      <trkpt lat="46.63258" lon="5.54644">
        <ele>300</ele>
        <time>2020-06-21T08:01:43Z</time>
      </trkpt>
      <trkpt lat="46.63252" lon="5.54645">
        <ele>299.9</ele>
        <time>2020-06-21T08:01:48Z</time>
      </trkpt>
      <trkpt lat="46.63246" lon="5.54646">
        <ele>299.8</ele>
        <time>2020-06-21T08:01:53Z</time>
      </trkpt>
      <trkpt lat="46.63242" lon="5.54647">
        <ele>299.5</ele>
        <time>2020-06-21T08:01:57Z</time>
      </trkpt>
      <trkpt lat="46.63237" lon="5.54648">
        <ele>299.2</ele>
        <time>2020-06-21T08:02:01Z</time>
      </trkpt>
      <trkpt lat="46.63232" lon="5.54647">
        <ele>299</ele>
        <time>2020-06-21T08:02:05Z</time>
      </trkpt>
      <trkpt lat="46.63228" lon="5.54647">
        <ele>298.9</ele>
        <time>2020-06-21T08:02:09Z</time>
      </trkpt>
      <trkpt lat="46.63223" lon="5.54647">
        <ele>298.9</ele>
        <time>2020-06-21T08:02:13Z</time>
      </trkpt>
      <trkpt lat="46.63218" lon="5.54647">
        <ele>299.1</ele>
        <time>2020-06-21T08:02:22Z</time>
      </trkpt>
      <trkpt lat="46.63213" lon="5.54645">
        <ele>299.2</ele>
        <time>2020-06-21T08:02:29Z</time>
      </trkpt>
      <trkpt lat="46.63208" lon="5.54645">
        <ele>299.2</ele>
        <time>2020-06-21T08:02:34Z</time>
      </trkpt>
      <trkpt lat="46.63203" lon="5.54646">
        <ele>299.2</ele>
        <time>2020-06-21T08:02:38Z</time>
      </trkpt>
      <trkpt lat="46.63198" lon="5.54648">
        <ele>299.2</ele>
        <time>2020-06-21T08:02:43Z</time>
      </trkpt>
      <trkpt lat="46.63194" lon="5.54651">
        <ele>299.1</ele>
        <time>2020-06-21T08:02:46Z</time>
      </trkpt>
      <trkpt lat="46.63189" lon="5.54651">
        <ele>298.9</ele>
        <time>2020-06-21T08:02:49Z</time>
      </trkpt>
      <trkpt lat="46.63183" lon="5.54654">
        <ele>298.8</ele>
        <time>2020-06-21T08:02:52Z</time>
      </trkpt>
      <trkpt lat="46.63178" lon="5.54656">
        <ele>298.6</ele>
        <time>2020-06-21T08:02:55Z</time>
      </trkpt>
      <trkpt lat="46.63173" lon="5.54657">
        <ele>298.1</ele>
        <time>2020-06-21T08:03:01Z</time>
      </trkpt>
      <trkpt lat="46.63166" lon="5.5466">
        <ele>297.8</ele>
        <time>2020-06-21T08:03:04Z</time>
      </trkpt>
      <trkpt lat="46.63149" lon="5.54667">
        <ele>296.5</ele>
        <time>2020-06-21T08:03:15Z</time>
      </trkpt>
      <trkpt lat="46.63144" lon="5.54667">
        <ele>296.8</ele>
        <time>2020-06-21T08:03:22Z</time>
      </trkpt>
      <trkpt lat="46.63139" lon="5.54668">
        <ele>297.4</ele>
        <time>2020-06-21T08:03:28Z</time>
      </trkpt>
      <trkpt lat="46.63134" lon="5.54668">
        <ele>297.9</ele>
        <time>2020-06-21T08:03:32Z</time>
      </trkpt>
      <trkpt lat="46.6313" lon="5.54668">
        <ele>298.5</ele>
        <time>2020-06-21T08:03:36Z</time>
      </trkpt>
      <trkpt lat="46.63114" lon="5.54668">
        <ele>299.6</ele>
        <time>2020-06-21T08:03:48Z</time>
      </trkpt>
      <trkpt lat="46.6311" lon="5.54668">
        <ele>299.7</ele>
        <time>2020-06-21T08:03:51Z</time>
      </trkpt>
      <trkpt lat="46.63103" lon="5.54667">
        <ele>299.8</ele>
        <time>2020-06-21T08:03:55Z</time>
      </trkpt>
      <trkpt lat="46.63088" lon="5.54663">
        <ele>299</ele>
        <time>2020-06-21T08:04:10Z</time>
      </trkpt>
      <trkpt lat="46.63084" lon="5.54662">
        <ele>298.9</ele>
        <time>2020-06-21T08:04:20Z</time>
      </trkpt>
      <trkpt lat="46.63079" lon="5.54661">
        <ele>299</ele>
        <time>2020-06-21T08:04:24Z</time>
      </trkpt>
      <trkpt lat="46.6307" lon="5.54662">
        <ele>299.4</ele>
        <time>2020-06-21T08:04:32Z</time>
      </trkpt>
      <trkpt lat="46.63066" lon="5.54662">
        <ele>299.4</ele>
        <time>2020-06-21T08:04:38Z</time>
      </trkpt>
      <trkpt lat="46.63061" lon="5.54662">
        <ele>299.5</ele>
        <time>2020-06-21T08:04:41Z</time>
      </trkpt>
      <trkpt lat="46.63053" lon="5.54655">
        <ele>299.2</ele>
        <time>2020-06-21T08:04:59Z</time>
      </trkpt>
      <trkpt lat="46.6305" lon="5.54651">
        <ele>299.1</ele>
        <time>2020-06-21T08:05:01Z</time>
      </trkpt>
      <trkpt lat="46.63046" lon="5.54646">
        <ele>298.9</ele>
        <time>2020-06-21T08:05:03Z</time>
      </trkpt>
      <trkpt lat="46.63042" lon="5.54642">
        <ele>298.7</ele>
        <time>2020-06-21T08:05:06Z</time>
      </trkpt>
      <trkpt lat="46.63037" lon="5.54637">
        <ele>298.5</ele>
        <time>2020-06-21T08:05:11Z</time>
      </trkpt>
      <trkpt lat="46.63033" lon="5.54635">
        <ele>298</ele>
        <time>2020-06-21T08:05:17Z</time>
      </trkpt>
      <trkpt lat="46.63028" lon="5.54634">
        <ele>297.5</ele>
        <time>2020-06-21T08:05:22Z</time>
      </trkpt>
      <trkpt lat="46.63022" lon="5.54635">
        <ele>297.2</ele>
        <time>2020-06-21T08:05:27Z</time>
      </trkpt>
      <trkpt lat="46.63018" lon="5.54636">
        <ele>296.7</ele>
        <time>2020-06-21T08:05:31Z</time>
      </trkpt>
      <trkpt lat="46.63012" lon="5.54635">
        <ele>296.2</ele>
        <time>2020-06-21T08:05:35Z</time>
      </trkpt>
      <trkpt lat="46.63007" lon="5.54636">
        <ele>295.8</ele>
        <time>2020-06-21T08:05:38Z</time>
      </trkpt>
      <trkpt lat="46.63001" lon="5.54635">
        <ele>295.4</ele>
        <time>2020-06-21T08:05:42Z</time>
      </trkpt>
      <trkpt lat="46.62988" lon="5.54637">
        <ele>295.4</ele>
        <time>2020-06-21T08:05:55Z</time>
      </trkpt>
      <trkpt lat="46.62978" lon="5.54637">
        <ele>295.9</ele>
        <time>2020-06-21T08:06:04Z</time>
      </trkpt>
      <trkpt lat="46.62973" lon="5.54638">
        <ele>296.2</ele>
        <time>2020-06-21T08:06:08Z</time>
      </trkpt>
      <trkpt lat="46.62968" lon="5.54638">
        <ele>296.9</ele>
        <time>2020-06-21T08:06:14Z</time>
      </trkpt>
      <trkpt lat="46.62964" lon="5.5464">
        <ele>297.5</ele>
        <time>2020-06-21T08:06:18Z</time>
      </trkpt>
      <trkpt lat="46.62959" lon="5.54641">
        <ele>298.1</ele>
        <time>2020-06-21T08:06:23Z</time>
      </trkpt>
      <trkpt lat="46.62954" lon="5.5464">
        <ele>298.3</ele>
        <time>2020-06-21T08:06:27Z</time>
      </trkpt>
      <trkpt lat="46.62949" lon="5.54638">
        <ele>298.5</ele>
        <time>2020-06-21T08:06:32Z</time>
      </trkpt>
      <trkpt lat="46.62944" lon="5.54637">
        <ele>298.6</ele>
        <time>2020-06-21T08:06:37Z</time>
      </trkpt>
      <trkpt lat="46.62939" lon="5.54636">
        <ele>298.6</ele>
        <time>2020-06-21T08:06:43Z</time>
      </trkpt>
      <trkpt lat="46.62934" lon="5.54636">
        <ele>298.9</ele>
        <time>2020-06-21T08:06:48Z</time>
      </trkpt>
      <trkpt lat="46.6293" lon="5.54634">
        <ele>299.2</ele>
        <time>2020-06-21T08:06:53Z</time>
      </trkpt>
      <trkpt lat="46.62924" lon="5.54634">
        <ele>299.3</ele>
        <time>2020-06-21T08:06:58Z</time>
      </trkpt>
      <trkpt lat="46.6292" lon="5.54634">
        <ele>299.4</ele>
        <time>2020-06-21T08:07:02Z</time>
      </trkpt>
      <trkpt lat="46.62915" lon="5.54637">
        <ele>299.5</ele>
        <time>2020-06-21T08:07:05Z</time>
      </trkpt>
      <trkpt lat="46.62911" lon="5.54638">
        <ele>299.6</ele>
        <time>2020-06-21T08:07:09Z</time>
      </trkpt>
      <trkpt lat="46.62906" lon="5.54641">
        <ele>299.7</ele>
        <time>2020-06-21T08:07:14Z</time>
      </trkpt>
      <trkpt lat="46.62901" lon="5.54643">
        <ele>300.2</ele>
        <time>2020-06-21T08:07:23Z</time>
      </trkpt>
      <trkpt lat="46.62897" lon="5.54643">
        <ele>300.6</ele>
        <time>2020-06-21T08:07:28Z</time>
      </trkpt>
      <trkpt lat="46.62892" lon="5.54644">
        <ele>301</ele>
        <time>2020-06-21T08:07:33Z</time>
      </trkpt>
      <trkpt lat="46.62887" lon="5.54646">
        <ele>301.4</ele>
        <time>2020-06-21T08:07:38Z</time>
      </trkpt>
      <trkpt lat="46.62883" lon="5.54649">
        <ele>302.1</ele>
        <time>2020-06-21T08:07:46Z</time>
      </trkpt>
      <trkpt lat="46.62878" lon="5.54652">
        <ele>302.5</ele>
        <time>2020-06-21T08:07:50Z</time>
      </trkpt>
      <trkpt lat="46.62873" lon="5.54654">
        <ele>303</ele>
        <time>2020-06-21T08:07:55Z</time>
      </trkpt>
      <trkpt lat="46.62869" lon="5.54657">
        <ele>303.9</ele>
        <time>2020-06-21T08:08:02Z</time>
      </trkpt>
      <trkpt lat="46.62863" lon="5.54661">
        <ele>304.6</ele>
        <time>2020-06-21T08:08:07Z</time>
      </trkpt>
      <trkpt lat="46.62859" lon="5.54666">
        <ele>305.2</ele>
        <time>2020-06-21T08:08:11Z</time>
      </trkpt>
      <trkpt lat="46.62856" lon="5.54671">
        <ele>306</ele>
        <time>2020-06-21T08:08:17Z</time>
      </trkpt>
      <trkpt lat="46.62851" lon="5.54675">
        <ele>307.2</ele>
        <time>2020-06-21T08:08:26Z</time>
      </trkpt>
      <trkpt lat="46.62846" lon="5.54676">
        <ele>308.1</ele>
        <time>2020-06-21T08:08:32Z</time>
      </trkpt>
      <trkpt lat="46.62836" lon="5.54681">
        <ele>312.4</ele>
        <time>2020-06-21T08:09:00Z</time>
      </trkpt>
      <trkpt lat="46.62821" lon="5.54683">
        <ele>317.7</ele>
        <time>2020-06-21T08:09:16Z</time>
      </trkpt>
      <trkpt lat="46.62816" lon="5.54684">
        <ele>318.4</ele>
        <time>2020-06-21T08:09:21Z</time>
      </trkpt>
      <trkpt lat="46.62805" lon="5.54686">
        <ele>319.2</ele>
        <time>2020-06-21T08:09:38Z</time>
      </trkpt>
      <trkpt lat="46.62799" lon="5.54687">
        <ele>319.4</ele>
        <time>2020-06-21T08:09:42Z</time>
      </trkpt>
      <trkpt lat="46.62788" lon="5.54685">
        <ele>320.5</ele>
        <time>2020-06-21T08:09:57Z</time>
      </trkpt>
      <trkpt lat="46.62783" lon="5.54685">
        <ele>320.8</ele>
        <time>2020-06-21T08:10:02Z</time>
      </trkpt>
      <trkpt lat="46.62778" lon="5.54684">
        <ele>321.1</ele>
        <time>2020-06-21T08:10:06Z</time>
      </trkpt>
      <trkpt lat="46.62772" lon="5.54686">
        <ele>321.4</ele>
        <time>2020-06-21T08:10:09Z</time>
      </trkpt>
      <trkpt lat="46.62766" lon="5.54687">
        <ele>321.5</ele>
        <time>2020-06-21T08:10:12Z</time>
      </trkpt>
      <trkpt lat="46.62762" lon="5.54688">
        <ele>321.8</ele>
        <time>2020-06-21T08:10:15Z</time>
      </trkpt>
      <trkpt lat="46.62757" lon="5.54688">
        <ele>322.2</ele>
        <time>2020-06-21T08:10:19Z</time>
      </trkpt>
      <trkpt lat="46.62752" lon="5.54689">
        <ele>322.7</ele>
        <time>2020-06-21T08:10:24Z</time>
      </trkpt>
      <trkpt lat="46.62738" lon="5.54687">
        <ele>324.6</ele>
        <time>2020-06-21T08:10:41Z</time>
      </trkpt>
      <trkpt lat="46.62733" lon="5.54687">
        <ele>324.9</ele>
        <time>2020-06-21T08:10:50Z</time>
      </trkpt>
      <trkpt lat="46.62726" lon="5.54689">
        <ele>325</ele>
        <time>2020-06-21T08:10:55Z</time>
      </trkpt>
      <trkpt lat="46.62719" lon="5.54691">
        <ele>325</ele>
        <time>2020-06-21T08:10:58Z</time>
      </trkpt>
      <trkpt lat="46.62707" lon="5.547">
        <ele>324.8</ele>
        <time>2020-06-21T08:11:10Z</time>
      </trkpt>
      <trkpt lat="46.62704" lon="5.54705">
        <ele>325</ele>
        <time>2020-06-21T08:11:15Z</time>
      </trkpt>
      <trkpt lat="46.627" lon="5.5471">
        <ele>325.4</ele>
        <time>2020-06-21T08:11:20Z</time>
      </trkpt>
      <trkpt lat="46.62697" lon="5.54716">
        <ele>325.8</ele>
        <time>2020-06-21T08:11:26Z</time>
      </trkpt>
      <trkpt lat="46.62694" lon="5.54722">
        <ele>325.9</ele>
        <time>2020-06-21T08:11:31Z</time>
      </trkpt>
      <trkpt lat="46.62691" lon="5.54727">
        <ele>325.9</ele>
        <time>2020-06-21T08:11:36Z</time>
      </trkpt>
      <trkpt lat="46.62688" lon="5.54733">
        <ele>325.9</ele>
        <time>2020-06-21T08:11:42Z</time>
      </trkpt>
      <trkpt lat="46.62685" lon="5.5474">
        <ele>325.9</ele>
        <time>2020-06-21T08:11:48Z</time>
      </trkpt>
      <trkpt lat="46.62681" lon="5.54745">
        <ele>326</ele>
        <time>2020-06-21T08:11:53Z</time>
      </trkpt>
      <trkpt lat="46.62678" lon="5.5475">
        <ele>326.4</ele>
        <time>2020-06-21T08:12:00Z</time>
      </trkpt>
      <trkpt lat="46.62674" lon="5.54754">
        <ele>326.6</ele>
        <time>2020-06-21T08:12:05Z</time>
      </trkpt>
      <trkpt lat="46.62671" lon="5.54759">
        <ele>326.9</ele>
        <time>2020-06-21T08:12:11Z</time>
      </trkpt>
      <trkpt lat="46.62664" lon="5.54763">
        <ele>327.4</ele>
        <time>2020-06-21T08:12:21Z</time>
      </trkpt>
      <trkpt lat="46.62659" lon="5.54768">
        <ele>327.5</ele>
        <time>2020-06-21T08:12:27Z</time>
      </trkpt>
      <trkpt lat="46.62648" lon="5.54775">
        <ele>327.9</ele>
        <time>2020-06-21T08:12:41Z</time>
      </trkpt>
      <trkpt lat="46.62643" lon="5.54775">
        <ele>328.4</ele>
        <time>2020-06-21T08:12:48Z</time>
      </trkpt>
      <trkpt lat="46.62637" lon="5.54775">
        <ele>328.7</ele>
        <time>2020-06-21T08:12:51Z</time>
      </trkpt>
      <trkpt lat="46.62632" lon="5.54775">
        <ele>328.9</ele>
        <time>2020-06-21T08:12:56Z</time>
      </trkpt>
      <trkpt lat="46.62621" lon="5.54773">
        <ele>328.5</ele>
        <time>2020-06-21T08:13:06Z</time>
      </trkpt>
      <trkpt lat="46.62615" lon="5.54774">
        <ele>328.5</ele>
        <time>2020-06-21T08:13:08Z</time>
      </trkpt>
      <trkpt lat="46.62609" lon="5.54775">
        <ele>328.4</ele>
        <time>2020-06-21T08:13:10Z</time>
      </trkpt>
      <trkpt lat="46.62598" lon="5.54779">
        <ele>327.6</ele>
        <time>2020-06-21T08:13:23Z</time>
      </trkpt>
      <trkpt lat="46.62593" lon="5.54783">
        <ele>327.6</ele>
        <time>2020-06-21T08:13:28Z</time>
      </trkpt>
      <trkpt lat="46.62589" lon="5.54783">
        <ele>327.7</ele>
        <time>2020-06-21T08:13:33Z</time>
      </trkpt>
      <trkpt lat="46.62583" lon="5.54786">
        <ele>328.2</ele>
        <time>2020-06-21T08:13:39Z</time>
      </trkpt>
      <trkpt lat="46.62579" lon="5.54788">
        <ele>328.9</ele>
        <time>2020-06-21T08:13:44Z</time>
      </trkpt>
      <trkpt lat="46.62573" lon="5.54791">
        <ele>329.6</ele>
        <time>2020-06-21T08:13:49Z</time>
      </trkpt>
      <trkpt lat="46.62569" lon="5.54792">
        <ele>330.4</ele>
        <time>2020-06-21T08:13:56Z</time>
      </trkpt>
      <trkpt lat="46.62566" lon="5.54797">
        <ele>330.9</ele>
        <time>2020-06-21T08:14:02Z</time>
      </trkpt>
      <trkpt lat="46.62561" lon="5.548">
        <ele>331.1</ele>
        <time>2020-06-21T08:14:04Z</time>
      </trkpt>
      <trkpt lat="46.62556" lon="5.54804">
        <ele>331.2</ele>
        <time>2020-06-21T08:14:06Z</time>
      </trkpt>
      <trkpt lat="46.62551" lon="5.54807">
        <ele>331.6</ele>
        <time>2020-06-21T08:14:09Z</time>
      </trkpt>
      <trkpt lat="46.62546" lon="5.5481">
        <ele>332.2</ele>
        <time>2020-06-21T08:14:14Z</time>
      </trkpt>
      <trkpt lat="46.62543" lon="5.54815">
        <ele>332.6</ele>
        <time>2020-06-21T08:14:18Z</time>
      </trkpt>
      <trkpt lat="46.62534" lon="5.54821">
        <ele>333</ele>
        <time>2020-06-21T08:14:29Z</time>
      </trkpt>
      <trkpt lat="46.62529" lon="5.54823">
        <ele>333.1</ele>
        <time>2020-06-21T08:14:35Z</time>
      </trkpt>
      <trkpt lat="46.62524" lon="5.54824">
        <ele>333.2</ele>
        <time>2020-06-21T08:14:38Z</time>
      </trkpt>
      <trkpt lat="46.62519" lon="5.54825">
        <ele>333.3</ele>
        <time>2020-06-21T08:14:43Z</time>
      </trkpt>
      <trkpt lat="46.62513" lon="5.54827">
        <ele>333.3</ele>
        <time>2020-06-21T08:14:49Z</time>
      </trkpt>
      <trkpt lat="46.62508" lon="5.54829">
        <ele>333.5</ele>
        <time>2020-06-21T08:14:53Z</time>
      </trkpt>
      <trkpt lat="46.62503" lon="5.54829">
        <ele>333.8</ele>
        <time>2020-06-21T08:14:59Z</time>
      </trkpt>
      <trkpt lat="46.62498" lon="5.54829">
        <ele>333.8</ele>
        <time>2020-06-21T08:15:04Z</time>
      </trkpt>
      <trkpt lat="46.62493" lon="5.54829">
        <ele>333.7</ele>
        <time>2020-06-21T08:15:08Z</time>
      </trkpt>
      <trkpt lat="46.62488" lon="5.54832">
        <ele>333.5</ele>
        <time>2020-06-21T08:15:12Z</time>
      </trkpt>
      <trkpt lat="46.62484" lon="5.54833">
        <ele>333.4</ele>
        <time>2020-06-21T08:15:17Z</time>
      </trkpt>
      <trkpt lat="46.62479" lon="5.54835">
        <ele>333.5</ele>
        <time>2020-06-21T08:15:24Z</time>
      </trkpt>
      <trkpt lat="46.62473" lon="5.54837">
        <ele>333.8</ele>
        <time>2020-06-21T08:15:29Z</time>
      </trkpt>
      <trkpt lat="46.62468" lon="5.54837">
        <ele>334.2</ele>
        <time>2020-06-21T08:15:34Z</time>
      </trkpt>
      <trkpt lat="46.62463" lon="5.54838">
        <ele>334.6</ele>
        <time>2020-06-21T08:15:39Z</time>
      </trkpt>
      <trkpt lat="46.62457" lon="5.54837">
        <ele>335</ele>
        <time>2020-06-21T08:15:45Z</time>
      </trkpt>
      <trkpt lat="46.62452" lon="5.54837">
        <ele>335.4</ele>
        <time>2020-06-21T08:15:53Z</time>
      </trkpt>
      <trkpt lat="46.62448" lon="5.54838">
        <ele>335.7</ele>
        <time>2020-06-21T08:15:58Z</time>
      </trkpt>
      <trkpt lat="46.62443" lon="5.54841">
        <ele>335.8</ele>
        <time>2020-06-21T08:16:01Z</time>
      </trkpt>
      <trkpt lat="46.62439" lon="5.54844">
        <ele>336.1</ele>
        <time>2020-06-21T08:16:07Z</time>
      </trkpt>
      <trkpt lat="46.62434" lon="5.54847">
        <ele>336.3</ele>
        <time>2020-06-21T08:16:12Z</time>
      </trkpt>
      <trkpt lat="46.62429" lon="5.54848">
        <ele>336.3</ele>
        <time>2020-06-21T08:16:19Z</time>
      </trkpt>
      <trkpt lat="46.62424" lon="5.5485">
        <ele>336.4</ele>
        <time>2020-06-21T08:16:24Z</time>
      </trkpt>
      <trkpt lat="46.62419" lon="5.54854">
        <ele>336.3</ele>
        <time>2020-06-21T08:16:28Z</time>
      </trkpt>
      <trkpt lat="46.62415" lon="5.54856">
        <ele>336.3</ele>
        <time>2020-06-21T08:16:32Z</time>
      </trkpt>
      <trkpt lat="46.62411" lon="5.5486">
        <ele>336</ele>
        <time>2020-06-21T08:16:37Z</time>
      </trkpt>
      <trkpt lat="46.6239" lon="5.54865">
        <ele>334.1</ele>
        <time>2020-06-21T08:16:58Z</time>
      </trkpt>
      <trkpt lat="46.62385" lon="5.54864">
        <ele>334</ele>
        <time>2020-06-21T08:17:01Z</time>
      </trkpt>
      <trkpt lat="46.62372" lon="5.54861">
        <ele>334</ele>
        <time>2020-06-21T08:17:16Z</time>
      </trkpt>
      <trkpt lat="46.62356" lon="5.54853">
        <ele>334.2</ele>
        <time>2020-06-21T08:17:31Z</time>
      </trkpt>
      <trkpt lat="46.62352" lon="5.54852">
        <ele>334.5</ele>
        <time>2020-06-21T08:17:35Z</time>
      </trkpt>
      <trkpt lat="46.6233" lon="5.54849">
        <ele>337.5</ele>
        <time>2020-06-21T08:17:58Z</time>
      </trkpt>
      <trkpt lat="46.62326" lon="5.54845">
        <ele>337.6</ele>
        <time>2020-06-21T08:18:01Z</time>
      </trkpt>
      <trkpt lat="46.62314" lon="5.54839">
        <ele>338.4</ele>
        <time>2020-06-21T08:18:16Z</time>
      </trkpt>
      <trkpt lat="46.62309" lon="5.54838">
        <ele>338.7</ele>
        <time>2020-06-21T08:18:21Z</time>
      </trkpt>
      <trkpt lat="46.62303" lon="5.54838">
        <ele>339.1</ele>
        <time>2020-06-21T08:18:30Z</time>
      </trkpt>
      <trkpt lat="46.62298" lon="5.54841">
        <ele>339.7</ele>
        <time>2020-06-21T08:18:38Z</time>
      </trkpt>
      <trkpt lat="46.6229" lon="5.54845">
        <ele>340.2</ele>
        <time>2020-06-21T08:18:49Z</time>
      </trkpt>
      <trkpt lat="46.62286" lon="5.54847">
        <ele>340</ele>
        <time>2020-06-21T08:18:54Z</time>
      </trkpt>
      <trkpt lat="46.6228" lon="5.54849">
        <ele>339.9</ele>
        <time>2020-06-21T08:18:57Z</time>
      </trkpt>
      <trkpt lat="46.62275" lon="5.54846">
        <ele>339.8</ele>
        <time>2020-06-21T08:18:59Z</time>
      </trkpt>
      <trkpt lat="46.62267" lon="5.54845">
        <ele>339.7</ele>
        <time>2020-06-21T08:19:01Z</time>
      </trkpt>
      <trkpt lat="46.62262" lon="5.54843">
        <ele>339.5</ele>
        <time>2020-06-21T08:19:04Z</time>
      </trkpt>
      <trkpt lat="46.62255" lon="5.54842">
        <ele>338.9</ele>
        <time>2020-06-21T08:19:10Z</time>
      </trkpt>
      <trkpt lat="46.62243" lon="5.5484">
        <ele>338.4</ele>
        <time>2020-06-21T08:19:22Z</time>
      </trkpt>
      <trkpt lat="46.62238" lon="5.54842">
        <ele>338</ele>
        <time>2020-06-21T08:19:38Z</time>
      </trkpt>
      <trkpt lat="46.62234" lon="5.54843">
        <ele>337.7</ele>
        <time>2020-06-21T08:19:42Z</time>
      </trkpt>
      <trkpt lat="46.62229" lon="5.54845">
        <ele>337.4</ele>
        <time>2020-06-21T08:19:49Z</time>
      </trkpt>
      <trkpt lat="46.62222" lon="5.54847">
        <ele>337.5</ele>
        <time>2020-06-21T08:19:52Z</time>
      </trkpt>
      <trkpt lat="46.6221" lon="5.54851">
        <ele>337.9</ele>
        <time>2020-06-21T08:20:03Z</time>
      </trkpt>
      <trkpt lat="46.62206" lon="5.54853">
        <ele>338.3</ele>
        <time>2020-06-21T08:20:08Z</time>
      </trkpt>
      <trkpt lat="46.62189" lon="5.54856">
        <ele>340</ele>
        <time>2020-06-21T08:20:33Z</time>
      </trkpt>
      <trkpt lat="46.62171" lon="5.5487">
        <ele>342.6</ele>
        <time>2020-06-21T08:20:41Z</time>
      </trkpt>
      <trkpt lat="46.62166" lon="5.54873">
        <ele>343.7</ele>
        <time>2020-06-21T08:20:46Z</time>
      </trkpt>
      <trkpt lat="46.62162" lon="5.54878">
        <ele>344.9</ele>
        <time>2020-06-21T08:20:51Z</time>
      </trkpt>
      <trkpt lat="46.6215" lon="5.54891">
        <ele>349</ele>
        <time>2020-06-21T08:21:05Z</time>
      </trkpt>
      <trkpt lat="46.62142" lon="5.54895">
        <ele>351.2</ele>
        <time>2020-06-21T08:21:16Z</time>
      </trkpt>
      <trkpt lat="46.62137" lon="5.54896">
        <ele>351.7</ele>
        <time>2020-06-21T08:21:20Z</time>
      </trkpt>
      <trkpt lat="46.62131" lon="5.54899">
        <ele>352.3</ele>
        <time>2020-06-21T08:21:26Z</time>
      </trkpt>
      <trkpt lat="46.62127" lon="5.549">
        <ele>353.2</ele>
        <time>2020-06-21T08:21:47Z</time>
      </trkpt>
      <trkpt lat="46.62117" lon="5.54878">
        <ele>353</ele>
        <time>2020-06-21T08:22:25Z</time>
      </trkpt>
      <trkpt lat="46.62112" lon="5.54876">
        <ele>353.2</ele>
        <time>2020-06-21T08:22:28Z</time>
      </trkpt>
      <trkpt lat="46.62107" lon="5.5487">
        <ele>353.7</ele>
        <time>2020-06-21T08:22:31Z</time>
      </trkpt>
      <trkpt lat="46.62102" lon="5.54865">
        <ele>354.4</ele>
        <time>2020-06-21T08:22:36Z</time>
      </trkpt>
      <trkpt lat="46.62097" lon="5.54865">
        <ele>354.9</ele>
        <time>2020-06-21T08:22:41Z</time>
      </trkpt>
      <trkpt lat="46.62092" lon="5.54865">
        <ele>355.3</ele>
        <time>2020-06-21T08:22:48Z</time>
      </trkpt>
      <trkpt lat="46.62078" lon="5.54861">
        <ele>358.3</ele>
        <time>2020-06-21T08:23:49Z</time>
      </trkpt>
      <trkpt lat="46.62067" lon="5.54859">
        <ele>358.8</ele>
        <time>2020-06-21T08:23:57Z</time>
      </trkpt>
      <trkpt lat="46.62062" lon="5.54858">
        <ele>358.8</ele>
        <time>2020-06-21T08:24:04Z</time>
      </trkpt>
      <trkpt lat="46.62058" lon="5.54856">
        <ele>359.1</ele>
        <time>2020-06-21T08:24:10Z</time>
      </trkpt>
      <trkpt lat="46.62036" lon="5.54846">
        <ele>360.1</ele>
        <time>2020-06-21T08:24:38Z</time>
      </trkpt>
      <trkpt lat="46.62" lon="5.54798">
        <ele>364.7</ele>
        <time>2020-06-21T08:25:34Z</time>
      </trkpt>
      <trkpt lat="46.61994" lon="5.54775">
        <ele>366.3</ele>
        <time>2020-06-21T08:25:59Z</time>
      </trkpt>
      <trkpt lat="46.61974" lon="5.54764">
        <ele>369.2</ele>
        <time>2020-06-21T08:26:20Z</time>
      </trkpt>
      <trkpt lat="46.61969" lon="5.54763">
        <ele>369.5</ele>
        <time>2020-06-21T08:26:22Z</time>
      </trkpt>
      <trkpt lat="46.6196" lon="5.5476">
        <ele>372.6</ele>
        <time>2020-06-21T08:26:35Z</time>
      </trkpt>
      <trkpt lat="46.61955" lon="5.5476">
        <ele>373.6</ele>
        <time>2020-06-21T08:26:39Z</time>
      </trkpt>
      <trkpt lat="46.61949" lon="5.54759">
        <ele>375.6</ele>
        <time>2020-06-21T08:26:47Z</time>
      </trkpt>
      <trkpt lat="46.61945" lon="5.54756">
        <ele>376.2</ele>
        <time>2020-06-21T08:26:50Z</time>
      </trkpt>
      <trkpt lat="46.61904" lon="5.54731">
        <ele>385.2</ele>
        <time>2020-06-21T08:27:34Z</time>
      </trkpt>
      <trkpt lat="46.619" lon="5.54728">
        <ele>386.4</ele>
        <time>2020-06-21T08:27:41Z</time>
      </trkpt>
      <trkpt lat="46.61891" lon="5.5472">
        <ele>387.4</ele>
        <time>2020-06-21T08:27:49Z</time>
      </trkpt>
      <trkpt lat="46.61872" lon="5.54716">
        <ele>387.4</ele>
        <time>2020-06-21T08:28:09Z</time>
      </trkpt>
      <trkpt lat="46.61801" lon="5.54711">
        <ele>406.8</ele>
        <time>2020-06-21T08:31:46Z</time>
      </trkpt>
      <trkpt lat="46.61784" lon="5.54697">
        <ele>414.9</ele>
        <time>2020-06-21T08:33:12Z</time>
      </trkpt>
      <trkpt lat="46.61779" lon="5.54695">
        <ele>416</ele>
        <time>2020-06-21T08:33:21Z</time>
      </trkpt>
      <trkpt lat="46.61775" lon="5.54694">
        <ele>416.5</ele>
        <time>2020-06-21T08:33:24Z</time>
      </trkpt>
      <trkpt lat="46.6176" lon="5.54687">
        <ele>418.8</ele>
        <time>2020-06-21T08:33:35Z</time>
      </trkpt>
      <trkpt lat="46.61756" lon="5.54684">
        <ele>419</ele>
        <time>2020-06-21T08:33:37Z</time>
      </trkpt>
      <trkpt lat="46.61751" lon="5.54681">
        <ele>419.2</ele>
        <time>2020-06-21T08:33:39Z</time>
      </trkpt>
      <trkpt lat="46.61746" lon="5.54679">
        <ele>419.3</ele>
        <time>2020-06-21T08:33:41Z</time>
      </trkpt>
      <trkpt lat="46.6172" lon="5.54669">
        <ele>421</ele>
        <time>2020-06-21T08:34:25Z</time>
      </trkpt>
      <trkpt lat="46.61716" lon="5.54667">
        <ele>422.2</ele>
        <time>2020-06-21T08:34:31Z</time>
      </trkpt>
      <trkpt lat="46.6171" lon="5.54667">
        <ele>422.8</ele>
        <time>2020-06-21T08:34:34Z</time>
      </trkpt>
      <trkpt lat="46.61706" lon="5.54667">
        <ele>426.6</ele>
        <time>2020-06-21T08:34:53Z</time>
      </trkpt>
      <trkpt lat="46.61701" lon="5.54666">
        <ele>427.4</ele>
        <time>2020-06-21T08:34:59Z</time>
      </trkpt>
      <trkpt lat="46.61673" lon="5.5465">
        <ele>429.6</ele>
        <time>2020-06-21T08:36:43Z</time>
      </trkpt>
      <trkpt lat="46.61658" lon="5.54645">
        <ele>430.4</ele>
        <time>2020-06-21T08:37:03Z</time>
      </trkpt>
      <trkpt lat="46.61651" lon="5.54642">
        <ele>431.6</ele>
        <time>2020-06-21T08:37:13Z</time>
      </trkpt>
      <trkpt lat="46.61646" lon="5.5464">
        <ele>431.7</ele>
        <time>2020-06-21T08:37:16Z</time>
      </trkpt>
      <trkpt lat="46.61634" lon="5.54633">
        <ele>433.6</ele>
        <time>2020-06-21T08:37:32Z</time>
      </trkpt>
      <trkpt lat="46.6162" lon="5.54622">
        <ele>433.9</ele>
        <time>2020-06-21T08:37:48Z</time>
      </trkpt>
      <trkpt lat="46.61613" lon="5.54608">
        <ele>429.7</ele>
        <time>2020-06-21T08:39:06Z</time>
      </trkpt>
      <trkpt lat="46.61599" lon="5.5461">
        <ele>431.9</ele>
        <time>2020-06-21T08:39:20Z</time>
      </trkpt>
      <trkpt lat="46.61593" lon="5.54609">
        <ele>432.4</ele>
        <time>2020-06-21T08:39:24Z</time>
      </trkpt>
      <trkpt lat="46.61588" lon="5.54611">
        <ele>434</ele>
        <time>2020-06-21T08:39:32Z</time>
      </trkpt>
      <trkpt lat="46.61584" lon="5.54608">
        <ele>442.2</ele>
        <time>2020-06-21T08:40:02Z</time>
      </trkpt>
      <trkpt lat="46.61577" lon="5.54607">
        <ele>443.5</ele>
        <time>2020-06-21T08:40:08Z</time>
      </trkpt>
      <trkpt lat="46.6154" lon="5.54608">
        <ele>448.7</ele>
        <time>2020-06-21T08:40:58Z</time>
      </trkpt>
      <trkpt lat="46.61535" lon="5.54608">
        <ele>449.5</ele>
        <time>2020-06-21T08:41:03Z</time>
      </trkpt>
      <trkpt lat="46.61515" lon="5.54596">
        <ele>452</ele>
        <time>2020-06-21T08:41:24Z</time>
      </trkpt>
      <trkpt lat="46.6151" lon="5.54594">
        <ele>452.2</ele>
        <time>2020-06-21T08:41:28Z</time>
      </trkpt>
      <trkpt lat="46.61492" lon="5.54601">
        <ele>452.9</ele>
        <time>2020-06-21T08:41:53Z</time>
      </trkpt>
      <trkpt lat="46.6148" lon="5.546">
        <ele>453.1</ele>
        <time>2020-06-21T08:42:18Z</time>
      </trkpt>
      <trkpt lat="46.61471" lon="5.54608">
        <ele>454.8</ele>
        <time>2020-06-21T08:42:30Z</time>
      </trkpt>
      <trkpt lat="46.61466" lon="5.54609">
        <ele>455</ele>
        <time>2020-06-21T08:42:34Z</time>
      </trkpt>
      <trkpt lat="46.61465" lon="5.54607">
        <ele>454.9</ele>
        <time>2020-06-21T08:45:04Z</time>
      </trkpt>
      <trkpt lat="46.6146" lon="5.54606">
        <ele>453.3</ele>
        <time>2020-06-21T08:45:12Z</time>
      </trkpt>
      <trkpt lat="46.61456" lon="5.54604">
        <ele>453</ele>
        <time>2020-06-21T08:45:15Z</time>
      </trkpt>
      <trkpt lat="46.61451" lon="5.54603">
        <ele>452.7</ele>
        <time>2020-06-21T08:45:19Z</time>
      </trkpt>
      <trkpt lat="46.61444" lon="5.54603">
        <ele>452.4</ele>
        <time>2020-06-21T08:45:25Z</time>
      </trkpt>
      <trkpt lat="46.6144" lon="5.54602">
        <ele>452.3</ele>
        <time>2020-06-21T08:45:29Z</time>
      </trkpt>
      <trkpt lat="46.61431" lon="5.54607">
        <ele>452.5</ele>
        <time>2020-06-21T08:45:47Z</time>
      </trkpt>
      <trkpt lat="46.61426" lon="5.5461">
        <ele>453</ele>
        <time>2020-06-21T08:45:52Z</time>
      </trkpt>
      <trkpt lat="46.61421" lon="5.54609">
        <ele>453.2</ele>
        <time>2020-06-21T08:45:56Z</time>
      </trkpt>
      <trkpt lat="46.61402" lon="5.5461">
        <ele>458.7</ele>
        <time>2020-06-21T08:46:29Z</time>
      </trkpt>
      <trkpt lat="46.61398" lon="5.54608">
        <ele>458.9</ele>
        <time>2020-06-21T08:46:35Z</time>
      </trkpt>
      <trkpt lat="46.61392" lon="5.54608">
        <ele>459.1</ele>
        <time>2020-06-21T08:46:46Z</time>
      </trkpt>
      <trkpt lat="46.61387" lon="5.54604">
        <ele>459.3</ele>
        <time>2020-06-21T08:46:49Z</time>
      </trkpt>
      <trkpt lat="46.61382" lon="5.54603">
        <ele>459.7</ele>
        <time>2020-06-21T08:46:53Z</time>
      </trkpt>
      <trkpt lat="46.61376" lon="5.54586">
        <ele>454.5</ele>
        <time>2020-06-21T08:50:25Z</time>
      </trkpt>
      <trkpt lat="46.61365" lon="5.54589">
        <ele>454.2</ele>
        <time>2020-06-21T08:51:24Z</time>
      </trkpt>
      <trkpt lat="46.61368" lon="5.54597">
        <ele>456.2</ele>
        <time>2020-06-21T08:51:48Z</time>
      </trkpt>
      <trkpt lat="46.61362" lon="5.5459">
        <ele>457.2</ele>
        <time>2020-06-21T08:52:30Z</time>
      </trkpt>
      <trkpt lat="46.61359" lon="5.54584">
        <ele>455.8</ele>
        <time>2020-06-21T08:52:36Z</time>
      </trkpt>
      <trkpt lat="46.61349" lon="5.54569">
        <ele>454.1</ele>
        <time>2020-06-21T08:53:01Z</time>
      </trkpt>
      <trkpt lat="46.61345" lon="5.54555">
        <ele>455.8</ele>
        <time>2020-06-21T08:53:13Z</time>
      </trkpt>
      <trkpt lat="46.61342" lon="5.54548">
        <ele>456.6</ele>
        <time>2020-06-21T08:53:18Z</time>
      </trkpt>
      <trkpt lat="46.6134" lon="5.54542">
        <ele>457.1</ele>
        <time>2020-06-21T08:53:22Z</time>
      </trkpt>
      <trkpt lat="46.61339" lon="5.54535">
        <ele>457.6</ele>
        <time>2020-06-21T08:53:26Z</time>
      </trkpt>
      <trkpt lat="46.61338" lon="5.54527">
        <ele>458.3</ele>
        <time>2020-06-21T08:53:30Z</time>
      </trkpt>
      <trkpt lat="46.61333" lon="5.54512">
        <ele>461.1</ele>
        <time>2020-06-21T08:53:43Z</time>
      </trkpt>
      <trkpt lat="46.61329" lon="5.54505">
        <ele>462.2</ele>
        <time>2020-06-21T08:53:49Z</time>
      </trkpt>
      <trkpt lat="46.61327" lon="5.54499">
        <ele>464.7</ele>
        <time>2020-06-21T08:53:59Z</time>
      </trkpt>
      <trkpt lat="46.61325" lon="5.54493">
        <ele>466.4</ele>
        <time>2020-06-21T08:54:07Z</time>
      </trkpt>
      <trkpt lat="46.61322" lon="5.54478">
        <ele>469.3</ele>
        <time>2020-06-21T08:54:17Z</time>
      </trkpt>
      <trkpt lat="46.6132" lon="5.54471">
        <ele>470.2</ele>
        <time>2020-06-21T08:54:22Z</time>
      </trkpt>
      <trkpt lat="46.61318" lon="5.54462">
        <ele>471.4</ele>
        <time>2020-06-21T08:54:26Z</time>
      </trkpt>
      <trkpt lat="46.61318" lon="5.54455">
        <ele>473.2</ele>
        <time>2020-06-21T08:54:31Z</time>
      </trkpt>
      <trkpt lat="46.61318" lon="5.5444">
        <ele>479.1</ele>
        <time>2020-06-21T08:54:44Z</time>
      </trkpt>
      <trkpt lat="46.61322" lon="5.54432">
        <ele>482.4</ele>
        <time>2020-06-21T08:55:14Z</time>
      </trkpt>
      <trkpt lat="46.61332" lon="5.5442">
        <ele>487.2</ele>
        <time>2020-06-21T08:55:37Z</time>
      </trkpt>
      <trkpt lat="46.61332" lon="5.54411">
        <ele>487.4</ele>
        <time>2020-06-21T08:55:41Z</time>
      </trkpt>
      <trkpt lat="46.61332" lon="5.54404">
        <ele>487.7</ele>
        <time>2020-06-21T08:55:46Z</time>
      </trkpt>
      <trkpt lat="46.61334" lon="5.54397">
        <ele>487.9</ele>
        <time>2020-06-21T08:55:50Z</time>
      </trkpt>
      <trkpt lat="46.61337" lon="5.54392">
        <ele>487.9</ele>
        <time>2020-06-21T08:55:53Z</time>
      </trkpt>
      <trkpt lat="46.61349" lon="5.54368">
        <ele>489.1</ele>
        <time>2020-06-21T08:56:13Z</time>
      </trkpt>
      <trkpt lat="46.61349" lon="5.5436">
        <ele>489.6</ele>
        <time>2020-06-21T08:56:17Z</time>
      </trkpt>
      <trkpt lat="46.61352" lon="5.54356">
        <ele>491.3</ele>
        <time>2020-06-21T08:56:29Z</time>
      </trkpt>
      <trkpt lat="46.61356" lon="5.54351">
        <ele>492</ele>
        <time>2020-06-21T08:57:29Z</time>
      </trkpt>
      <trkpt lat="46.61355" lon="5.54343">
        <ele>492.1</ele>
        <time>2020-06-21T08:57:37Z</time>
      </trkpt>
      <trkpt lat="46.61352" lon="5.54338">
        <ele>492</ele>
        <time>2020-06-21T08:57:43Z</time>
      </trkpt>
      <trkpt lat="46.6135" lon="5.54332">
        <ele>491.6</ele>
        <time>2020-06-21T08:57:51Z</time>
      </trkpt>
      <trkpt lat="46.61349" lon="5.54326">
        <ele>491.7</ele>
        <time>2020-06-21T08:58:00Z</time>
      </trkpt>
      <trkpt lat="46.61345" lon="5.54324">
        <ele>491.8</ele>
        <time>2020-06-21T08:58:05Z</time>
      </trkpt>
      <trkpt lat="46.6134" lon="5.54321">
        <ele>491.9</ele>
        <time>2020-06-21T08:58:16Z</time>
      </trkpt>
      <trkpt lat="46.61336" lon="5.54318">
        <ele>491.7</ele>
        <time>2020-06-21T08:58:25Z</time>
      </trkpt>
      <trkpt lat="46.61331" lon="5.54312">
        <ele>491.6</ele>
        <time>2020-06-21T08:58:36Z</time>
      </trkpt>
      <trkpt lat="46.61326" lon="5.54306">
        <ele>491.3</ele>
        <time>2020-06-21T08:58:41Z</time>
      </trkpt>
      <trkpt lat="46.61322" lon="5.54303">
        <ele>490.5</ele>
        <time>2020-06-21T08:58:46Z</time>
      </trkpt>
      <trkpt lat="46.61318" lon="5.54301">
        <ele>489.7</ele>
        <time>2020-06-21T08:58:51Z</time>
      </trkpt>
      <trkpt lat="46.61314" lon="5.54296">
        <ele>489</ele>
        <time>2020-06-21T08:58:56Z</time>
      </trkpt>
      <trkpt lat="46.61294" lon="5.5428">
        <ele>493</ele>
        <time>2020-06-21T08:59:42Z</time>
      </trkpt>
      <trkpt lat="46.61289" lon="5.5428">
        <ele>494.5</ele>
        <time>2020-06-21T08:59:49Z</time>
      </trkpt>
      <trkpt lat="46.61278" lon="5.54277">
        <ele>499.3</ele>
        <time>2020-06-21T09:00:06Z</time>
      </trkpt>
      <trkpt lat="46.61274" lon="5.54273">
        <ele>502.6</ele>
        <time>2020-06-21T09:00:25Z</time>
      </trkpt>
      <trkpt lat="46.61271" lon="5.54278">
        <ele>503.7</ele>
        <time>2020-06-21T09:00:31Z</time>
      </trkpt>
      <trkpt lat="46.61265" lon="5.54274">
        <ele>503.9</ele>
        <time>2020-06-21T09:00:34Z</time>
      </trkpt>
      <trkpt lat="46.6126" lon="5.54269">
        <ele>504.1</ele>
        <time>2020-06-21T09:00:36Z</time>
      </trkpt>
      <trkpt lat="46.61256" lon="5.54266">
        <ele>504.4</ele>
        <time>2020-06-21T09:00:40Z</time>
      </trkpt>
      <trkpt lat="46.61251" lon="5.54261">
        <ele>505</ele>
        <time>2020-06-21T09:00:46Z</time>
      </trkpt>
      <trkpt lat="46.61239" lon="5.54258">
        <ele>506.3</ele>
        <time>2020-06-21T09:01:07Z</time>
      </trkpt>
      <trkpt lat="46.61234" lon="5.54258">
        <ele>506.4</ele>
        <time>2020-06-21T09:01:09Z</time>
      </trkpt>
      <trkpt lat="46.61228" lon="5.54261">
        <ele>506.7</ele>
        <time>2020-06-21T09:01:12Z</time>
      </trkpt>
      <trkpt lat="46.61216" lon="5.54269">
        <ele>508.2</ele>
        <time>2020-06-21T09:01:29Z</time>
      </trkpt>
      <trkpt lat="46.61211" lon="5.54271">
        <ele>508</ele>
        <time>2020-06-21T09:01:38Z</time>
      </trkpt>
      <trkpt lat="46.61207" lon="5.54275">
        <ele>507.1</ele>
        <time>2020-06-21T09:01:45Z</time>
      </trkpt>
      <trkpt lat="46.61202" lon="5.54277">
        <ele>505.9</ele>
        <time>2020-06-21T09:01:51Z</time>
      </trkpt>
      <trkpt lat="46.61197" lon="5.54279">
        <ele>505</ele>
        <time>2020-06-21T09:01:56Z</time>
      </trkpt>
      <trkpt lat="46.61192" lon="5.54282">
        <ele>504.1</ele>
        <time>2020-06-21T09:02:01Z</time>
      </trkpt>
      <trkpt lat="46.61188" lon="5.54284">
        <ele>503.3</ele>
        <time>2020-06-21T09:02:06Z</time>
      </trkpt>
      <trkpt lat="46.61185" lon="5.5429">
        <ele>502.7</ele>
        <time>2020-06-21T09:02:12Z</time>
      </trkpt>
      <trkpt lat="46.6118" lon="5.54293">
        <ele>502.6</ele>
        <time>2020-06-21T09:02:16Z</time>
      </trkpt>
      <trkpt lat="46.61177" lon="5.54298">
        <ele>502.8</ele>
        <time>2020-06-21T09:02:22Z</time>
      </trkpt>
      <trkpt lat="46.61175" lon="5.54304">
        <ele>503.6</ele>
        <time>2020-06-21T09:02:27Z</time>
      </trkpt>
      <trkpt lat="46.61173" lon="5.5431">
        <ele>504.2</ele>
        <time>2020-06-21T09:02:33Z</time>
      </trkpt>
      <trkpt lat="46.61172" lon="5.54317">
        <ele>504.5</ele>
        <time>2020-06-21T09:02:38Z</time>
      </trkpt>
      <trkpt lat="46.61171" lon="5.54324">
        <ele>504.5</ele>
        <time>2020-06-21T09:02:42Z</time>
      </trkpt>
      <trkpt lat="46.61171" lon="5.54331">
        <ele>504.5</ele>
        <time>2020-06-21T09:02:47Z</time>
      </trkpt>
      <trkpt lat="46.61167" lon="5.54336">
        <ele>504.5</ele>
        <time>2020-06-21T09:02:55Z</time>
      </trkpt>
      <trkpt lat="46.61164" lon="5.54341">
        <ele>504.7</ele>
        <time>2020-06-21T09:03:02Z</time>
      </trkpt>
      <trkpt lat="46.61161" lon="5.54345">
        <ele>505.4</ele>
        <time>2020-06-21T09:03:08Z</time>
      </trkpt>
      <trkpt lat="46.61158" lon="5.54351">
        <ele>506.2</ele>
        <time>2020-06-21T09:03:15Z</time>
      </trkpt>
      <trkpt lat="46.61156" lon="5.54359">
        <ele>506.5</ele>
        <time>2020-06-21T09:03:20Z</time>
      </trkpt>
      <trkpt lat="46.61155" lon="5.54365">
        <ele>506.7</ele>
        <time>2020-06-21T09:03:25Z</time>
      </trkpt>
      <trkpt lat="46.61152" lon="5.54372">
        <ele>506.9</ele>
        <time>2020-06-21T09:03:30Z</time>
      </trkpt>
      <trkpt lat="46.61151" lon="5.54378">
        <ele>507.2</ele>
        <time>2020-06-21T09:03:36Z</time>
      </trkpt>
      <trkpt lat="46.6115" lon="5.54384">
        <ele>507.4</ele>
        <time>2020-06-21T09:03:41Z</time>
      </trkpt>
      <trkpt lat="46.61148" lon="5.54391">
        <ele>507.4</ele>
        <time>2020-06-21T09:03:47Z</time>
      </trkpt>
      <trkpt lat="46.61147" lon="5.54398">
        <ele>507.4</ele>
        <time>2020-06-21T09:03:53Z</time>
      </trkpt>
      <trkpt lat="46.61145" lon="5.54404">
        <ele>507.1</ele>
        <time>2020-06-21T09:04:00Z</time>
      </trkpt>
      <trkpt lat="46.61134" lon="5.54415">
        <ele>505.8</ele>
        <time>2020-06-21T09:04:16Z</time>
      </trkpt>
      <trkpt lat="46.6113" lon="5.54417">
        <ele>505.5</ele>
        <time>2020-06-21T09:04:21Z</time>
      </trkpt>
      <trkpt lat="46.61126" lon="5.54421">
        <ele>505.3</ele>
        <time>2020-06-21T09:04:28Z</time>
      </trkpt>
      <trkpt lat="46.61121" lon="5.54421">
        <ele>504.7</ele>
        <time>2020-06-21T09:04:46Z</time>
      </trkpt>
      <trkpt lat="46.61115" lon="5.54425">
        <ele>503.7</ele>
        <time>2020-06-21T09:04:59Z</time>
      </trkpt>
      <trkpt lat="46.61111" lon="5.54429">
        <ele>503.1</ele>
        <time>2020-06-21T09:05:08Z</time>
      </trkpt>
      <trkpt lat="46.61106" lon="5.54432">
        <ele>502.7</ele>
        <time>2020-06-21T09:05:15Z</time>
      </trkpt>
      <trkpt lat="46.61102" lon="5.54437">
        <ele>502.5</ele>
        <time>2020-06-21T09:05:18Z</time>
      </trkpt>
      <trkpt lat="46.61097" lon="5.5444">
        <ele>502.3</ele>
        <time>2020-06-21T09:05:21Z</time>
      </trkpt>
      <trkpt lat="46.61094" lon="5.54445">
        <ele>502.1</ele>
        <time>2020-06-21T09:05:30Z</time>
      </trkpt>
      <trkpt lat="46.61092" lon="5.54451">
        <ele>502.2</ele>
        <time>2020-06-21T09:05:38Z</time>
      </trkpt>
      <trkpt lat="46.61091" lon="5.54458">
        <ele>502.3</ele>
        <time>2020-06-21T09:05:45Z</time>
      </trkpt>
      <trkpt lat="46.61089" lon="5.54465">
        <ele>502.2</ele>
        <time>2020-06-21T09:05:51Z</time>
      </trkpt>
      <trkpt lat="46.61084" lon="5.54469">
        <ele>501.8</ele>
        <time>2020-06-21T09:05:56Z</time>
      </trkpt>
      <trkpt lat="46.6108" lon="5.54472">
        <ele>501.4</ele>
        <time>2020-06-21T09:06:00Z</time>
      </trkpt>
      <trkpt lat="46.61075" lon="5.54473">
        <ele>500.3</ele>
        <time>2020-06-21T09:06:08Z</time>
      </trkpt>
      <trkpt lat="46.6107" lon="5.54475">
        <ele>499.8</ele>
        <time>2020-06-21T09:06:13Z</time>
      </trkpt>
      <trkpt lat="46.61064" lon="5.54476">
        <ele>499.4</ele>
        <time>2020-06-21T09:06:17Z</time>
      </trkpt>
      <trkpt lat="46.61059" lon="5.54477">
        <ele>499.3</ele>
        <time>2020-06-21T09:06:20Z</time>
      </trkpt>
      <trkpt lat="46.61054" lon="5.54477">
        <ele>499.1</ele>
        <time>2020-06-21T09:06:24Z</time>
      </trkpt>
      <trkpt lat="46.6105" lon="5.54479">
        <ele>498.7</ele>
        <time>2020-06-21T09:06:31Z</time>
      </trkpt>
      <trkpt lat="46.61046" lon="5.5448">
        <ele>498.1</ele>
        <time>2020-06-21T09:06:37Z</time>
      </trkpt>
      <trkpt lat="46.61041" lon="5.54484">
        <ele>497.7</ele>
        <time>2020-06-21T09:06:44Z</time>
      </trkpt>
      <trkpt lat="46.61037" lon="5.54488">
        <ele>497.7</ele>
        <time>2020-06-21T09:06:48Z</time>
      </trkpt>
      <trkpt lat="46.61031" lon="5.54491">
        <ele>497.6</ele>
        <time>2020-06-21T09:06:52Z</time>
      </trkpt>
      <trkpt lat="46.61026" lon="5.54493">
        <ele>497.6</ele>
        <time>2020-06-21T09:06:55Z</time>
      </trkpt>
      <trkpt lat="46.61022" lon="5.54497">
        <ele>497.4</ele>
        <time>2020-06-21T09:07:02Z</time>
      </trkpt>
      <trkpt lat="46.61017" lon="5.54496">
        <ele>497.1</ele>
        <time>2020-06-21T09:07:08Z</time>
      </trkpt>
      <trkpt lat="46.61012" lon="5.54497">
        <ele>496.9</ele>
        <time>2020-06-21T09:07:13Z</time>
      </trkpt>
      <trkpt lat="46.61007" lon="5.54498">
        <ele>496.5</ele>
        <time>2020-06-21T09:07:21Z</time>
      </trkpt>
      <trkpt lat="46.61002" lon="5.545">
        <ele>495.7</ele>
        <time>2020-06-21T09:07:26Z</time>
      </trkpt>
      <trkpt lat="46.60998" lon="5.54504">
        <ele>494.7</ele>
        <time>2020-06-21T09:07:32Z</time>
      </trkpt>
      <trkpt lat="46.60993" lon="5.54506">
        <ele>493.4</ele>
        <time>2020-06-21T09:07:38Z</time>
      </trkpt>
      <trkpt lat="46.60987" lon="5.54507">
        <ele>492.2</ele>
        <time>2020-06-21T09:07:43Z</time>
      </trkpt>
      <trkpt lat="46.60983" lon="5.5451">
        <ele>490.8</ele>
        <time>2020-06-21T09:07:49Z</time>
      </trkpt>
      <trkpt lat="46.60979" lon="5.54514">
        <ele>489.6</ele>
        <time>2020-06-21T09:07:54Z</time>
      </trkpt>
      <trkpt lat="46.60975" lon="5.54518">
        <ele>488.1</ele>
        <time>2020-06-21T09:08:00Z</time>
      </trkpt>
      <trkpt lat="46.60966" lon="5.54525">
        <ele>484.9</ele>
        <time>2020-06-21T09:08:12Z</time>
      </trkpt>
      <trkpt lat="46.60962" lon="5.54525">
        <ele>484.4</ele>
        <time>2020-06-21T09:08:15Z</time>
      </trkpt>
      <trkpt lat="46.60957" lon="5.54526">
        <ele>483.8</ele>
        <time>2020-06-21T09:08:18Z</time>
      </trkpt>
      <trkpt lat="46.60952" lon="5.54528">
        <ele>483</ele>
        <time>2020-06-21T09:08:22Z</time>
      </trkpt>
      <trkpt lat="46.60948" lon="5.54531">
        <ele>481.3</ele>
        <time>2020-06-21T09:08:31Z</time>
      </trkpt>
      <trkpt lat="46.60943" lon="5.54532">
        <ele>480.4</ele>
        <time>2020-06-21T09:08:37Z</time>
      </trkpt>
      <trkpt lat="46.60936" lon="5.54533">
        <ele>480.5</ele>
        <time>2020-06-21T09:08:41Z</time>
      </trkpt>
      <trkpt lat="46.60924" lon="5.54537">
        <ele>481</ele>
        <time>2020-06-21T09:08:51Z</time>
      </trkpt>
      <trkpt lat="46.60915" lon="5.54542">
        <ele>481.2</ele>
        <time>2020-06-21T09:09:06Z</time>
      </trkpt>
      <trkpt lat="46.6091" lon="5.54543">
        <ele>481.1</ele>
        <time>2020-06-21T09:09:10Z</time>
      </trkpt>
      <trkpt lat="46.60905" lon="5.54545">
        <ele>480.7</ele>
        <time>2020-06-21T09:09:16Z</time>
      </trkpt>
      <trkpt lat="46.60901" lon="5.54549">
        <ele>479.8</ele>
        <time>2020-06-21T09:09:22Z</time>
      </trkpt>
      <trkpt lat="46.60899" lon="5.54555">
        <ele>479.3</ele>
        <time>2020-06-21T09:09:25Z</time>
      </trkpt>
      <trkpt lat="46.60896" lon="5.5456">
        <ele>478.4</ele>
        <time>2020-06-21T09:09:30Z</time>
      </trkpt>
      <trkpt lat="46.60891" lon="5.54565">
        <ele>477.6</ele>
        <time>2020-06-21T09:09:35Z</time>
      </trkpt>
      <trkpt lat="46.60888" lon="5.5457">
        <ele>477</ele>
        <time>2020-06-21T09:09:39Z</time>
      </trkpt>
      <trkpt lat="46.60885" lon="5.54576">
        <ele>476.3</ele>
        <time>2020-06-21T09:09:44Z</time>
      </trkpt>
      <trkpt lat="46.60882" lon="5.54582">
        <ele>475.6</ele>
        <time>2020-06-21T09:09:49Z</time>
      </trkpt>
      <trkpt lat="46.60879" lon="5.54589">
        <ele>474.9</ele>
        <time>2020-06-21T09:09:54Z</time>
      </trkpt>
      <trkpt lat="46.60877" lon="5.54595">
        <ele>474.3</ele>
        <time>2020-06-21T09:09:59Z</time>
      </trkpt>
      <trkpt lat="46.60874" lon="5.546">
        <ele>473.6</ele>
        <time>2020-06-21T09:10:07Z</time>
      </trkpt>
      <trkpt lat="46.6087" lon="5.54606">
        <ele>473.2</ele>
        <time>2020-06-21T09:10:14Z</time>
      </trkpt>
      <trkpt lat="46.60867" lon="5.54612">
        <ele>472.8</ele>
        <time>2020-06-21T09:10:22Z</time>
      </trkpt>
      <trkpt lat="46.60863" lon="5.54617">
        <ele>472.5</ele>
        <time>2020-06-21T09:10:29Z</time>
      </trkpt>
      <trkpt lat="46.60857" lon="5.54619">
        <ele>472.5</ele>
        <time>2020-06-21T09:10:35Z</time>
      </trkpt>
      <trkpt lat="46.60853" lon="5.54622">
        <ele>472.5</ele>
        <time>2020-06-21T09:10:39Z</time>
      </trkpt>
      <trkpt lat="46.6085" lon="5.54628">
        <ele>472.6</ele>
        <time>2020-06-21T09:10:43Z</time>
      </trkpt>
      <trkpt lat="46.60846" lon="5.54632">
        <ele>472.6</ele>
        <time>2020-06-21T09:10:48Z</time>
      </trkpt>
      <trkpt lat="46.60843" lon="5.54636">
        <ele>472.2</ele>
        <time>2020-06-21T09:10:55Z</time>
      </trkpt>
      <trkpt lat="46.60838" lon="5.54639">
        <ele>472</ele>
        <time>2020-06-21T09:10:59Z</time>
      </trkpt>
      <trkpt lat="46.60832" lon="5.54639">
        <ele>471.8</ele>
        <time>2020-06-21T09:11:03Z</time>
      </trkpt>
      <trkpt lat="46.60828" lon="5.5464">
        <ele>471.5</ele>
        <time>2020-06-21T09:11:07Z</time>
      </trkpt>
      <trkpt lat="46.60823" lon="5.54638">
        <ele>471.2</ele>
        <time>2020-06-21T09:11:11Z</time>
      </trkpt>
      <trkpt lat="46.60812" lon="5.54644">
        <ele>471.1</ele>
        <time>2020-06-21T09:11:26Z</time>
      </trkpt>
      <trkpt lat="46.6081" lon="5.5465">
        <ele>471.1</ele>
        <time>2020-06-21T09:11:31Z</time>
      </trkpt>
      <trkpt lat="46.60809" lon="5.54657">
        <ele>471</ele>
        <time>2020-06-21T09:11:36Z</time>
      </trkpt>
      <trkpt lat="46.60808" lon="5.54664">
        <ele>470.9</ele>
        <time>2020-06-21T09:11:40Z</time>
      </trkpt>
      <trkpt lat="46.60808" lon="5.5467">
        <ele>470.6</ele>
        <time>2020-06-21T09:11:44Z</time>
      </trkpt>
      <trkpt lat="46.60807" lon="5.54678">
        <ele>470.3</ele>
        <time>2020-06-21T09:11:47Z</time>
      </trkpt>
      <trkpt lat="46.60805" lon="5.54684">
        <ele>469.7</ele>
        <time>2020-06-21T09:11:52Z</time>
      </trkpt>
      <trkpt lat="46.60804" lon="5.54691">
        <ele>469.2</ele>
        <time>2020-06-21T09:11:56Z</time>
      </trkpt>
      <trkpt lat="46.60802" lon="5.54698">
        <ele>468.2</ele>
        <time>2020-06-21T09:12:05Z</time>
      </trkpt>
      <trkpt lat="46.60801" lon="5.54706">
        <ele>467.7</ele>
        <time>2020-06-21T09:12:07Z</time>
      </trkpt>
      <trkpt lat="46.608" lon="5.54712">
        <ele>467.1</ele>
        <time>2020-06-21T09:12:11Z</time>
      </trkpt>
      <trkpt lat="46.60799" lon="5.5472">
        <ele>466.4</ele>
        <time>2020-06-21T09:12:17Z</time>
      </trkpt>
      <trkpt lat="46.60799" lon="5.54728">
        <ele>465.8</ele>
        <time>2020-06-21T09:12:22Z</time>
      </trkpt>
      <trkpt lat="46.60801" lon="5.54735">
        <ele>465.3</ele>
        <time>2020-06-21T09:12:27Z</time>
      </trkpt>
      <trkpt lat="46.60805" lon="5.54739">
        <ele>464.7</ele>
        <time>2020-06-21T09:12:33Z</time>
      </trkpt>
      <trkpt lat="46.60809" lon="5.54742">
        <ele>464.5</ele>
        <time>2020-06-21T09:12:40Z</time>
      </trkpt>
      <trkpt lat="46.60813" lon="5.54745">
        <ele>464.7</ele>
        <time>2020-06-21T09:12:47Z</time>
      </trkpt>
      <trkpt lat="46.60818" lon="5.54748">
        <ele>464.8</ele>
        <time>2020-06-21T09:12:53Z</time>
      </trkpt>
      <trkpt lat="46.60823" lon="5.5475">
        <ele>465</ele>
        <time>2020-06-21T09:12:58Z</time>
      </trkpt>
      <trkpt lat="46.60828" lon="5.54752">
        <ele>465.1</ele>
        <time>2020-06-21T09:13:03Z</time>
      </trkpt>
      <trkpt lat="46.60833" lon="5.54755">
        <ele>465.5</ele>
        <time>2020-06-21T09:13:08Z</time>
      </trkpt>
      <trkpt lat="46.60837" lon="5.54758">
        <ele>465.8</ele>
        <time>2020-06-21T09:13:14Z</time>
      </trkpt>
      <trkpt lat="46.60842" lon="5.54761">
        <ele>466.3</ele>
        <time>2020-06-21T09:13:20Z</time>
      </trkpt>
      <trkpt lat="46.60846" lon="5.54764">
        <ele>466.8</ele>
        <time>2020-06-21T09:13:24Z</time>
      </trkpt>
      <trkpt lat="46.6085" lon="5.54766">
        <ele>467</ele>
        <time>2020-06-21T09:13:28Z</time>
      </trkpt>
      <trkpt lat="46.60854" lon="5.54769">
        <ele>467.2</ele>
        <time>2020-06-21T09:13:33Z</time>
      </trkpt>
      <trkpt lat="46.60858" lon="5.54773">
        <ele>467.2</ele>
        <time>2020-06-21T09:13:42Z</time>
      </trkpt>
      <trkpt lat="46.60861" lon="5.54779">
        <ele>467.2</ele>
        <time>2020-06-21T09:13:44Z</time>
      </trkpt>
      <trkpt lat="46.60865" lon="5.54784">
        <ele>467.2</ele>
        <time>2020-06-21T09:13:49Z</time>
      </trkpt>
      <trkpt lat="46.60869" lon="5.54788">
        <ele>467.1</ele>
        <time>2020-06-21T09:13:53Z</time>
      </trkpt>
      <trkpt lat="46.60873" lon="5.54792">
        <ele>466.8</ele>
        <time>2020-06-21T09:13:57Z</time>
      </trkpt>
      <trkpt lat="46.60878" lon="5.54794">
        <ele>466.4</ele>
        <time>2020-06-21T09:14:03Z</time>
      </trkpt>
      <trkpt lat="46.60882" lon="5.54798">
        <ele>466.1</ele>
        <time>2020-06-21T09:14:08Z</time>
      </trkpt>
      <trkpt lat="46.60886" lon="5.54801">
        <ele>466</ele>
        <time>2020-06-21T09:14:14Z</time>
      </trkpt>
      <trkpt lat="46.60891" lon="5.54804">
        <ele>465.9</ele>
        <time>2020-06-21T09:14:19Z</time>
      </trkpt>
      <trkpt lat="46.60896" lon="5.54806">
        <ele>465.9</ele>
        <time>2020-06-21T09:14:23Z</time>
      </trkpt>
      <trkpt lat="46.609" lon="5.54809">
        <ele>465.8</ele>
        <time>2020-06-21T09:14:27Z</time>
      </trkpt>
      <trkpt lat="46.60905" lon="5.54812">
        <ele>465.7</ele>
        <time>2020-06-21T09:14:32Z</time>
      </trkpt>
      <trkpt lat="46.60909" lon="5.54816">
        <ele>465.6</ele>
        <time>2020-06-21T09:14:37Z</time>
      </trkpt>
      <trkpt lat="46.60914" lon="5.54818">
        <ele>465.6</ele>
        <time>2020-06-21T09:14:43Z</time>
      </trkpt>
      <trkpt lat="46.60918" lon="5.54822">
        <ele>465.6</ele>
        <time>2020-06-21T09:14:48Z</time>
      </trkpt>
      <trkpt lat="46.60922" lon="5.54825">
        <ele>465.6</ele>
        <time>2020-06-21T09:14:52Z</time>
      </trkpt>
      <trkpt lat="46.60927" lon="5.54828">
        <ele>465.7</ele>
        <time>2020-06-21T09:14:57Z</time>
      </trkpt>
      <trkpt lat="46.60932" lon="5.54829">
        <ele>465.8</ele>
        <time>2020-06-21T09:15:01Z</time>
      </trkpt>
      <trkpt lat="46.60936" lon="5.54832">
        <ele>465.9</ele>
        <time>2020-06-21T09:15:07Z</time>
      </trkpt>
      <trkpt lat="46.60941" lon="5.54833">
        <ele>466.4</ele>
        <time>2020-06-21T09:15:16Z</time>
      </trkpt>
      <trkpt lat="46.60945" lon="5.54837">
        <ele>466.5</ele>
        <time>2020-06-21T09:15:23Z</time>
      </trkpt>
      <trkpt lat="46.60951" lon="5.5484">
        <ele>466.7</ele>
        <time>2020-06-21T09:15:28Z</time>
      </trkpt>
      <trkpt lat="46.60955" lon="5.54843">
        <ele>467</ele>
        <time>2020-06-21T09:15:33Z</time>
      </trkpt>
      <trkpt lat="46.6096" lon="5.54846">
        <ele>467.3</ele>
        <time>2020-06-21T09:15:40Z</time>
      </trkpt>
      <trkpt lat="46.60965" lon="5.54849">
        <ele>467.5</ele>
        <time>2020-06-21T09:15:44Z</time>
      </trkpt>
      <trkpt lat="46.6097" lon="5.54853">
        <ele>467.7</ele>
        <time>2020-06-21T09:15:48Z</time>
      </trkpt>
      <trkpt lat="46.60975" lon="5.54856">
        <ele>468</ele>
        <time>2020-06-21T09:15:52Z</time>
      </trkpt>
      <trkpt lat="46.60981" lon="5.54858">
        <ele>468.4</ele>
        <time>2020-06-21T09:15:57Z</time>
      </trkpt>
      <trkpt lat="46.60986" lon="5.54857">
        <ele>469</ele>
        <time>2020-06-21T09:16:05Z</time>
      </trkpt>
      <trkpt lat="46.60991" lon="5.54857">
        <ele>469.1</ele>
        <time>2020-06-21T09:16:08Z</time>
      </trkpt>
      <trkpt lat="46.60996" lon="5.54859">
        <ele>469.1</ele>
        <time>2020-06-21T09:16:11Z</time>
      </trkpt>
      <trkpt lat="46.61" lon="5.5486">
        <ele>469.1</ele>
        <time>2020-06-21T09:16:16Z</time>
      </trkpt>
      <trkpt lat="46.61007" lon="5.54861">
        <ele>469.5</ele>
        <time>2020-06-21T09:16:22Z</time>
      </trkpt>
      <trkpt lat="46.61013" lon="5.54862">
        <ele>469.7</ele>
        <time>2020-06-21T09:16:26Z</time>
      </trkpt>
      <trkpt lat="46.61018" lon="5.54864">
        <ele>470</ele>
        <time>2020-06-21T09:16:32Z</time>
      </trkpt>
      <trkpt lat="46.61022" lon="5.54866">
        <ele>470.1</ele>
        <time>2020-06-21T09:16:37Z</time>
      </trkpt>
      <trkpt lat="46.61028" lon="5.54867">
        <ele>470</ele>
        <time>2020-06-21T09:16:44Z</time>
      </trkpt>
      <trkpt lat="46.61033" lon="5.54868">
        <ele>470</ele>
        <time>2020-06-21T09:16:48Z</time>
      </trkpt>
      <trkpt lat="46.61037" lon="5.54871">
        <ele>469.9</ele>
        <time>2020-06-21T09:16:54Z</time>
      </trkpt>
      <trkpt lat="46.61041" lon="5.54868">
        <ele>469.4</ele>
        <time>2020-06-21T09:17:00Z</time>
      </trkpt>
      <trkpt lat="46.61046" lon="5.54862">
        <ele>469.3</ele>
        <time>2020-06-21T09:17:04Z</time>
      </trkpt>
      <trkpt lat="46.61051" lon="5.54859">
        <ele>469.3</ele>
        <time>2020-06-21T09:17:08Z</time>
      </trkpt>
      <trkpt lat="46.61056" lon="5.54857">
        <ele>469.4</ele>
        <time>2020-06-21T09:17:14Z</time>
      </trkpt>
      <trkpt lat="46.6106" lon="5.54852">
        <ele>469.7</ele>
        <time>2020-06-21T09:17:19Z</time>
      </trkpt>
      <trkpt lat="46.61067" lon="5.54844">
        <ele>470.9</ele>
        <time>2020-06-21T09:17:36Z</time>
      </trkpt>
      <trkpt lat="46.61071" lon="5.54841">
        <ele>471.1</ele>
        <time>2020-06-21T09:17:42Z</time>
      </trkpt>
      <trkpt lat="46.61077" lon="5.54837">
        <ele>471.2</ele>
        <time>2020-06-21T09:17:46Z</time>
      </trkpt>
      <trkpt lat="46.61081" lon="5.54834">
        <ele>471.2</ele>
        <time>2020-06-21T09:17:48Z</time>
      </trkpt>
      <trkpt lat="46.61097" lon="5.54831">
        <ele>470.7</ele>
        <time>2020-06-21T09:18:09Z</time>
      </trkpt>
      <trkpt lat="46.61103" lon="5.54832">
        <ele>470.5</ele>
        <time>2020-06-21T09:18:11Z</time>
      </trkpt>
      <trkpt lat="46.61109" lon="5.54833">
        <ele>470.2</ele>
        <time>2020-06-21T09:18:13Z</time>
      </trkpt>
      <trkpt lat="46.61114" lon="5.54833">
        <ele>469.3</ele>
        <time>2020-06-21T09:18:19Z</time>
      </trkpt>
      <trkpt lat="46.61118" lon="5.54834">
        <ele>468.2</ele>
        <time>2020-06-21T09:18:26Z</time>
      </trkpt>
      <trkpt lat="46.61123" lon="5.54834">
        <ele>466.8</ele>
        <time>2020-06-21T09:18:37Z</time>
      </trkpt>
      <trkpt lat="46.61134" lon="5.54836">
        <ele>467.5</ele>
        <time>2020-06-21T09:19:12Z</time>
      </trkpt>
      <trkpt lat="46.61139" lon="5.54837">
        <ele>468.7</ele>
        <time>2020-06-21T09:19:19Z</time>
      </trkpt>
      <trkpt lat="46.61148" lon="5.5484">
        <ele>469.1</ele>
        <time>2020-06-21T09:20:00Z</time>
      </trkpt>
      <trkpt lat="46.61153" lon="5.54843">
        <ele>469.9</ele>
        <time>2020-06-21T09:20:06Z</time>
      </trkpt>
      <trkpt lat="46.61157" lon="5.54846">
        <ele>470.8</ele>
        <time>2020-06-21T09:20:15Z</time>
      </trkpt>
      <trkpt lat="46.61161" lon="5.54849">
        <ele>471.4</ele>
        <time>2020-06-21T09:20:20Z</time>
      </trkpt>
      <trkpt lat="46.61166" lon="5.54852">
        <ele>471.9</ele>
        <time>2020-06-21T09:20:25Z</time>
      </trkpt>
      <trkpt lat="46.61171" lon="5.54853">
        <ele>472</ele>
        <time>2020-06-21T09:20:28Z</time>
      </trkpt>
      <trkpt lat="46.61176" lon="5.54857">
        <ele>471.8</ele>
        <time>2020-06-21T09:20:32Z</time>
      </trkpt>
      <trkpt lat="46.61184" lon="5.54865">
        <ele>470.4</ele>
        <time>2020-06-21T09:20:44Z</time>
      </trkpt>
      <trkpt lat="46.61195" lon="5.54883">
        <ele>467.6</ele>
        <time>2020-06-21T09:21:06Z</time>
      </trkpt>
      <trkpt lat="46.61197" lon="5.54891">
        <ele>467.6</ele>
        <time>2020-06-21T09:21:15Z</time>
      </trkpt>
      <trkpt lat="46.612" lon="5.54896">
        <ele>467.8</ele>
        <time>2020-06-21T09:21:21Z</time>
      </trkpt>
      <trkpt lat="46.61204" lon="5.54901">
        <ele>468</ele>
        <time>2020-06-21T09:21:28Z</time>
      </trkpt>
      <trkpt lat="46.61208" lon="5.54905">
        <ele>468</ele>
        <time>2020-06-21T09:21:32Z</time>
      </trkpt>
      <trkpt lat="46.61212" lon="5.54909">
        <ele>468.5</ele>
        <time>2020-06-21T09:21:39Z</time>
      </trkpt>
      <trkpt lat="46.61211" lon="5.54915">
        <ele>469</ele>
        <time>2020-06-21T09:21:47Z</time>
      </trkpt>
      <trkpt lat="46.61211" lon="5.54922">
        <ele>469.2</ele>
        <time>2020-06-21T09:21:53Z</time>
      </trkpt>
      <trkpt lat="46.61216" lon="5.54926">
        <ele>469.2</ele>
        <time>2020-06-21T09:21:56Z</time>
      </trkpt>
      <trkpt lat="46.6122" lon="5.54929">
        <ele>469</ele>
        <time>2020-06-21T09:22:02Z</time>
      </trkpt>
      <trkpt lat="46.61224" lon="5.54934">
        <ele>468.4</ele>
        <time>2020-06-21T09:22:08Z</time>
      </trkpt>
      <trkpt lat="46.61246" lon="5.54933">
        <ele>463.7</ele>
        <time>2020-06-21T09:22:45Z</time>
      </trkpt>
      <trkpt lat="46.61252" lon="5.54929">
        <ele>463.4</ele>
        <time>2020-06-21T09:22:48Z</time>
      </trkpt>
      <trkpt lat="46.61276" lon="5.5492">
        <ele>458.1</ele>
        <time>2020-06-21T09:23:44Z</time>
      </trkpt>
      <trkpt lat="46.6128" lon="5.54917">
        <ele>457.8</ele>
        <time>2020-06-21T09:23:52Z</time>
      </trkpt>
      <trkpt lat="46.61284" lon="5.54914">
        <ele>457.7</ele>
        <time>2020-06-21T09:23:54Z</time>
      </trkpt>
      <trkpt lat="46.61289" lon="5.54911">
        <ele>457.3</ele>
        <time>2020-06-21T09:23:59Z</time>
      </trkpt>
      <trkpt lat="46.61302" lon="5.54905">
        <ele>454.6</ele>
        <time>2020-06-21T09:24:14Z</time>
      </trkpt>
      <trkpt lat="46.61306" lon="5.549">
        <ele>454.1</ele>
        <time>2020-06-21T09:24:18Z</time>
      </trkpt>
      <trkpt lat="46.6131" lon="5.54902">
        <ele>453.5</ele>
        <time>2020-06-21T09:24:21Z</time>
      </trkpt>
      <trkpt lat="46.61315" lon="5.54905">
        <ele>452</ele>
        <time>2020-06-21T09:24:27Z</time>
      </trkpt>
      <trkpt lat="46.61321" lon="5.54904">
        <ele>451</ele>
        <time>2020-06-21T09:24:32Z</time>
      </trkpt>
      <trkpt lat="46.61326" lon="5.54903">
        <ele>450.5</ele>
        <time>2020-06-21T09:24:34Z</time>
      </trkpt>
      <trkpt lat="46.61331" lon="5.54902">
        <ele>449</ele>
        <time>2020-06-21T09:24:42Z</time>
      </trkpt>
      <trkpt lat="46.61335" lon="5.54898">
        <ele>448</ele>
        <time>2020-06-21T09:24:48Z</time>
      </trkpt>
      <trkpt lat="46.61341" lon="5.549">
        <ele>447.5</ele>
        <time>2020-06-21T09:24:51Z</time>
      </trkpt>
      <trkpt lat="46.61347" lon="5.549">
        <ele>446.4</ele>
        <time>2020-06-21T09:24:59Z</time>
      </trkpt>
      <trkpt lat="46.61352" lon="5.54902">
        <ele>446.5</ele>
        <time>2020-06-21T09:25:03Z</time>
      </trkpt>
      <trkpt lat="46.61357" lon="5.54902">
        <ele>446.9</ele>
        <time>2020-06-21T09:25:07Z</time>
      </trkpt>
      <trkpt lat="46.6137" lon="5.549">
        <ele>449.4</ele>
        <time>2020-06-21T09:25:28Z</time>
      </trkpt>
      <trkpt lat="46.61375" lon="5.549">
        <ele>449.6</ele>
        <time>2020-06-21T09:25:30Z</time>
      </trkpt>
      <trkpt lat="46.6138" lon="5.54899">
        <ele>449.6</ele>
        <time>2020-06-21T09:25:35Z</time>
      </trkpt>
      <trkpt lat="46.61385" lon="5.54902">
        <ele>449.4</ele>
        <time>2020-06-21T09:25:41Z</time>
      </trkpt>
      <trkpt lat="46.6139" lon="5.54904">
        <ele>449.3</ele>
        <time>2020-06-21T09:25:50Z</time>
      </trkpt>
      <trkpt lat="46.61404" lon="5.5491">
        <ele>449.9</ele>
        <time>2020-06-21T09:26:11Z</time>
      </trkpt>
      <trkpt lat="46.61409" lon="5.54913">
        <ele>449.5</ele>
        <time>2020-06-21T09:26:14Z</time>
      </trkpt>
      <trkpt lat="46.61421" lon="5.54921">
        <ele>447.6</ele>
        <time>2020-06-21T09:26:25Z</time>
      </trkpt>
      <trkpt lat="46.61423" lon="5.54927">
        <ele>447.3</ele>
        <time>2020-06-21T09:26:29Z</time>
      </trkpt>
      <trkpt lat="46.61428" lon="5.54932">
        <ele>447.1</ele>
        <time>2020-06-21T09:26:31Z</time>
      </trkpt>
      <trkpt lat="46.61433" lon="5.54935">
        <ele>446.8</ele>
        <time>2020-06-21T09:26:34Z</time>
      </trkpt>
      <trkpt lat="46.61437" lon="5.54941">
        <ele>446.7</ele>
        <time>2020-06-21T09:26:39Z</time>
      </trkpt>
      <trkpt lat="46.61438" lon="5.54947">
        <ele>446.8</ele>
        <time>2020-06-21T09:26:44Z</time>
      </trkpt>
      <trkpt lat="46.61441" lon="5.54953">
        <ele>447.1</ele>
        <time>2020-06-21T09:26:47Z</time>
      </trkpt>
      <trkpt lat="46.61443" lon="5.5496">
        <ele>447.7</ele>
        <time>2020-06-21T09:26:54Z</time>
      </trkpt>
      <trkpt lat="46.61443" lon="5.54966">
        <ele>448.1</ele>
        <time>2020-06-21T09:27:01Z</time>
      </trkpt>
      <trkpt lat="46.61447" lon="5.54985">
        <ele>453.2</ele>
        <time>2020-06-21T09:27:26Z</time>
      </trkpt>
      <trkpt lat="46.61447" lon="5.54992">
        <ele>453.4</ele>
        <time>2020-06-21T09:27:28Z</time>
      </trkpt>
      <trkpt lat="46.61447" lon="5.54998">
        <ele>454.3</ele>
        <time>2020-06-21T09:27:33Z</time>
      </trkpt>
      <trkpt lat="46.6146" lon="5.55013">
        <ele>461.2</ele>
        <time>2020-06-21T09:33:22Z</time>
      </trkpt>
      <trkpt lat="46.61465" lon="5.55014">
        <ele>460.7</ele>
        <time>2020-06-21T09:33:29Z</time>
      </trkpt>
      <trkpt lat="46.61469" lon="5.55013">
        <ele>460.4</ele>
        <time>2020-06-21T09:33:33Z</time>
      </trkpt>
      <trkpt lat="46.61474" lon="5.55013">
        <ele>459.5</ele>
        <time>2020-06-21T09:33:42Z</time>
      </trkpt>
      <trkpt lat="46.61468" lon="5.55015">
        <ele>454.7</ele>
        <time>2020-06-21T09:34:11Z</time>
      </trkpt>
      <trkpt lat="46.61458" lon="5.55012">
        <ele>451.8</ele>
        <time>2020-06-21T09:34:27Z</time>
      </trkpt>
      <trkpt lat="46.61454" lon="5.5501">
        <ele>451.4</ele>
        <time>2020-06-21T09:34:30Z</time>
      </trkpt>
      <trkpt lat="46.61449" lon="5.55014">
        <ele>450.6</ele>
        <time>2020-06-21T09:34:35Z</time>
      </trkpt>
      <trkpt lat="46.61459" lon="5.55018">
        <ele>447.9</ele>
        <time>2020-06-21T09:35:11Z</time>
      </trkpt>
      <trkpt lat="46.61466" lon="5.55023">
        <ele>445.8</ele>
        <time>2020-06-21T09:35:23Z</time>
      </trkpt>
      <trkpt lat="46.6147" lon="5.55028">
        <ele>445.1</ele>
        <time>2020-06-21T09:35:26Z</time>
      </trkpt>
      <trkpt lat="46.61468" lon="5.55038">
        <ele>443.8</ele>
        <time>2020-06-21T09:35:38Z</time>
      </trkpt>
      <trkpt lat="46.61468" lon="5.55054">
        <ele>443.9</ele>
        <time>2020-06-21T09:35:59Z</time>
      </trkpt>
      <trkpt lat="46.61466" lon="5.5506">
        <ele>444.1</ele>
        <time>2020-06-21T09:36:05Z</time>
      </trkpt>
      <trkpt lat="46.61464" lon="5.55067">
        <ele>444.5</ele>
        <time>2020-06-21T09:36:10Z</time>
      </trkpt>
      <trkpt lat="46.61462" lon="5.55074">
        <ele>445</ele>
        <time>2020-06-21T09:36:17Z</time>
      </trkpt>
      <trkpt lat="46.61462" lon="5.5508">
        <ele>446.1</ele>
        <time>2020-06-21T09:36:30Z</time>
      </trkpt>
      <trkpt lat="46.61466" lon="5.55085">
        <ele>446.3</ele>
        <time>2020-06-21T09:36:37Z</time>
      </trkpt>
      <trkpt lat="46.61468" lon="5.55092">
        <ele>446.7</ele>
        <time>2020-06-21T09:36:48Z</time>
      </trkpt>
      <trkpt lat="46.61472" lon="5.55098">
        <ele>447.2</ele>
        <time>2020-06-21T09:36:54Z</time>
      </trkpt>
      <trkpt lat="46.61472" lon="5.55107">
        <ele>452.7</ele>
        <time>2020-06-21T09:37:20Z</time>
      </trkpt>
      <trkpt lat="46.61475" lon="5.55114">
        <ele>455.2</ele>
        <time>2020-06-21T09:37:25Z</time>
      </trkpt>
      <trkpt lat="46.61477" lon="5.5512">
        <ele>458.6</ele>
        <time>2020-06-21T09:37:33Z</time>
      </trkpt>
      <trkpt lat="46.61478" lon="5.55128">
        <ele>460.2</ele>
        <time>2020-06-21T09:37:38Z</time>
      </trkpt>
      <trkpt lat="46.61484" lon="5.5514">
        <ele>463.6</ele>
        <time>2020-06-21T09:37:51Z</time>
      </trkpt>
      <trkpt lat="46.61487" lon="5.55145">
        <ele>466.4</ele>
        <time>2020-06-21T09:38:00Z</time>
      </trkpt>
      <trkpt lat="46.6149" lon="5.5515">
        <ele>472.1</ele>
        <time>2020-06-21T09:38:14Z</time>
      </trkpt>
      <trkpt lat="46.61493" lon="5.55155">
        <ele>474.4</ele>
        <time>2020-06-21T09:38:21Z</time>
      </trkpt>
      <trkpt lat="46.61494" lon="5.55161">
        <ele>475.5</ele>
        <time>2020-06-21T09:38:26Z</time>
      </trkpt>
      <trkpt lat="46.61494" lon="5.55168">
        <ele>476.7</ele>
        <time>2020-06-21T09:38:32Z</time>
      </trkpt>
      <trkpt lat="46.61496" lon="5.55174">
        <ele>478</ele>
        <time>2020-06-21T09:38:41Z</time>
      </trkpt>
      <trkpt lat="46.61495" lon="5.5518">
        <ele>478.3</ele>
        <time>2020-06-21T09:38:53Z</time>
      </trkpt>
      <trkpt lat="46.61496" lon="5.55187">
        <ele>477.8</ele>
        <time>2020-06-21T09:39:03Z</time>
      </trkpt>
      <trkpt lat="46.61498" lon="5.55193">
        <ele>477.5</ele>
        <time>2020-06-21T09:39:09Z</time>
      </trkpt>
      <trkpt lat="46.61504" lon="5.55199">
        <ele>477.5</ele>
        <time>2020-06-21T09:39:14Z</time>
      </trkpt>
      <trkpt lat="46.61509" lon="5.55201">
        <ele>477.7</ele>
        <time>2020-06-21T09:39:17Z</time>
      </trkpt>
      <trkpt lat="46.6152" lon="5.55204">
        <ele>486.9</ele>
        <time>2020-06-21T09:42:10Z</time>
      </trkpt>
      <trkpt lat="46.61524" lon="5.55207">
        <ele>486.9</ele>
        <time>2020-06-21T09:42:14Z</time>
      </trkpt>
      <trkpt lat="46.61528" lon="5.55211">
        <ele>486.7</ele>
        <time>2020-06-21T09:42:19Z</time>
      </trkpt>
      <trkpt lat="46.61532" lon="5.55214">
        <ele>486.5</ele>
        <time>2020-06-21T09:42:24Z</time>
      </trkpt>
      <trkpt lat="46.61537" lon="5.55215">
        <ele>485.6</ele>
        <time>2020-06-21T09:42:36Z</time>
      </trkpt>
      <trkpt lat="46.61543" lon="5.5522">
        <ele>485.3</ele>
        <time>2020-06-21T09:42:43Z</time>
      </trkpt>
      <trkpt lat="46.61548" lon="5.55223">
        <ele>485.1</ele>
        <time>2020-06-21T09:42:45Z</time>
      </trkpt>
      <trkpt lat="46.61552" lon="5.55225">
        <ele>484.8</ele>
        <time>2020-06-21T09:42:48Z</time>
      </trkpt>
      <trkpt lat="46.61556" lon="5.55228">
        <ele>484.1</ele>
        <time>2020-06-21T09:42:56Z</time>
      </trkpt>
      <trkpt lat="46.61561" lon="5.55231">
        <ele>483.5</ele>
        <time>2020-06-21T09:43:10Z</time>
      </trkpt>
      <trkpt lat="46.61565" lon="5.55234">
        <ele>483.3</ele>
        <time>2020-06-21T09:43:20Z</time>
      </trkpt>
      <trkpt lat="46.61572" lon="5.55236">
        <ele>483</ele>
        <time>2020-06-21T09:43:26Z</time>
      </trkpt>
      <trkpt lat="46.61577" lon="5.55238">
        <ele>482.8</ele>
        <time>2020-06-21T09:43:30Z</time>
      </trkpt>
      <trkpt lat="46.61581" lon="5.5524">
        <ele>482.7</ele>
        <time>2020-06-21T09:43:39Z</time>
      </trkpt>
      <trkpt lat="46.61585" lon="5.55245">
        <ele>483.7</ele>
        <time>2020-06-21T09:43:50Z</time>
      </trkpt>
      <trkpt lat="46.61586" lon="5.55251">
        <ele>484.8</ele>
        <time>2020-06-21T09:43:56Z</time>
      </trkpt>
      <trkpt lat="46.61588" lon="5.55257">
        <ele>486</ele>
        <time>2020-06-21T09:44:03Z</time>
      </trkpt>
      <trkpt lat="46.61599" lon="5.55256">
        <ele>489.6</ele>
        <time>2020-06-21T09:44:26Z</time>
      </trkpt>
      <trkpt lat="46.61603" lon="5.55249">
        <ele>492</ele>
        <time>2020-06-21T09:45:47Z</time>
      </trkpt>
      <trkpt lat="46.61605" lon="5.55243">
        <ele>492.4</ele>
        <time>2020-06-21T09:45:49Z</time>
      </trkpt>
      <trkpt lat="46.61617" lon="5.55245">
        <ele>498.2</ele>
        <time>2020-06-21T09:46:06Z</time>
      </trkpt>
      <trkpt lat="46.6162" lon="5.55249">
        <ele>500.3</ele>
        <time>2020-06-21T09:46:18Z</time>
      </trkpt>
      <trkpt lat="46.61625" lon="5.55252">
        <ele>501.8</ele>
        <time>2020-06-21T09:46:24Z</time>
      </trkpt>
      <trkpt lat="46.61629" lon="5.55254">
        <ele>502.7</ele>
        <time>2020-06-21T09:46:28Z</time>
      </trkpt>
      <trkpt lat="46.61634" lon="5.55256">
        <ele>504.3</ele>
        <time>2020-06-21T09:46:36Z</time>
      </trkpt>
      <trkpt lat="46.61638" lon="5.55254">
        <ele>505</ele>
        <time>2020-06-21T09:46:40Z</time>
      </trkpt>
      <trkpt lat="46.61644" lon="5.55251">
        <ele>505.8</ele>
        <time>2020-06-21T09:46:46Z</time>
      </trkpt>
      <trkpt lat="46.61649" lon="5.55253">
        <ele>506.4</ele>
        <time>2020-06-21T09:46:52Z</time>
      </trkpt>
      <trkpt lat="46.61655" lon="5.55255">
        <ele>506.8</ele>
        <time>2020-06-21T09:46:56Z</time>
      </trkpt>
      <trkpt lat="46.61662" lon="5.55256">
        <ele>507.1</ele>
        <time>2020-06-21T09:46:59Z</time>
      </trkpt>
      <trkpt lat="46.61667" lon="5.55257">
        <ele>507.6</ele>
        <time>2020-06-21T09:47:04Z</time>
      </trkpt>
      <trkpt lat="46.61672" lon="5.55257">
        <ele>509.5</ele>
        <time>2020-06-21T09:47:13Z</time>
      </trkpt>
      <trkpt lat="46.61698" lon="5.55265">
        <ele>510.7</ele>
        <time>2020-06-21T09:47:45Z</time>
      </trkpt>
      <trkpt lat="46.61702" lon="5.55264">
        <ele>511</ele>
        <time>2020-06-21T09:47:52Z</time>
      </trkpt>
      <trkpt lat="46.61706" lon="5.55261">
        <ele>511.2</ele>
        <time>2020-06-21T09:48:15Z</time>
      </trkpt>
      <trkpt lat="46.6171" lon="5.55254">
        <ele>507.8</ele>
        <time>2020-06-21T09:48:40Z</time>
      </trkpt>
      <trkpt lat="46.61712" lon="5.55231">
        <ele>508.1</ele>
        <time>2020-06-21T09:48:55Z</time>
      </trkpt>
      <trkpt lat="46.6171" lon="5.55224">
        <ele>509</ele>
        <time>2020-06-21T09:49:05Z</time>
      </trkpt>
      <trkpt lat="46.6171" lon="5.55217">
        <ele>509.6</ele>
        <time>2020-06-21T09:49:10Z</time>
      </trkpt>
      <trkpt lat="46.61708" lon="5.55209">
        <ele>510</ele>
        <time>2020-06-21T09:49:13Z</time>
      </trkpt>
      <trkpt lat="46.61707" lon="5.55202">
        <ele>510.9</ele>
        <time>2020-06-21T09:49:20Z</time>
      </trkpt>
      <trkpt lat="46.61707" lon="5.55195">
        <ele>511.8</ele>
        <time>2020-06-21T09:49:27Z</time>
      </trkpt>
      <trkpt lat="46.61708" lon="5.55189">
        <ele>512.4</ele>
        <time>2020-06-21T09:49:34Z</time>
      </trkpt>
      <trkpt lat="46.61705" lon="5.55166">
        <ele>512.8</ele>
        <time>2020-06-21T09:49:54Z</time>
      </trkpt>
      <trkpt lat="46.61703" lon="5.55159">
        <ele>513.1</ele>
        <time>2020-06-21T09:49:58Z</time>
      </trkpt>
      <trkpt lat="46.61697" lon="5.55141">
        <ele>518.6</ele>
        <time>2020-06-21T09:50:26Z</time>
      </trkpt>
      <trkpt lat="46.61697" lon="5.55143">
        <ele>521</ele>
        <time>2020-06-21T09:51:11Z</time>
      </trkpt>
      <trkpt lat="46.61694" lon="5.55136">
        <ele>520.7</ele>
        <time>2020-06-21T09:51:15Z</time>
      </trkpt>
      <trkpt lat="46.61693" lon="5.5513">
        <ele>519.6</ele>
        <time>2020-06-21T09:51:23Z</time>
      </trkpt>
      <trkpt lat="46.61691" lon="5.55122">
        <ele>519.1</ele>
        <time>2020-06-21T09:51:27Z</time>
      </trkpt>
      <trkpt lat="46.61688" lon="5.55117">
        <ele>519</ele>
        <time>2020-06-21T09:51:30Z</time>
      </trkpt>
      <trkpt lat="46.61685" lon="5.55111">
        <ele>519.1</ele>
        <time>2020-06-21T09:51:34Z</time>
      </trkpt>
      <trkpt lat="46.61685" lon="5.55104">
        <ele>520.1</ele>
        <time>2020-06-21T09:51:41Z</time>
      </trkpt>
      <trkpt lat="46.61684" lon="5.55097">
        <ele>521.3</ele>
        <time>2020-06-21T09:51:46Z</time>
      </trkpt>
      <trkpt lat="46.61685" lon="5.55091">
        <ele>522.8</ele>
        <time>2020-06-21T09:51:52Z</time>
      </trkpt>
      <trkpt lat="46.61685" lon="5.55083">
        <ele>524</ele>
        <time>2020-06-21T09:51:56Z</time>
      </trkpt>
      <trkpt lat="46.61689" lon="5.55078">
        <ele>527</ele>
        <time>2020-06-21T09:52:09Z</time>
      </trkpt>
      <trkpt lat="46.61695" lon="5.55076">
        <ele>528</ele>
        <time>2020-06-21T09:52:15Z</time>
      </trkpt>
      <trkpt lat="46.61699" lon="5.55073">
        <ele>528.7</ele>
        <time>2020-06-21T09:52:19Z</time>
      </trkpt>
      <trkpt lat="46.61704" lon="5.55073">
        <ele>529.7</ele>
        <time>2020-06-21T09:52:24Z</time>
      </trkpt>
      <trkpt lat="46.61709" lon="5.55072">
        <ele>530.6</ele>
        <time>2020-06-21T09:52:29Z</time>
      </trkpt>
      <trkpt lat="46.61715" lon="5.55073">
        <ele>531.2</ele>
        <time>2020-06-21T09:52:33Z</time>
      </trkpt>
      <trkpt lat="46.6172" lon="5.55075">
        <ele>532</ele>
        <time>2020-06-21T09:52:39Z</time>
      </trkpt>
      <trkpt lat="46.61723" lon="5.5508">
        <ele>532.9</ele>
        <time>2020-06-21T09:52:46Z</time>
      </trkpt>
      <trkpt lat="46.61733" lon="5.55086">
        <ele>534.1</ele>
        <time>2020-06-21T09:53:04Z</time>
      </trkpt>
      <trkpt lat="46.61737" lon="5.55089">
        <ele>534</ele>
        <time>2020-06-21T09:53:08Z</time>
      </trkpt>
      <trkpt lat="46.61742" lon="5.5509">
        <ele>534</ele>
        <time>2020-06-21T09:53:14Z</time>
      </trkpt>
      <trkpt lat="46.61754" lon="5.55098">
        <ele>541.2</ele>
        <time>2020-06-21T09:56:10Z</time>
      </trkpt>
      <trkpt lat="46.61752" lon="5.55107">
        <ele>539.7</ele>
        <time>2020-06-21T09:56:28Z</time>
      </trkpt>
      <trkpt lat="46.61747" lon="5.55106">
        <ele>531.7</ele>
        <time>2020-06-21T09:56:54Z</time>
      </trkpt>
      <trkpt lat="46.61752" lon="5.55106">
        <ele>523.6</ele>
        <time>2020-06-21T10:45:14Z</time>
      </trkpt>
      <trkpt lat="46.61745" lon="5.55098">
        <ele>512.1</ele>
        <time>2020-06-21T10:50:57Z</time>
      </trkpt>
      <trkpt lat="46.61741" lon="5.55097">
        <ele>511.9</ele>
        <time>2020-06-21T10:51:06Z</time>
      </trkpt>
      <trkpt lat="46.61737" lon="5.55093">
        <ele>511.7</ele>
        <time>2020-06-21T10:51:13Z</time>
      </trkpt>
      <trkpt lat="46.61731" lon="5.55093">
        <ele>511.2</ele>
        <time>2020-06-21T10:51:20Z</time>
      </trkpt>
      <trkpt lat="46.61726" lon="5.55094">
        <ele>510.8</ele>
        <time>2020-06-21T10:51:24Z</time>
      </trkpt>
      <trkpt lat="46.6172" lon="5.55089">
        <ele>510.5</ele>
        <time>2020-06-21T10:51:29Z</time>
      </trkpt>
      <trkpt lat="46.61716" lon="5.55084">
        <ele>510.3</ele>
        <time>2020-06-21T10:51:33Z</time>
      </trkpt>
      <trkpt lat="46.61711" lon="5.55082">
        <ele>510.2</ele>
        <time>2020-06-21T10:51:36Z</time>
      </trkpt>
      <trkpt lat="46.61706" lon="5.5508">
        <ele>510.3</ele>
        <time>2020-06-21T10:51:41Z</time>
      </trkpt>
      <trkpt lat="46.61701" lon="5.55079">
        <ele>510.7</ele>
        <time>2020-06-21T10:51:46Z</time>
      </trkpt>
      <trkpt lat="46.61696" lon="5.55077">
        <ele>511.3</ele>
        <time>2020-06-21T10:51:51Z</time>
      </trkpt>
      <trkpt lat="46.61691" lon="5.55077">
        <ele>512</ele>
        <time>2020-06-21T10:51:56Z</time>
      </trkpt>
      <trkpt lat="46.61685" lon="5.55076">
        <ele>512.4</ele>
        <time>2020-06-21T10:51:59Z</time>
      </trkpt>
      <trkpt lat="46.6168" lon="5.55077">
        <ele>513.3</ele>
        <time>2020-06-21T10:52:07Z</time>
      </trkpt>
      <trkpt lat="46.61679" lon="5.55085">
        <ele>513.9</ele>
        <time>2020-06-21T10:52:12Z</time>
      </trkpt>
      <trkpt lat="46.61685" lon="5.55108">
        <ele>515.5</ele>
        <time>2020-06-21T10:52:30Z</time>
      </trkpt>
      <trkpt lat="46.61685" lon="5.55115">
        <ele>515.5</ele>
        <time>2020-06-21T10:52:38Z</time>
      </trkpt>
      <trkpt lat="46.61685" lon="5.55123">
        <ele>515.8</ele>
        <time>2020-06-21T10:52:45Z</time>
      </trkpt>
      <trkpt lat="46.61687" lon="5.55137">
        <ele>516.7</ele>
        <time>2020-06-21T10:52:55Z</time>
      </trkpt>
      <trkpt lat="46.61691" lon="5.55142">
        <ele>516.9</ele>
        <time>2020-06-21T10:53:00Z</time>
      </trkpt>
      <trkpt lat="46.61695" lon="5.55146">
        <ele>517</ele>
        <time>2020-06-21T10:53:02Z</time>
      </trkpt>
      <trkpt lat="46.617" lon="5.55161">
        <ele>514.8</ele>
        <time>2020-06-21T10:53:42Z</time>
      </trkpt>
      <trkpt lat="46.61702" lon="5.55151">
        <ele>505.2</ele>
        <time>2020-06-21T10:54:58Z</time>
      </trkpt>
      <trkpt lat="46.61706" lon="5.55154">
        <ele>504.7</ele>
        <time>2020-06-21T10:55:02Z</time>
      </trkpt>
      <trkpt lat="46.61709" lon="5.5516">
        <ele>504.2</ele>
        <time>2020-06-21T10:55:08Z</time>
      </trkpt>
      <trkpt lat="46.61709" lon="5.5517">
        <ele>504.5</ele>
        <time>2020-06-21T10:55:22Z</time>
      </trkpt>
      <trkpt lat="46.61715" lon="5.55194">
        <ele>506.4</ele>
        <time>2020-06-21T10:55:32Z</time>
      </trkpt>
      <trkpt lat="46.61716" lon="5.55201">
        <ele>506.2</ele>
        <time>2020-06-21T10:55:37Z</time>
      </trkpt>
      <trkpt lat="46.6172" lon="5.55208">
        <ele>505.9</ele>
        <time>2020-06-21T10:55:48Z</time>
      </trkpt>
      <trkpt lat="46.6172" lon="5.55216">
        <ele>505.8</ele>
        <time>2020-06-21T10:55:56Z</time>
      </trkpt>
      <trkpt lat="46.6172" lon="5.55226">
        <ele>505.7</ele>
        <time>2020-06-21T10:56:01Z</time>
      </trkpt>
      <trkpt lat="46.6172" lon="5.55233">
        <ele>505.7</ele>
        <time>2020-06-21T10:56:04Z</time>
      </trkpt>
      <trkpt lat="46.6172" lon="5.55242">
        <ele>506</ele>
        <time>2020-06-21T10:56:09Z</time>
      </trkpt>
      <trkpt lat="46.61718" lon="5.55261">
        <ele>508.9</ele>
        <time>2020-06-21T10:56:30Z</time>
      </trkpt>
      <trkpt lat="46.61716" lon="5.55267">
        <ele>509.5</ele>
        <time>2020-06-21T10:56:39Z</time>
      </trkpt>
      <trkpt lat="46.61711" lon="5.55264">
        <ele>509.8</ele>
        <time>2020-06-21T10:56:47Z</time>
      </trkpt>
      <trkpt lat="46.61705" lon="5.55263">
        <ele>509.8</ele>
        <time>2020-06-21T10:56:52Z</time>
      </trkpt>
      <trkpt lat="46.617" lon="5.55264">
        <ele>509.7</ele>
        <time>2020-06-21T10:56:54Z</time>
      </trkpt>
      <trkpt lat="46.61695" lon="5.55264">
        <ele>509.5</ele>
        <time>2020-06-21T10:56:58Z</time>
      </trkpt>
      <trkpt lat="46.6169" lon="5.55266">
        <ele>509.3</ele>
        <time>2020-06-21T10:57:02Z</time>
      </trkpt>
      <trkpt lat="46.61685" lon="5.55266">
        <ele>509.1</ele>
        <time>2020-06-21T10:57:08Z</time>
      </trkpt>
      <trkpt lat="46.6168" lon="5.55268">
        <ele>509.1</ele>
        <time>2020-06-21T10:57:13Z</time>
      </trkpt>
      <trkpt lat="46.61676" lon="5.55267">
        <ele>508.5</ele>
        <time>2020-06-21T10:57:18Z</time>
      </trkpt>
      <trkpt lat="46.61671" lon="5.55266">
        <ele>508.1</ele>
        <time>2020-06-21T10:57:20Z</time>
      </trkpt>
      <trkpt lat="46.61666" lon="5.55266">
        <ele>507.3</ele>
        <time>2020-06-21T10:57:23Z</time>
      </trkpt>
      <trkpt lat="46.61661" lon="5.55265">
        <ele>505.7</ele>
        <time>2020-06-21T10:57:29Z</time>
      </trkpt>
      <trkpt lat="46.61656" lon="5.55264">
        <ele>503.2</ele>
        <time>2020-06-21T10:57:37Z</time>
      </trkpt>
      <trkpt lat="46.61651" lon="5.55263">
        <ele>500.8</ele>
        <time>2020-06-21T10:57:43Z</time>
      </trkpt>
      <trkpt lat="46.61647" lon="5.55261">
        <ele>498.4</ele>
        <time>2020-06-21T10:57:49Z</time>
      </trkpt>
      <trkpt lat="46.61642" lon="5.55259">
        <ele>496.2</ele>
        <time>2020-06-21T10:57:54Z</time>
      </trkpt>
      <trkpt lat="46.61637" lon="5.5526">
        <ele>494.6</ele>
        <time>2020-06-21T10:57:59Z</time>
      </trkpt>
      <trkpt lat="46.61633" lon="5.55261">
        <ele>493.1</ele>
        <time>2020-06-21T10:58:04Z</time>
      </trkpt>
      <trkpt lat="46.61628" lon="5.5526">
        <ele>491.4</ele>
        <time>2020-06-21T10:58:11Z</time>
      </trkpt>
      <trkpt lat="46.61623" lon="5.55258">
        <ele>490.7</ele>
        <time>2020-06-21T10:58:17Z</time>
      </trkpt>
      <trkpt lat="46.61617" lon="5.55255">
        <ele>490.5</ele>
        <time>2020-06-21T10:58:20Z</time>
      </trkpt>
      <trkpt lat="46.61613" lon="5.55252">
        <ele>490.4</ele>
        <time>2020-06-21T10:58:23Z</time>
      </trkpt>
      <trkpt lat="46.61609" lon="5.5525">
        <ele>490.2</ele>
        <time>2020-06-21T10:58:28Z</time>
      </trkpt>
      <trkpt lat="46.61605" lon="5.55247">
        <ele>489.6</ele>
        <time>2020-06-21T10:58:39Z</time>
      </trkpt>
      <trkpt lat="46.61599" lon="5.55247">
        <ele>489.3</ele>
        <time>2020-06-21T10:58:44Z</time>
      </trkpt>
      <trkpt lat="46.61594" lon="5.55246">
        <ele>489.4</ele>
        <time>2020-06-21T10:58:53Z</time>
      </trkpt>
      <trkpt lat="46.61589" lon="5.55245">
        <ele>489.6</ele>
        <time>2020-06-21T10:58:58Z</time>
      </trkpt>
      <trkpt lat="46.61576" lon="5.55235">
        <ele>489.6</ele>
        <time>2020-06-21T10:59:10Z</time>
      </trkpt>
      <trkpt lat="46.61572" lon="5.55233">
        <ele>489.1</ele>
        <time>2020-06-21T10:59:16Z</time>
      </trkpt>
      <trkpt lat="46.61565" lon="5.55231">
        <ele>487.2</ele>
        <time>2020-06-21T10:59:30Z</time>
      </trkpt>
      <trkpt lat="46.61561" lon="5.55228">
        <ele>485</ele>
        <time>2020-06-21T10:59:40Z</time>
      </trkpt>
      <trkpt lat="46.61556" lon="5.55227">
        <ele>483</ele>
        <time>2020-06-21T10:59:47Z</time>
      </trkpt>
      <trkpt lat="46.61552" lon="5.55225">
        <ele>481.7</ele>
        <time>2020-06-21T10:59:51Z</time>
      </trkpt>
      <trkpt lat="46.61548" lon="5.55222">
        <ele>479.9</ele>
        <time>2020-06-21T10:59:57Z</time>
      </trkpt>
      <trkpt lat="46.61543" lon="5.55221">
        <ele>478.2</ele>
        <time>2020-06-21T11:00:04Z</time>
      </trkpt>
      <trkpt lat="46.61538" lon="5.55218">
        <ele>477.6</ele>
        <time>2020-06-21T11:00:11Z</time>
      </trkpt>
      <trkpt lat="46.61533" lon="5.55219">
        <ele>477.8</ele>
        <time>2020-06-21T11:00:17Z</time>
      </trkpt>
      <trkpt lat="46.61529" lon="5.55215">
        <ele>477.4</ele>
        <time>2020-06-21T11:00:23Z</time>
      </trkpt>
      <trkpt lat="46.61525" lon="5.55211">
        <ele>476.6</ele>
        <time>2020-06-21T11:00:28Z</time>
      </trkpt>
      <trkpt lat="46.6152" lon="5.55208">
        <ele>475.7</ele>
        <time>2020-06-21T11:00:33Z</time>
      </trkpt>
      <trkpt lat="46.61516" lon="5.55206">
        <ele>473.7</ele>
        <time>2020-06-21T11:00:40Z</time>
      </trkpt>
      <trkpt lat="46.61511" lon="5.55206">
        <ele>471.7</ele>
        <time>2020-06-21T11:00:47Z</time>
      </trkpt>
      <trkpt lat="46.61506" lon="5.55203">
        <ele>470.7</ele>
        <time>2020-06-21T11:00:56Z</time>
      </trkpt>
      <trkpt lat="46.61502" lon="5.55198">
        <ele>470</ele>
        <time>2020-06-21T11:01:03Z</time>
      </trkpt>
      <trkpt lat="46.61499" lon="5.55193">
        <ele>469.5</ele>
        <time>2020-06-21T11:01:08Z</time>
      </trkpt>
      <trkpt lat="46.61495" lon="5.55186">
        <ele>468.4</ele>
        <time>2020-06-21T11:01:17Z</time>
      </trkpt>
      <trkpt lat="46.61493" lon="5.5518">
        <ele>467.9</ele>
        <time>2020-06-21T11:01:21Z</time>
      </trkpt>
      <trkpt lat="46.61491" lon="5.55173">
        <ele>467</ele>
        <time>2020-06-21T11:01:31Z</time>
      </trkpt>
      <trkpt lat="46.6149" lon="5.55167">
        <ele>466.9</ele>
        <time>2020-06-21T11:01:37Z</time>
      </trkpt>
      <trkpt lat="46.61486" lon="5.55151">
        <ele>465.4</ele>
        <time>2020-06-21T11:01:54Z</time>
      </trkpt>
      <trkpt lat="46.61484" lon="5.55145">
        <ele>464.9</ele>
        <time>2020-06-21T11:02:01Z</time>
      </trkpt>
      <trkpt lat="46.61482" lon="5.55138">
        <ele>464.1</ele>
        <time>2020-06-21T11:02:09Z</time>
      </trkpt>
      <trkpt lat="46.61478" lon="5.55133">
        <ele>463.8</ele>
        <time>2020-06-21T11:02:11Z</time>
      </trkpt>
      <trkpt lat="46.61474" lon="5.55128">
        <ele>462.9</ele>
        <time>2020-06-21T11:02:15Z</time>
      </trkpt>
      <trkpt lat="46.6147" lon="5.55124">
        <ele>461.7</ele>
        <time>2020-06-21T11:02:20Z</time>
      </trkpt>
      <trkpt lat="46.61467" lon="5.55118">
        <ele>459.6</ele>
        <time>2020-06-21T11:02:29Z</time>
      </trkpt>
      <trkpt lat="46.61464" lon="5.55112">
        <ele>458.4</ele>
        <time>2020-06-21T11:02:34Z</time>
      </trkpt>
      <trkpt lat="46.6146" lon="5.55107">
        <ele>457.8</ele>
        <time>2020-06-21T11:02:37Z</time>
      </trkpt>
      <trkpt lat="46.61457" lon="5.55102">
        <ele>456.4</ele>
        <time>2020-06-21T11:02:43Z</time>
      </trkpt>
      <trkpt lat="46.61455" lon="5.55096">
        <ele>454.6</ele>
        <time>2020-06-21T11:02:52Z</time>
      </trkpt>
      <trkpt lat="46.61453" lon="5.5509">
        <ele>453.4</ele>
        <time>2020-06-21T11:02:57Z</time>
      </trkpt>
      <trkpt lat="46.6145" lon="5.55084">
        <ele>451</ele>
        <time>2020-06-21T11:03:06Z</time>
      </trkpt>
      <trkpt lat="46.61452" lon="5.55076">
        <ele>449.5</ele>
        <time>2020-06-21T11:03:15Z</time>
      </trkpt>
      <trkpt lat="46.6145" lon="5.55064">
        <ele>447.8</ele>
        <time>2020-06-21T11:03:25Z</time>
      </trkpt>
      <trkpt lat="46.61448" lon="5.55055">
        <ele>447.1</ele>
        <time>2020-06-21T11:03:33Z</time>
      </trkpt>
      <trkpt lat="46.61447" lon="5.55048">
        <ele>446.8</ele>
        <time>2020-06-21T11:03:35Z</time>
      </trkpt>
      <trkpt lat="46.61446" lon="5.55039">
        <ele>446.2</ele>
        <time>2020-06-21T11:03:40Z</time>
      </trkpt>
      <trkpt lat="46.61447" lon="5.55032">
        <ele>445.9</ele>
        <time>2020-06-21T11:03:43Z</time>
      </trkpt>
      <trkpt lat="46.61462" lon="5.55006">
        <ele>439.2</ele>
        <time>2020-06-21T11:05:06Z</time>
      </trkpt>
      <trkpt lat="46.61477" lon="5.55">
        <ele>438</ele>
        <time>2020-06-21T11:05:23Z</time>
      </trkpt>
      <trkpt lat="46.61488" lon="5.54992">
        <ele>437.1</ele>
        <time>2020-06-21T11:05:41Z</time>
      </trkpt>
      <trkpt lat="46.61501" lon="5.54986">
        <ele>434.6</ele>
        <time>2020-06-21T11:05:54Z</time>
      </trkpt>
      <trkpt lat="46.61507" lon="5.54981">
        <ele>434.3</ele>
        <time>2020-06-21T11:05:56Z</time>
      </trkpt>
      <trkpt lat="46.61511" lon="5.54978">
        <ele>433.8</ele>
        <time>2020-06-21T11:05:59Z</time>
      </trkpt>
      <trkpt lat="46.61514" lon="5.54973">
        <ele>433</ele>
        <time>2020-06-21T11:06:08Z</time>
      </trkpt>
      <trkpt lat="46.61527" lon="5.54945">
        <ele>431.3</ele>
        <time>2020-06-21T11:06:41Z</time>
      </trkpt>
      <trkpt lat="46.61529" lon="5.54939">
        <ele>431.5</ele>
        <time>2020-06-21T11:06:50Z</time>
      </trkpt>
      <trkpt lat="46.61531" lon="5.54932">
        <ele>431.9</ele>
        <time>2020-06-21T11:06:53Z</time>
      </trkpt>
      <trkpt lat="46.61535" lon="5.54927">
        <ele>432.2</ele>
        <time>2020-06-21T11:06:56Z</time>
      </trkpt>
      <trkpt lat="46.61539" lon="5.54921">
        <ele>432.3</ele>
        <time>2020-06-21T11:06:58Z</time>
      </trkpt>
      <trkpt lat="46.61545" lon="5.5491">
        <ele>432.6</ele>
        <time>2020-06-21T11:07:09Z</time>
      </trkpt>
      <trkpt lat="46.6155" lon="5.5491">
        <ele>432.5</ele>
        <time>2020-06-21T11:07:13Z</time>
      </trkpt>
      <trkpt lat="46.61555" lon="5.54909">
        <ele>432.5</ele>
        <time>2020-06-21T11:07:20Z</time>
      </trkpt>
      <trkpt lat="46.61558" lon="5.54904">
        <ele>432</ele>
        <time>2020-06-21T11:07:25Z</time>
      </trkpt>
      <trkpt lat="46.61562" lon="5.54899">
        <ele>431.6</ele>
        <time>2020-06-21T11:07:30Z</time>
      </trkpt>
      <trkpt lat="46.61568" lon="5.54895">
        <ele>431.2</ele>
        <time>2020-06-21T11:07:35Z</time>
      </trkpt>
      <trkpt lat="46.6157" lon="5.54888">
        <ele>430.9</ele>
        <time>2020-06-21T11:07:38Z</time>
      </trkpt>
      <trkpt lat="46.61573" lon="5.54881">
        <ele>430.3</ele>
        <time>2020-06-21T11:07:45Z</time>
      </trkpt>
      <trkpt lat="46.61577" lon="5.54877">
        <ele>429.4</ele>
        <time>2020-06-21T11:07:52Z</time>
      </trkpt>
      <trkpt lat="46.61581" lon="5.54875">
        <ele>427.7</ele>
        <time>2020-06-21T11:08:01Z</time>
      </trkpt>
      <trkpt lat="46.61587" lon="5.54872">
        <ele>427.1</ele>
        <time>2020-06-21T11:08:04Z</time>
      </trkpt>
      <trkpt lat="46.6159" lon="5.54867">
        <ele>426.8</ele>
        <time>2020-06-21T11:08:06Z</time>
      </trkpt>
      <trkpt lat="46.61605" lon="5.54862">
        <ele>424.1</ele>
        <time>2020-06-21T11:08:21Z</time>
      </trkpt>
      <trkpt lat="46.6161" lon="5.54861">
        <ele>422.9</ele>
        <time>2020-06-21T11:08:29Z</time>
      </trkpt>
      <trkpt lat="46.61625" lon="5.54863">
        <ele>421.1</ele>
        <time>2020-06-21T11:08:43Z</time>
      </trkpt>
      <trkpt lat="46.6163" lon="5.54865">
        <ele>420.6</ele>
        <time>2020-06-21T11:08:47Z</time>
      </trkpt>
      <trkpt lat="46.61648" lon="5.54881">
        <ele>415.9</ele>
        <time>2020-06-21T11:09:35Z</time>
      </trkpt>
      <trkpt lat="46.61652" lon="5.54882">
        <ele>414.8</ele>
        <time>2020-06-21T11:09:44Z</time>
      </trkpt>
      <trkpt lat="46.61659" lon="5.54885">
        <ele>414.1</ele>
        <time>2020-06-21T11:09:55Z</time>
      </trkpt>
      <trkpt lat="46.61664" lon="5.54886">
        <ele>413.6</ele>
        <time>2020-06-21T11:10:00Z</time>
      </trkpt>
      <trkpt lat="46.61668" lon="5.54888">
        <ele>413.5</ele>
        <time>2020-06-21T11:10:02Z</time>
      </trkpt>
      <trkpt lat="46.61673" lon="5.54889">
        <ele>413.3</ele>
        <time>2020-06-21T11:10:05Z</time>
      </trkpt>
      <trkpt lat="46.61691" lon="5.54888">
        <ele>414</ele>
        <time>2020-06-21T11:10:29Z</time>
      </trkpt>
      <trkpt lat="46.61702" lon="5.54887">
        <ele>414.3</ele>
        <time>2020-06-21T11:10:47Z</time>
      </trkpt>
      <trkpt lat="46.61706" lon="5.54887">
        <ele>414.3</ele>
        <time>2020-06-21T11:10:53Z</time>
      </trkpt>
      <trkpt lat="46.61719" lon="5.54893">
        <ele>411.9</ele>
        <time>2020-06-21T11:11:18Z</time>
      </trkpt>
      <trkpt lat="46.61744" lon="5.54889">
        <ele>408.9</ele>
        <time>2020-06-21T11:11:46Z</time>
      </trkpt>
      <trkpt lat="46.61748" lon="5.5489">
        <ele>408.8</ele>
        <time>2020-06-21T11:11:51Z</time>
      </trkpt>
      <trkpt lat="46.61761" lon="5.54896">
        <ele>405.9</ele>
        <time>2020-06-21T11:12:15Z</time>
      </trkpt>
      <trkpt lat="46.61765" lon="5.54897">
        <ele>405.3</ele>
        <time>2020-06-21T11:12:19Z</time>
      </trkpt>
      <trkpt lat="46.61787" lon="5.54907">
        <ele>400</ele>
        <time>2020-06-21T11:13:04Z</time>
      </trkpt>
      <trkpt lat="46.61796" lon="5.54914">
        <ele>402.4</ele>
        <time>2020-06-21T11:13:26Z</time>
      </trkpt>
      <trkpt lat="46.61802" lon="5.54919">
        <ele>402.6</ele>
        <time>2020-06-21T11:13:28Z</time>
      </trkpt>
      <trkpt lat="46.61816" lon="5.5493">
        <ele>404</ele>
        <time>2020-06-21T11:13:48Z</time>
      </trkpt>
      <trkpt lat="46.61819" lon="5.54935">
        <ele>404.2</ele>
        <time>2020-06-21T11:13:52Z</time>
      </trkpt>
      <trkpt lat="46.61823" lon="5.54938">
        <ele>404.2</ele>
        <time>2020-06-21T11:13:55Z</time>
      </trkpt>
      <trkpt lat="46.61828" lon="5.54941">
        <ele>404.1</ele>
        <time>2020-06-21T11:14:00Z</time>
      </trkpt>
      <trkpt lat="46.61841" lon="5.5495">
        <ele>400.7</ele>
        <time>2020-06-21T11:14:25Z</time>
      </trkpt>
      <trkpt lat="46.61845" lon="5.54954">
        <ele>399.6</ele>
        <time>2020-06-21T11:14:30Z</time>
      </trkpt>
      <trkpt lat="46.61858" lon="5.5496">
        <ele>394.7</ele>
        <time>2020-06-21T11:14:45Z</time>
      </trkpt>
      <trkpt lat="46.61864" lon="5.54963">
        <ele>392.7</ele>
        <time>2020-06-21T11:14:55Z</time>
      </trkpt>
      <trkpt lat="46.61869" lon="5.54965">
        <ele>391.3</ele>
        <time>2020-06-21T11:15:04Z</time>
      </trkpt>
      <trkpt lat="46.61909" lon="5.54974">
        <ele>385.5</ele>
        <time>2020-06-21T11:15:56Z</time>
      </trkpt>
      <trkpt lat="46.61913" lon="5.54973">
        <ele>386.6</ele>
        <time>2020-06-21T11:16:02Z</time>
      </trkpt>
      <trkpt lat="46.61923" lon="5.54977">
        <ele>389</ele>
        <time>2020-06-21T11:16:16Z</time>
      </trkpt>
      <trkpt lat="46.61934" lon="5.54979">
        <ele>393.5</ele>
        <time>2020-06-21T11:16:34Z</time>
      </trkpt>
      <trkpt lat="46.61938" lon="5.54983">
        <ele>393.8</ele>
        <time>2020-06-21T11:16:37Z</time>
      </trkpt>
      <trkpt lat="46.61942" lon="5.54988">
        <ele>394.1</ele>
        <time>2020-06-21T11:16:42Z</time>
      </trkpt>
      <trkpt lat="46.61979" lon="5.55051">
        <ele>397.5</ele>
        <time>2020-06-21T11:19:15Z</time>
      </trkpt>
      <trkpt lat="46.62014" lon="5.55077">
        <ele>397</ele>
        <time>2020-06-21T11:20:00Z</time>
      </trkpt>
      <trkpt lat="46.6203" lon="5.55084">
        <ele>396.1</ele>
        <time>2020-06-21T11:20:24Z</time>
      </trkpt>
      <trkpt lat="46.62036" lon="5.55086">
        <ele>396</ele>
        <time>2020-06-21T11:20:26Z</time>
      </trkpt>
      <trkpt lat="46.62041" lon="5.55086">
        <ele>395.8</ele>
        <time>2020-06-21T11:20:31Z</time>
      </trkpt>
      <trkpt lat="46.62052" lon="5.55082">
        <ele>394.5</ele>
        <time>2020-06-21T11:20:42Z</time>
      </trkpt>
      <trkpt lat="46.62069" lon="5.55083">
        <ele>393.8</ele>
        <time>2020-06-21T11:21:04Z</time>
      </trkpt>
      <trkpt lat="46.62074" lon="5.55087">
        <ele>393.9</ele>
        <time>2020-06-21T11:21:07Z</time>
      </trkpt>
      <trkpt lat="46.62094" lon="5.551">
        <ele>395.6</ele>
        <time>2020-06-21T11:21:47Z</time>
      </trkpt>
      <trkpt lat="46.62099" lon="5.55103">
        <ele>395.3</ele>
        <time>2020-06-21T11:21:50Z</time>
      </trkpt>
      <trkpt lat="46.62115" lon="5.55102">
        <ele>392.7</ele>
        <time>2020-06-21T11:22:06Z</time>
      </trkpt>
      <trkpt lat="46.6212" lon="5.55103">
        <ele>392.4</ele>
        <time>2020-06-21T11:22:10Z</time>
      </trkpt>
      <trkpt lat="46.62123" lon="5.55099">
        <ele>392.2</ele>
        <time>2020-06-21T11:22:12Z</time>
      </trkpt>
      <trkpt lat="46.62137" lon="5.55102">
        <ele>391.7</ele>
        <time>2020-06-21T11:22:27Z</time>
      </trkpt>
      <trkpt lat="46.62142" lon="5.551">
        <ele>391.4</ele>
        <time>2020-06-21T11:22:35Z</time>
      </trkpt>
      <trkpt lat="46.62146" lon="5.55098">
        <ele>390.6</ele>
        <time>2020-06-21T11:22:46Z</time>
      </trkpt>
      <trkpt lat="46.62151" lon="5.55098">
        <ele>390.2</ele>
        <time>2020-06-21T11:22:49Z</time>
      </trkpt>
      <trkpt lat="46.62161" lon="5.55094">
        <ele>386.7</ele>
        <time>2020-06-21T11:23:10Z</time>
      </trkpt>
      <trkpt lat="46.62166" lon="5.55092">
        <ele>386.4</ele>
        <time>2020-06-21T11:23:16Z</time>
      </trkpt>
      <trkpt lat="46.62172" lon="5.55093">
        <ele>386.4</ele>
        <time>2020-06-21T11:23:18Z</time>
      </trkpt>
      <trkpt lat="46.62177" lon="5.55094">
        <ele>386.3</ele>
        <time>2020-06-21T11:23:20Z</time>
      </trkpt>
      <trkpt lat="46.62181" lon="5.55089">
        <ele>386.1</ele>
        <time>2020-06-21T11:23:23Z</time>
      </trkpt>
      <trkpt lat="46.62186" lon="5.55087">
        <ele>385.6</ele>
        <time>2020-06-21T11:23:32Z</time>
      </trkpt>
      <trkpt lat="46.62205" lon="5.55087">
        <ele>385.1</ele>
        <time>2020-06-21T11:23:43Z</time>
      </trkpt>
      <trkpt lat="46.62211" lon="5.55086">
        <ele>385</ele>
        <time>2020-06-21T11:23:50Z</time>
      </trkpt>
      <trkpt lat="46.6222" lon="5.55083">
        <ele>384.7</ele>
        <time>2020-06-21T11:23:58Z</time>
      </trkpt>
      <trkpt lat="46.62229" lon="5.55076">
        <ele>385</ele>
        <time>2020-06-21T11:24:22Z</time>
      </trkpt>
      <trkpt lat="46.62233" lon="5.55071">
        <ele>385.1</ele>
        <time>2020-06-21T11:24:25Z</time>
      </trkpt>
      <trkpt lat="46.62261" lon="5.55047">
        <ele>383.9</ele>
        <time>2020-06-21T11:25:05Z</time>
      </trkpt>
      <trkpt lat="46.62267" lon="5.55045">
        <ele>383.7</ele>
        <time>2020-06-21T11:25:07Z</time>
      </trkpt>
      <trkpt lat="46.62273" lon="5.55048">
        <ele>383.4</ele>
        <time>2020-06-21T11:25:09Z</time>
      </trkpt>
      <trkpt lat="46.62278" lon="5.55051">
        <ele>382.8</ele>
        <time>2020-06-21T11:25:15Z</time>
      </trkpt>
      <trkpt lat="46.62284" lon="5.55051">
        <ele>382.4</ele>
        <time>2020-06-21T11:25:21Z</time>
      </trkpt>
      <trkpt lat="46.62326" lon="5.55067">
        <ele>375.3</ele>
        <time>2020-06-21T11:26:25Z</time>
      </trkpt>
      <trkpt lat="46.62331" lon="5.5507">
        <ele>375.1</ele>
        <time>2020-06-21T11:26:28Z</time>
      </trkpt>
      <trkpt lat="46.62335" lon="5.55074">
        <ele>374.5</ele>
        <time>2020-06-21T11:26:33Z</time>
      </trkpt>
      <trkpt lat="46.62339" lon="5.55078">
        <ele>374</ele>
        <time>2020-06-21T11:26:35Z</time>
      </trkpt>
      <trkpt lat="46.62343" lon="5.55082">
        <ele>372.9</ele>
        <time>2020-06-21T11:26:41Z</time>
      </trkpt>
      <trkpt lat="46.62358" lon="5.55087">
        <ele>367.2</ele>
        <time>2020-06-21T11:27:38Z</time>
      </trkpt>
      <trkpt lat="46.62373" lon="5.5509">
        <ele>371.7</ele>
        <time>2020-06-21T11:28:08Z</time>
      </trkpt>
      <trkpt lat="46.62402" lon="5.55088">
        <ele>375.4</ele>
        <time>2020-06-21T11:28:26Z</time>
      </trkpt>
      <trkpt lat="46.62407" lon="5.55087">
        <ele>375.5</ele>
        <time>2020-06-21T11:28:28Z</time>
      </trkpt>
      <trkpt lat="46.62429" lon="5.55081">
        <ele>375.6</ele>
        <time>2020-06-21T11:29:58Z</time>
      </trkpt>
      <trkpt lat="46.62431" lon="5.55088">
        <ele>379.8</ele>
        <time>2020-06-21T11:30:20Z</time>
      </trkpt>
      <trkpt lat="46.6243" lon="5.55097">
        <ele>385.9</ele>
        <time>2020-06-21T11:31:00Z</time>
      </trkpt>
      <trkpt lat="46.62429" lon="5.55105">
        <ele>386.8</ele>
        <time>2020-06-21T11:31:05Z</time>
      </trkpt>
      <trkpt lat="46.62433" lon="5.55123">
        <ele>392.3</ele>
        <time>2020-06-21T11:31:35Z</time>
      </trkpt>
      <trkpt lat="46.62446" lon="5.5512">
        <ele>393.6</ele>
        <time>2020-06-21T11:31:57Z</time>
      </trkpt>
      <trkpt lat="46.62451" lon="5.5512">
        <ele>394</ele>
        <time>2020-06-21T11:32:01Z</time>
      </trkpt>
      <trkpt lat="46.62452" lon="5.5513">
        <ele>398.8</ele>
        <time>2020-06-21T11:32:35Z</time>
      </trkpt>
      <trkpt lat="46.62447" lon="5.55145">
        <ele>401.7</ele>
        <time>2020-06-21T11:32:48Z</time>
      </trkpt>
      <trkpt lat="46.62448" lon="5.55152">
        <ele>402.1</ele>
        <time>2020-06-21T11:32:53Z</time>
      </trkpt>
      <trkpt lat="46.62451" lon="5.5514">
        <ele>401.8</ele>
        <time>2020-06-21T11:33:56Z</time>
      </trkpt>
      <trkpt lat="46.62455" lon="5.55136">
        <ele>401.8</ele>
        <time>2020-06-21T11:34:02Z</time>
      </trkpt>
      <trkpt lat="46.62459" lon="5.55131">
        <ele>402.1</ele>
        <time>2020-06-21T11:34:09Z</time>
      </trkpt>
      <trkpt lat="46.62462" lon="5.55125">
        <ele>402.2</ele>
        <time>2020-06-21T11:34:14Z</time>
      </trkpt>
      <trkpt lat="46.62465" lon="5.5512">
        <ele>402.4</ele>
        <time>2020-06-21T11:34:18Z</time>
      </trkpt>
      <trkpt lat="46.62469" lon="5.55115">
        <ele>402.5</ele>
        <time>2020-06-21T11:34:22Z</time>
      </trkpt>
      <trkpt lat="46.62472" lon="5.55111">
        <ele>402.6</ele>
        <time>2020-06-21T11:34:26Z</time>
      </trkpt>
      <trkpt lat="46.62476" lon="5.55106">
        <ele>403</ele>
        <time>2020-06-21T11:34:32Z</time>
      </trkpt>
      <trkpt lat="46.6248" lon="5.55101">
        <ele>403.7</ele>
        <time>2020-06-21T11:34:38Z</time>
      </trkpt>
      <trkpt lat="46.62483" lon="5.55095">
        <ele>404.6</ele>
        <time>2020-06-21T11:34:53Z</time>
      </trkpt>
      <trkpt lat="46.62488" lon="5.55093">
        <ele>404.5</ele>
        <time>2020-06-21T11:34:57Z</time>
      </trkpt>
      <trkpt lat="46.62501" lon="5.55094">
        <ele>404.3</ele>
        <time>2020-06-21T11:35:06Z</time>
      </trkpt>
      <trkpt lat="46.62505" lon="5.55095">
        <ele>404.2</ele>
        <time>2020-06-21T11:35:10Z</time>
      </trkpt>
      <trkpt lat="46.62511" lon="5.55097">
        <ele>404</ele>
        <time>2020-06-21T11:35:14Z</time>
      </trkpt>
      <trkpt lat="46.62516" lon="5.55098">
        <ele>403.3</ele>
        <time>2020-06-21T11:35:20Z</time>
      </trkpt>
      <trkpt lat="46.62522" lon="5.55098">
        <ele>401.7</ele>
        <time>2020-06-21T11:36:08Z</time>
      </trkpt>
      <trkpt lat="46.62526" lon="5.55095">
        <ele>402.2</ele>
        <time>2020-06-21T11:36:12Z</time>
      </trkpt>
      <trkpt lat="46.62531" lon="5.55094">
        <ele>402.8</ele>
        <time>2020-06-21T11:36:17Z</time>
      </trkpt>
      <trkpt lat="46.62537" lon="5.55096">
        <ele>403.2</ele>
        <time>2020-06-21T11:36:22Z</time>
      </trkpt>
      <trkpt lat="46.62542" lon="5.55098">
        <ele>403.5</ele>
        <time>2020-06-21T11:36:26Z</time>
      </trkpt>
      <trkpt lat="46.62547" lon="5.55096">
        <ele>403.8</ele>
        <time>2020-06-21T11:36:31Z</time>
      </trkpt>
      <trkpt lat="46.62552" lon="5.55093">
        <ele>404.3</ele>
        <time>2020-06-21T11:36:35Z</time>
      </trkpt>
      <trkpt lat="46.62557" lon="5.55092">
        <ele>405</ele>
        <time>2020-06-21T11:36:39Z</time>
      </trkpt>
      <trkpt lat="46.62577" lon="5.55086">
        <ele>408.1</ele>
        <time>2020-06-21T11:36:55Z</time>
      </trkpt>
      <trkpt lat="46.62582" lon="5.55085">
        <ele>408.4</ele>
        <time>2020-06-21T11:36:59Z</time>
      </trkpt>
      <trkpt lat="46.62587" lon="5.55084">
        <ele>408.8</ele>
        <time>2020-06-21T11:37:04Z</time>
      </trkpt>
      <trkpt lat="46.62592" lon="5.55082">
        <ele>409</ele>
        <time>2020-06-21T11:37:10Z</time>
      </trkpt>
      <trkpt lat="46.62596" lon="5.5508">
        <ele>409</ele>
        <time>2020-06-21T11:37:14Z</time>
      </trkpt>
      <trkpt lat="46.62601" lon="5.5508">
        <ele>408.9</ele>
        <time>2020-06-21T11:37:19Z</time>
      </trkpt>
      <trkpt lat="46.62607" lon="5.55078">
        <ele>413.4</ele>
        <time>2020-06-21T11:38:46Z</time>
      </trkpt>
      <trkpt lat="46.62612" lon="5.55079">
        <ele>413.2</ele>
        <time>2020-06-21T11:38:54Z</time>
      </trkpt>
      <trkpt lat="46.62617" lon="5.55081">
        <ele>413.2</ele>
        <time>2020-06-21T11:38:59Z</time>
      </trkpt>
      <trkpt lat="46.62622" lon="5.55082">
        <ele>413.4</ele>
        <time>2020-06-21T11:39:03Z</time>
      </trkpt>
      <trkpt lat="46.62628" lon="5.55082">
        <ele>413.6</ele>
        <time>2020-06-21T11:39:07Z</time>
      </trkpt>
      <trkpt lat="46.62632" lon="5.55082">
        <ele>414</ele>
        <time>2020-06-21T11:39:11Z</time>
      </trkpt>
      <trkpt lat="46.62637" lon="5.55084">
        <ele>414.3</ele>
        <time>2020-06-21T11:39:15Z</time>
      </trkpt>
      <trkpt lat="46.62645" lon="5.55084">
        <ele>413.3</ele>
        <time>2020-06-21T11:39:29Z</time>
      </trkpt>
      <trkpt lat="46.62649" lon="5.55083">
        <ele>412.4</ele>
        <time>2020-06-21T11:39:37Z</time>
      </trkpt>
      <trkpt lat="46.62654" lon="5.55082">
        <ele>412</ele>
        <time>2020-06-21T11:39:42Z</time>
      </trkpt>
      <trkpt lat="46.62659" lon="5.5508">
        <ele>411.5</ele>
        <time>2020-06-21T11:39:47Z</time>
      </trkpt>
      <trkpt lat="46.62663" lon="5.55077">
        <ele>410.9</ele>
        <time>2020-06-21T11:39:52Z</time>
      </trkpt>
      <trkpt lat="46.62668" lon="5.55075">
        <ele>410.5</ele>
        <time>2020-06-21T11:39:56Z</time>
      </trkpt>
      <trkpt lat="46.62672" lon="5.55073">
        <ele>410.3</ele>
        <time>2020-06-21T11:40:00Z</time>
      </trkpt>
      <trkpt lat="46.62677" lon="5.5507">
        <ele>410.3</ele>
        <time>2020-06-21T11:40:04Z</time>
      </trkpt>
      <trkpt lat="46.62681" lon="5.55065">
        <ele>410.5</ele>
        <time>2020-06-21T11:40:08Z</time>
      </trkpt>
      <trkpt lat="46.62685" lon="5.55061">
        <ele>410.8</ele>
        <time>2020-06-21T11:40:14Z</time>
      </trkpt>
      <trkpt lat="46.6269" lon="5.55057">
        <ele>411.1</ele>
        <time>2020-06-21T11:40:20Z</time>
      </trkpt>
      <trkpt lat="46.62694" lon="5.55055">
        <ele>411.4</ele>
        <time>2020-06-21T11:40:26Z</time>
      </trkpt>
      <trkpt lat="46.62701" lon="5.55063">
        <ele>411.5</ele>
        <time>2020-06-21T11:41:22Z</time>
      </trkpt>
      <trkpt lat="46.62706" lon="5.55065">
        <ele>411.7</ele>
        <time>2020-06-21T11:41:25Z</time>
      </trkpt>
      <trkpt lat="46.62712" lon="5.55065">
        <ele>412.1</ele>
        <time>2020-06-21T11:41:28Z</time>
      </trkpt>
      <trkpt lat="46.62716" lon="5.55066">
        <ele>412.5</ele>
        <time>2020-06-21T11:41:31Z</time>
      </trkpt>
      <trkpt lat="46.62721" lon="5.55066">
        <ele>413</ele>
        <time>2020-06-21T11:41:35Z</time>
      </trkpt>
      <trkpt lat="46.62726" lon="5.55065">
        <ele>413.3</ele>
        <time>2020-06-21T11:41:38Z</time>
      </trkpt>
      <trkpt lat="46.62732" lon="5.55065">
        <ele>413.7</ele>
        <time>2020-06-21T11:41:42Z</time>
      </trkpt>
      <trkpt lat="46.62737" lon="5.55066">
        <ele>414.1</ele>
        <time>2020-06-21T11:41:46Z</time>
      </trkpt>
      <trkpt lat="46.62742" lon="5.55065">
        <ele>414.9</ele>
        <time>2020-06-21T11:41:53Z</time>
      </trkpt>
      <trkpt lat="46.62747" lon="5.55065">
        <ele>415.6</ele>
        <time>2020-06-21T11:41:58Z</time>
      </trkpt>
      <trkpt lat="46.62753" lon="5.55065">
        <ele>416.7</ele>
        <time>2020-06-21T11:42:08Z</time>
      </trkpt>
      <trkpt lat="46.62758" lon="5.55064">
        <ele>417.1</ele>
        <time>2020-06-21T11:42:13Z</time>
      </trkpt>
      <trkpt lat="46.62763" lon="5.55064">
        <ele>417.6</ele>
        <time>2020-06-21T11:42:18Z</time>
      </trkpt>
      <trkpt lat="46.62767" lon="5.55065">
        <ele>418.4</ele>
        <time>2020-06-21T11:42:23Z</time>
      </trkpt>
      <trkpt lat="46.62772" lon="5.55064">
        <ele>419</ele>
        <time>2020-06-21T11:42:28Z</time>
      </trkpt>
      <trkpt lat="46.62777" lon="5.55063">
        <ele>419.6</ele>
        <time>2020-06-21T11:42:34Z</time>
      </trkpt>
      <trkpt lat="46.62782" lon="5.5506">
        <ele>420.1</ele>
        <time>2020-06-21T11:42:38Z</time>
      </trkpt>
      <trkpt lat="46.62787" lon="5.55059">
        <ele>420.6</ele>
        <time>2020-06-21T11:42:42Z</time>
      </trkpt>
      <trkpt lat="46.62792" lon="5.55059">
        <ele>421.1</ele>
        <time>2020-06-21T11:42:47Z</time>
      </trkpt>
      <trkpt lat="46.62797" lon="5.55057">
        <ele>421.3</ele>
        <time>2020-06-21T11:42:52Z</time>
      </trkpt>
      <trkpt lat="46.62801" lon="5.55054">
        <ele>421.2</ele>
        <time>2020-06-21T11:42:57Z</time>
      </trkpt>
      <trkpt lat="46.62806" lon="5.55052">
        <ele>421</ele>
        <time>2020-06-21T11:43:02Z</time>
      </trkpt>
      <trkpt lat="46.62811" lon="5.55048">
        <ele>421.6</ele>
        <time>2020-06-21T11:43:12Z</time>
      </trkpt>
      <trkpt lat="46.62815" lon="5.55046">
        <ele>421.9</ele>
        <time>2020-06-21T11:43:17Z</time>
      </trkpt>
      <trkpt lat="46.6282" lon="5.55044">
        <ele>422</ele>
        <time>2020-06-21T11:43:23Z</time>
      </trkpt>
      <trkpt lat="46.62825" lon="5.55043">
        <ele>422</ele>
        <time>2020-06-21T11:43:29Z</time>
      </trkpt>
      <trkpt lat="46.62829" lon="5.55042">
        <ele>421.8</ele>
        <time>2020-06-21T11:43:35Z</time>
      </trkpt>
      <trkpt lat="46.62834" lon="5.55041">
        <ele>421.6</ele>
        <time>2020-06-21T11:43:40Z</time>
      </trkpt>
      <trkpt lat="46.62839" lon="5.55037">
        <ele>421.2</ele>
        <time>2020-06-21T11:43:47Z</time>
      </trkpt>
      <trkpt lat="46.62843" lon="5.55034">
        <ele>420.4</ele>
        <time>2020-06-21T11:43:56Z</time>
      </trkpt>
      <trkpt lat="46.62854" lon="5.55022">
        <ele>418.3</ele>
        <time>2020-06-21T11:44:12Z</time>
      </trkpt>
      <trkpt lat="46.62858" lon="5.55018">
        <ele>417.8</ele>
        <time>2020-06-21T11:44:20Z</time>
      </trkpt>
      <trkpt lat="46.62863" lon="5.55016">
        <ele>417.8</ele>
        <time>2020-06-21T11:44:27Z</time>
      </trkpt>
      <trkpt lat="46.6287" lon="5.55012">
        <ele>419.7</ele>
        <time>2020-06-21T11:45:16Z</time>
      </trkpt>
      <trkpt lat="46.62874" lon="5.55008">
        <ele>420.6</ele>
        <time>2020-06-21T11:45:22Z</time>
      </trkpt>
      <trkpt lat="46.62879" lon="5.55006">
        <ele>421.6</ele>
        <time>2020-06-21T11:45:28Z</time>
      </trkpt>
      <trkpt lat="46.62884" lon="5.55005">
        <ele>422.4</ele>
        <time>2020-06-21T11:45:33Z</time>
      </trkpt>
      <trkpt lat="46.62888" lon="5.55004">
        <ele>423</ele>
        <time>2020-06-21T11:45:38Z</time>
      </trkpt>
      <trkpt lat="46.62893" lon="5.55002">
        <ele>423.7</ele>
        <time>2020-06-21T11:45:45Z</time>
      </trkpt>
      <trkpt lat="46.62904" lon="5.54998">
        <ele>425.9</ele>
        <time>2020-06-21T11:46:00Z</time>
      </trkpt>
      <trkpt lat="46.62909" lon="5.54995">
        <ele>426.4</ele>
        <time>2020-06-21T11:46:05Z</time>
      </trkpt>
      <trkpt lat="46.62913" lon="5.54992">
        <ele>427.1</ele>
        <time>2020-06-21T11:46:11Z</time>
      </trkpt>
      <trkpt lat="46.62918" lon="5.54989">
        <ele>428.4</ele>
        <time>2020-06-21T11:46:18Z</time>
      </trkpt>
      <trkpt lat="46.62922" lon="5.54987">
        <ele>429.4</ele>
        <time>2020-06-21T11:46:23Z</time>
      </trkpt>
      <trkpt lat="46.62927" lon="5.54986">
        <ele>430.4</ele>
        <time>2020-06-21T11:46:29Z</time>
      </trkpt>
      <trkpt lat="46.62932" lon="5.54984">
        <ele>431.2</ele>
        <time>2020-06-21T11:46:34Z</time>
      </trkpt>
      <trkpt lat="46.62936" lon="5.5498">
        <ele>431.8</ele>
        <time>2020-06-21T11:46:38Z</time>
      </trkpt>
      <trkpt lat="46.62942" lon="5.54978">
        <ele>432.6</ele>
        <time>2020-06-21T11:46:43Z</time>
      </trkpt>
      <trkpt lat="46.62946" lon="5.54977">
        <ele>433</ele>
        <time>2020-06-21T11:46:47Z</time>
      </trkpt>
      <trkpt lat="46.62951" lon="5.54976">
        <ele>433.3</ele>
        <time>2020-06-21T11:46:53Z</time>
      </trkpt>
      <trkpt lat="46.62956" lon="5.54974">
        <ele>434.2</ele>
        <time>2020-06-21T11:47:02Z</time>
      </trkpt>
      <trkpt lat="46.6296" lon="5.54972">
        <ele>434.8</ele>
        <time>2020-06-21T11:47:06Z</time>
      </trkpt>
      <trkpt lat="46.62965" lon="5.54969">
        <ele>435.7</ele>
        <time>2020-06-21T11:47:11Z</time>
      </trkpt>
      <trkpt lat="46.6297" lon="5.54966">
        <ele>436.8</ele>
        <time>2020-06-21T11:47:17Z</time>
      </trkpt>
      <trkpt lat="46.62974" lon="5.54962">
        <ele>437.8</ele>
        <time>2020-06-21T11:47:22Z</time>
      </trkpt>
      <trkpt lat="46.62978" lon="5.54957">
        <ele>438.8</ele>
        <time>2020-06-21T11:47:27Z</time>
      </trkpt>
      <trkpt lat="46.6298" lon="5.5495">
        <ele>440</ele>
        <time>2020-06-21T11:47:32Z</time>
      </trkpt>
      <trkpt lat="46.62981" lon="5.54943">
        <ele>441.2</ele>
        <time>2020-06-21T11:47:37Z</time>
      </trkpt>
      <trkpt lat="46.62981" lon="5.54936">
        <ele>442.5</ele>
        <time>2020-06-21T11:47:43Z</time>
      </trkpt>
      <trkpt lat="46.62985" lon="5.54933">
        <ele>444.7</ele>
        <time>2020-06-21T11:47:57Z</time>
      </trkpt>
      <trkpt lat="46.62988" lon="5.54925">
        <ele>449.3</ele>
        <time>2020-06-21T11:49:02Z</time>
      </trkpt>
      <trkpt lat="46.62993" lon="5.54923">
        <ele>449.7</ele>
        <time>2020-06-21T11:49:07Z</time>
      </trkpt>
      <trkpt lat="46.62998" lon="5.5492">
        <ele>450.2</ele>
        <time>2020-06-21T11:49:13Z</time>
      </trkpt>
      <trkpt lat="46.63003" lon="5.54918">
        <ele>450.6</ele>
        <time>2020-06-21T11:49:18Z</time>
      </trkpt>
      <trkpt lat="46.63008" lon="5.54917">
        <ele>451</ele>
        <time>2020-06-21T11:49:22Z</time>
      </trkpt>
      <trkpt lat="46.63013" lon="5.54919">
        <ele>451.3</ele>
        <time>2020-06-21T11:49:26Z</time>
      </trkpt>
      <trkpt lat="46.63017" lon="5.54921">
        <ele>451.8</ele>
        <time>2020-06-21T11:50:08Z</time>
      </trkpt>
      <trkpt lat="46.63022" lon="5.54924">
        <ele>451.5</ele>
        <time>2020-06-21T11:50:13Z</time>
      </trkpt>
      <trkpt lat="46.63026" lon="5.54928">
        <ele>451.2</ele>
        <time>2020-06-21T11:50:16Z</time>
      </trkpt>
      <trkpt lat="46.63025" lon="5.54934">
        <ele>450.6</ele>
        <time>2020-06-21T11:50:27Z</time>
      </trkpt>
      <trkpt lat="46.63021" lon="5.54939">
        <ele>450.5</ele>
        <time>2020-06-21T11:50:31Z</time>
      </trkpt>
      <trkpt lat="46.6302" lon="5.54945">
        <ele>450.1</ele>
        <time>2020-06-21T11:50:37Z</time>
      </trkpt>
      <trkpt lat="46.63029" lon="5.54949">
        <ele>446.8</ele>
        <time>2020-06-21T11:51:42Z</time>
      </trkpt>
      <trkpt lat="46.63034" lon="5.5495">
        <ele>445.8</ele>
        <time>2020-06-21T11:52:11Z</time>
      </trkpt>
      <trkpt lat="46.63039" lon="5.54951">
        <ele>445.8</ele>
        <time>2020-06-21T11:52:14Z</time>
      </trkpt>
      <trkpt lat="46.63043" lon="5.5495">
        <ele>445.9</ele>
        <time>2020-06-21T11:52:18Z</time>
      </trkpt>
      <trkpt lat="46.63049" lon="5.54949">
        <ele>445.9</ele>
        <time>2020-06-21T11:52:23Z</time>
      </trkpt>
      <trkpt lat="46.63053" lon="5.54948">
        <ele>446</ele>
        <time>2020-06-21T11:52:28Z</time>
      </trkpt>
      <trkpt lat="46.63058" lon="5.54946">
        <ele>445.9</ele>
        <time>2020-06-21T11:52:33Z</time>
      </trkpt>
      <trkpt lat="46.63063" lon="5.54947">
        <ele>445.9</ele>
        <time>2020-06-21T11:52:38Z</time>
      </trkpt>
      <trkpt lat="46.63068" lon="5.54945">
        <ele>445.8</ele>
        <time>2020-06-21T11:52:43Z</time>
      </trkpt>
      <trkpt lat="46.63072" lon="5.54945">
        <ele>445.3</ele>
        <time>2020-06-21T11:52:47Z</time>
      </trkpt>
      <trkpt lat="46.63085" lon="5.54944">
        <ele>443.8</ele>
        <time>2020-06-21T11:53:01Z</time>
      </trkpt>
      <trkpt lat="46.63089" lon="5.54941">
        <ele>443.2</ele>
        <time>2020-06-21T11:53:07Z</time>
      </trkpt>
      <trkpt lat="46.63093" lon="5.54942">
        <ele>442.5</ele>
        <time>2020-06-21T11:53:12Z</time>
      </trkpt>
      <trkpt lat="46.63104" lon="5.54947">
        <ele>440.5</ele>
        <time>2020-06-21T11:53:21Z</time>
      </trkpt>
      <trkpt lat="46.63107" lon="5.54952">
        <ele>439.9</ele>
        <time>2020-06-21T11:53:28Z</time>
      </trkpt>
      <trkpt lat="46.6312" lon="5.54965">
        <ele>438.5</ele>
        <time>2020-06-21T11:53:50Z</time>
      </trkpt>
      <trkpt lat="46.63125" lon="5.54967">
        <ele>438.8</ele>
        <time>2020-06-21T11:54:01Z</time>
      </trkpt>
      <trkpt lat="46.63129" lon="5.54967">
        <ele>439</ele>
        <time>2020-06-21T11:54:09Z</time>
      </trkpt>
      <trkpt lat="46.63134" lon="5.54968">
        <ele>439.3</ele>
        <time>2020-06-21T11:54:16Z</time>
      </trkpt>
      <trkpt lat="46.63139" lon="5.54971">
        <ele>439.3</ele>
        <time>2020-06-21T11:54:22Z</time>
      </trkpt>
      <trkpt lat="46.63143" lon="5.54974">
        <ele>438.6</ele>
        <time>2020-06-21T11:54:29Z</time>
      </trkpt>
      <trkpt lat="46.63148" lon="5.54974">
        <ele>437.1</ele>
        <time>2020-06-21T11:54:55Z</time>
      </trkpt>
      <trkpt lat="46.63154" lon="5.54974">
        <ele>437.4</ele>
        <time>2020-06-21T11:55:00Z</time>
      </trkpt>
      <trkpt lat="46.63159" lon="5.54975">
        <ele>437.6</ele>
        <time>2020-06-21T11:55:03Z</time>
      </trkpt>
      <trkpt lat="46.63164" lon="5.54977">
        <ele>437.7</ele>
        <time>2020-06-21T11:55:05Z</time>
      </trkpt>
      <trkpt lat="46.63168" lon="5.54978">
        <ele>437.9</ele>
        <time>2020-06-21T11:55:11Z</time>
      </trkpt>
      <trkpt lat="46.63168" lon="5.54985">
        <ele>438.3</ele>
        <time>2020-06-21T11:55:22Z</time>
      </trkpt>
      <trkpt lat="46.63168" lon="5.54992">
        <ele>438.7</ele>
        <time>2020-06-21T11:55:29Z</time>
      </trkpt>
      <trkpt lat="46.63169" lon="5.54998">
        <ele>438.6</ele>
        <time>2020-06-21T11:55:38Z</time>
      </trkpt>
      <trkpt lat="46.63168" lon="5.55006">
        <ele>438.6</ele>
        <time>2020-06-21T11:55:49Z</time>
      </trkpt>
      <trkpt lat="46.63165" lon="5.5501">
        <ele>439.6</ele>
        <time>2020-06-21T11:56:08Z</time>
      </trkpt>
      <trkpt lat="46.63164" lon="5.55018">
        <ele>440.2</ele>
        <time>2020-06-21T11:56:12Z</time>
      </trkpt>
      <trkpt lat="46.63163" lon="5.55025">
        <ele>440.5</ele>
        <time>2020-06-21T11:56:15Z</time>
      </trkpt>
      <trkpt lat="46.63156" lon="5.55035">
        <ele>441.4</ele>
        <time>2020-06-21T11:56:25Z</time>
      </trkpt>
      <trkpt lat="46.63154" lon="5.55041">
        <ele>441.4</ele>
        <time>2020-06-21T11:56:33Z</time>
      </trkpt>
      <trkpt lat="46.63152" lon="5.55047">
        <ele>441.7</ele>
        <time>2020-06-21T11:56:37Z</time>
      </trkpt>
      <trkpt lat="46.63149" lon="5.55055">
        <ele>442.5</ele>
        <time>2020-06-21T11:56:47Z</time>
      </trkpt>
      <trkpt lat="46.63148" lon="5.55062">
        <ele>442.7</ele>
        <time>2020-06-21T11:56:50Z</time>
      </trkpt>
      <trkpt lat="46.63149" lon="5.55068">
        <ele>442.8</ele>
        <time>2020-06-21T11:56:52Z</time>
      </trkpt>
      <trkpt lat="46.6315" lon="5.55075">
        <ele>443.1</ele>
        <time>2020-06-21T11:56:55Z</time>
      </trkpt>
      <trkpt lat="46.63151" lon="5.55082">
        <ele>443.6</ele>
        <time>2020-06-21T11:56:59Z</time>
      </trkpt>
      <trkpt lat="46.6315" lon="5.55089">
        <ele>444.3</ele>
        <time>2020-06-21T11:57:06Z</time>
      </trkpt>
      <trkpt lat="46.63149" lon="5.55095">
        <ele>444.8</ele>
        <time>2020-06-21T11:57:14Z</time>
      </trkpt>
      <trkpt lat="46.63147" lon="5.55102">
        <ele>445.5</ele>
        <time>2020-06-21T11:57:21Z</time>
      </trkpt>
      <trkpt lat="46.63145" lon="5.55108">
        <ele>446.4</ele>
        <time>2020-06-21T11:57:30Z</time>
      </trkpt>
      <trkpt lat="46.63143" lon="5.55114">
        <ele>446.6</ele>
        <time>2020-06-21T11:57:37Z</time>
      </trkpt>
      <trkpt lat="46.6314" lon="5.55121">
        <ele>446.5</ele>
        <time>2020-06-21T11:57:46Z</time>
      </trkpt>
      <trkpt lat="46.63139" lon="5.55127">
        <ele>445.8</ele>
        <time>2020-06-21T11:57:55Z</time>
      </trkpt>
      <trkpt lat="46.6314" lon="5.55134">
        <ele>444.4</ele>
        <time>2020-06-21T11:58:02Z</time>
      </trkpt>
      <trkpt lat="46.63141" lon="5.55142">
        <ele>443.3</ele>
        <time>2020-06-21T11:58:06Z</time>
      </trkpt>
      <trkpt lat="46.63142" lon="5.55149">
        <ele>442</ele>
        <time>2020-06-21T11:58:10Z</time>
      </trkpt>
      <trkpt lat="46.63142" lon="5.55156">
        <ele>440.7</ele>
        <time>2020-06-21T11:58:14Z</time>
      </trkpt>
      <trkpt lat="46.63142" lon="5.55163">
        <ele>439.9</ele>
        <time>2020-06-21T11:58:17Z</time>
      </trkpt>
      <trkpt lat="46.6314" lon="5.5517">
        <ele>439.1</ele>
        <time>2020-06-21T11:58:21Z</time>
      </trkpt>
      <trkpt lat="46.63138" lon="5.55176">
        <ele>438.6</ele>
        <time>2020-06-21T11:58:27Z</time>
      </trkpt>
      <trkpt lat="46.63134" lon="5.55182">
        <ele>438.4</ele>
        <time>2020-06-21T11:58:34Z</time>
      </trkpt>
      <trkpt lat="46.63135" lon="5.55189">
        <ele>438.2</ele>
        <time>2020-06-21T11:58:42Z</time>
      </trkpt>
      <trkpt lat="46.63134" lon="5.55184">
        <ele>437.7</ele>
        <time>2020-06-21T11:58:56Z</time>
      </trkpt>
      <trkpt lat="46.63136" lon="5.55176">
        <ele>437.6</ele>
        <time>2020-06-21T11:58:59Z</time>
      </trkpt>
      <trkpt lat="46.63137" lon="5.55169">
        <ele>437.4</ele>
        <time>2020-06-21T11:59:04Z</time>
      </trkpt>
      <trkpt lat="46.63141" lon="5.55171">
        <ele>436.4</ele>
        <time>2020-06-21T11:59:11Z</time>
      </trkpt>
      <trkpt lat="46.63145" lon="5.55174">
        <ele>435.5</ele>
        <time>2020-06-21T11:59:14Z</time>
      </trkpt>
      <trkpt lat="46.63148" lon="5.55182">
        <ele>435</ele>
        <time>2020-06-21T11:59:16Z</time>
      </trkpt>
      <trkpt lat="46.6315" lon="5.55188">
        <ele>434.2</ele>
        <time>2020-06-21T11:59:20Z</time>
      </trkpt>
      <trkpt lat="46.63156" lon="5.55199">
        <ele>433.6</ele>
        <time>2020-06-21T11:59:31Z</time>
      </trkpt>
      <trkpt lat="46.6316" lon="5.55207">
        <ele>433.6</ele>
        <time>2020-06-21T11:59:34Z</time>
      </trkpt>
      <trkpt lat="46.63162" lon="5.55213">
        <ele>433.6</ele>
        <time>2020-06-21T11:59:38Z</time>
      </trkpt>
      <trkpt lat="46.63164" lon="5.55219">
        <ele>433.7</ele>
        <time>2020-06-21T11:59:42Z</time>
      </trkpt>
      <trkpt lat="46.63166" lon="5.55227">
        <ele>433.8</ele>
        <time>2020-06-21T11:59:45Z</time>
      </trkpt>
      <trkpt lat="46.63168" lon="5.55233">
        <ele>434</ele>
        <time>2020-06-21T11:59:50Z</time>
      </trkpt>
      <trkpt lat="46.63171" lon="5.55239">
        <ele>433.7</ele>
        <time>2020-06-21T11:59:57Z</time>
      </trkpt>
      <trkpt lat="46.63178" lon="5.55245">
        <ele>431.6</ele>
        <time>2020-06-21T12:00:07Z</time>
      </trkpt>
      <trkpt lat="46.63182" lon="5.55247">
        <ele>429.8</ele>
        <time>2020-06-21T12:00:15Z</time>
      </trkpt>
      <trkpt lat="46.63186" lon="5.55251">
        <ele>428.8</ele>
        <time>2020-06-21T12:00:19Z</time>
      </trkpt>
      <trkpt lat="46.6319" lon="5.55255">
        <ele>427.2</ele>
        <time>2020-06-21T12:00:25Z</time>
      </trkpt>
      <trkpt lat="46.63194" lon="5.55259">
        <ele>426.3</ele>
        <time>2020-06-21T12:00:28Z</time>
      </trkpt>
      <trkpt lat="46.63198" lon="5.55266">
        <ele>425.3</ele>
        <time>2020-06-21T12:00:33Z</time>
      </trkpt>
      <trkpt lat="46.63201" lon="5.55271">
        <ele>425.1</ele>
        <time>2020-06-21T12:00:39Z</time>
      </trkpt>
      <trkpt lat="46.63206" lon="5.55273">
        <ele>425.4</ele>
        <time>2020-06-21T12:00:47Z</time>
      </trkpt>
      <trkpt lat="46.63207" lon="5.5528">
        <ele>426.1</ele>
        <time>2020-06-21T12:00:55Z</time>
      </trkpt>
      <trkpt lat="46.63206" lon="5.55286">
        <ele>427.4</ele>
        <time>2020-06-21T12:01:02Z</time>
      </trkpt>
      <trkpt lat="46.63207" lon="5.55293">
        <ele>428.3</ele>
        <time>2020-06-21T12:01:08Z</time>
      </trkpt>
      <trkpt lat="46.6321" lon="5.55299">
        <ele>428.6</ele>
        <time>2020-06-21T12:01:14Z</time>
      </trkpt>
      <trkpt lat="46.63215" lon="5.55301">
        <ele>428.5</ele>
        <time>2020-06-21T12:01:21Z</time>
      </trkpt>
      <trkpt lat="46.63219" lon="5.55302">
        <ele>427.9</ele>
        <time>2020-06-21T12:01:32Z</time>
      </trkpt>
      <trkpt lat="46.63221" lon="5.55308">
        <ele>426.8</ele>
        <time>2020-06-21T12:01:40Z</time>
      </trkpt>
      <trkpt lat="46.63223" lon="5.55315">
        <ele>426.2</ele>
        <time>2020-06-21T12:01:44Z</time>
      </trkpt>
      <trkpt lat="46.63226" lon="5.55321">
        <ele>422.9</ele>
        <time>2020-06-21T12:02:07Z</time>
      </trkpt>
      <trkpt lat="46.6323" lon="5.55322">
        <ele>421.8</ele>
        <time>2020-06-21T12:02:13Z</time>
      </trkpt>
      <trkpt lat="46.63235" lon="5.55324">
        <ele>421</ele>
        <time>2020-06-21T12:02:17Z</time>
      </trkpt>
      <trkpt lat="46.63239" lon="5.55329">
        <ele>419.8</ele>
        <time>2020-06-21T12:02:22Z</time>
      </trkpt>
      <trkpt lat="46.63242" lon="5.55334">
        <ele>418.3</ele>
        <time>2020-06-21T12:02:28Z</time>
      </trkpt>
      <trkpt lat="46.63246" lon="5.55338">
        <ele>416.3</ele>
        <time>2020-06-21T12:02:46Z</time>
      </trkpt>
      <trkpt lat="46.63251" lon="5.55339">
        <ele>416.3</ele>
        <time>2020-06-21T12:03:04Z</time>
      </trkpt>
      <trkpt lat="46.63255" lon="5.55344">
        <ele>416.3</ele>
        <time>2020-06-21T12:03:08Z</time>
      </trkpt>
      <trkpt lat="46.63259" lon="5.55348">
        <ele>416.4</ele>
        <time>2020-06-21T12:03:12Z</time>
      </trkpt>
      <trkpt lat="46.63262" lon="5.55353">
        <ele>416.5</ele>
        <time>2020-06-21T12:03:18Z</time>
      </trkpt>
      <trkpt lat="46.63264" lon="5.55359">
        <ele>416.5</ele>
        <time>2020-06-21T12:03:24Z</time>
      </trkpt>
      <trkpt lat="46.63266" lon="5.55365">
        <ele>416.3</ele>
        <time>2020-06-21T12:03:30Z</time>
      </trkpt>
      <trkpt lat="46.63268" lon="5.55371">
        <ele>416.3</ele>
        <time>2020-06-21T12:03:36Z</time>
      </trkpt>
      <trkpt lat="46.6327" lon="5.55379">
        <ele>416.3</ele>
        <time>2020-06-21T12:03:42Z</time>
      </trkpt>
      <trkpt lat="46.6327" lon="5.55386">
        <ele>416.4</ele>
        <time>2020-06-21T12:03:48Z</time>
      </trkpt>
      <trkpt lat="46.63273" lon="5.55393">
        <ele>416.6</ele>
        <time>2020-06-21T12:03:56Z</time>
      </trkpt>
      <trkpt lat="46.6328" lon="5.55406">
        <ele>417.3</ele>
        <time>2020-06-21T12:04:05Z</time>
      </trkpt>
      <trkpt lat="46.63282" lon="5.55412">
        <ele>417.6</ele>
        <time>2020-06-21T12:04:08Z</time>
      </trkpt>
      <trkpt lat="46.63286" lon="5.5542">
        <ele>418.1</ele>
        <time>2020-06-21T12:04:12Z</time>
      </trkpt>
      <trkpt lat="46.63289" lon="5.55427">
        <ele>418.6</ele>
        <time>2020-06-21T12:04:15Z</time>
      </trkpt>
      <trkpt lat="46.63291" lon="5.55433">
        <ele>419.1</ele>
        <time>2020-06-21T12:04:19Z</time>
      </trkpt>
      <trkpt lat="46.63293" lon="5.5544">
        <ele>419.9</ele>
        <time>2020-06-21T12:04:24Z</time>
      </trkpt>
      <trkpt lat="46.63295" lon="5.55447">
        <ele>420.4</ele>
        <time>2020-06-21T12:04:28Z</time>
      </trkpt>
      <trkpt lat="46.63298" lon="5.55453">
        <ele>421.1</ele>
        <time>2020-06-21T12:04:33Z</time>
      </trkpt>
      <trkpt lat="46.633" lon="5.5546">
        <ele>422.1</ele>
        <time>2020-06-21T12:04:39Z</time>
      </trkpt>
      <trkpt lat="46.63301" lon="5.55467">
        <ele>423.3</ele>
        <time>2020-06-21T12:04:45Z</time>
      </trkpt>
      <trkpt lat="46.633" lon="5.55474">
        <ele>424.3</ele>
        <time>2020-06-21T12:04:50Z</time>
      </trkpt>
      <trkpt lat="46.633" lon="5.55481">
        <ele>425.5</ele>
        <time>2020-06-21T12:04:56Z</time>
      </trkpt>
      <trkpt lat="46.633" lon="5.55487">
        <ele>428.3</ele>
        <time>2020-06-21T12:05:16Z</time>
      </trkpt>
      <trkpt lat="46.63303" lon="5.55492">
        <ele>428.5</ele>
        <time>2020-06-21T12:05:23Z</time>
      </trkpt>
      <trkpt lat="46.63304" lon="5.55499">
        <ele>428.5</ele>
        <time>2020-06-21T12:05:29Z</time>
      </trkpt>
      <trkpt lat="46.63305" lon="5.55506">
        <ele>428</ele>
        <time>2020-06-21T12:05:36Z</time>
      </trkpt>
      <trkpt lat="46.63305" lon="5.55513">
        <ele>427.5</ele>
        <time>2020-06-21T12:05:41Z</time>
      </trkpt>
      <trkpt lat="46.63306" lon="5.55519">
        <ele>427</ele>
        <time>2020-06-21T12:05:47Z</time>
      </trkpt>
      <trkpt lat="46.63307" lon="5.55526">
        <ele>426.7</ele>
        <time>2020-06-21T12:05:55Z</time>
      </trkpt>
      <trkpt lat="46.63304" lon="5.5554">
        <ele>425.7</ele>
        <time>2020-06-21T12:06:13Z</time>
      </trkpt>
      <trkpt lat="46.63299" lon="5.55544">
        <ele>425.5</ele>
        <time>2020-06-21T12:06:18Z</time>
      </trkpt>
      <trkpt lat="46.633" lon="5.5555">
        <ele>425.5</ele>
        <time>2020-06-21T12:06:29Z</time>
      </trkpt>
      <trkpt lat="46.63303" lon="5.55557">
        <ele>425.6</ele>
        <time>2020-06-21T12:06:34Z</time>
      </trkpt>
      <trkpt lat="46.63307" lon="5.55562">
        <ele>425.7</ele>
        <time>2020-06-21T12:06:37Z</time>
      </trkpt>
      <trkpt lat="46.6331" lon="5.55567">
        <ele>426</ele>
        <time>2020-06-21T12:06:40Z</time>
      </trkpt>
      <trkpt lat="46.63315" lon="5.55571">
        <ele>426.5</ele>
        <time>2020-06-21T12:06:45Z</time>
      </trkpt>
      <trkpt lat="46.63319" lon="5.55576">
        <ele>427</ele>
        <time>2020-06-21T12:06:50Z</time>
      </trkpt>
      <trkpt lat="46.63321" lon="5.55583">
        <ele>427.4</ele>
        <time>2020-06-21T12:06:55Z</time>
      </trkpt>
      <trkpt lat="46.63323" lon="5.5559">
        <ele>427.6</ele>
        <time>2020-06-21T12:06:59Z</time>
      </trkpt>
      <trkpt lat="46.63326" lon="5.55597">
        <ele>427.8</ele>
        <time>2020-06-21T12:07:04Z</time>
      </trkpt>
      <trkpt lat="46.63328" lon="5.55604">
        <ele>427.8</ele>
        <time>2020-06-21T12:07:07Z</time>
      </trkpt>
      <trkpt lat="46.63332" lon="5.5561">
        <ele>427.6</ele>
        <time>2020-06-21T12:07:11Z</time>
      </trkpt>
      <trkpt lat="46.63334" lon="5.55616">
        <ele>427.3</ele>
        <time>2020-06-21T12:07:16Z</time>
      </trkpt>
      <trkpt lat="46.63336" lon="5.55623">
        <ele>426.8</ele>
        <time>2020-06-21T12:07:21Z</time>
      </trkpt>
      <trkpt lat="46.63338" lon="5.5563">
        <ele>426.2</ele>
        <time>2020-06-21T12:07:26Z</time>
      </trkpt>
      <trkpt lat="46.6334" lon="5.55636">
        <ele>425.7</ele>
        <time>2020-06-21T12:07:30Z</time>
      </trkpt>
      <trkpt lat="46.63342" lon="5.55643">
        <ele>425.2</ele>
        <time>2020-06-21T12:07:35Z</time>
      </trkpt>
      <trkpt lat="46.63344" lon="5.55649">
        <ele>424.9</ele>
        <time>2020-06-21T12:07:39Z</time>
      </trkpt>
      <trkpt lat="46.63347" lon="5.55656">
        <ele>424.5</ele>
        <time>2020-06-21T12:07:43Z</time>
      </trkpt>
      <trkpt lat="46.6335" lon="5.5566">
        <ele>424.1</ele>
        <time>2020-06-21T12:07:48Z</time>
      </trkpt>
      <trkpt lat="46.63353" lon="5.55665">
        <ele>423.7</ele>
        <time>2020-06-21T12:07:56Z</time>
      </trkpt>
      <trkpt lat="46.63353" lon="5.55673">
        <ele>423.2</ele>
        <time>2020-06-21T12:08:01Z</time>
      </trkpt>
      <trkpt lat="46.63352" lon="5.55679">
        <ele>422.8</ele>
        <time>2020-06-21T12:08:05Z</time>
      </trkpt>
      <trkpt lat="46.63352" lon="5.55687">
        <ele>422.2</ele>
        <time>2020-06-21T12:08:11Z</time>
      </trkpt>
      <trkpt lat="46.63352" lon="5.55694">
        <ele>421.9</ele>
        <time>2020-06-21T12:08:15Z</time>
      </trkpt>
      <trkpt lat="46.63353" lon="5.55701">
        <ele>421.4</ele>
        <time>2020-06-21T12:08:20Z</time>
      </trkpt>
      <trkpt lat="46.63353" lon="5.55708">
        <ele>421.1</ele>
        <time>2020-06-21T12:08:26Z</time>
      </trkpt>
      <trkpt lat="46.63354" lon="5.55715">
        <ele>421</ele>
        <time>2020-06-21T12:08:31Z</time>
      </trkpt>
      <trkpt lat="46.63354" lon="5.55722">
        <ele>420.8</ele>
        <time>2020-06-21T12:08:38Z</time>
      </trkpt>
      <trkpt lat="46.6335" lon="5.55719">
        <ele>420.2</ele>
        <time>2020-06-21T12:09:03Z</time>
      </trkpt>
      <trkpt lat="46.63345" lon="5.55718">
        <ele>420.7</ele>
        <time>2020-06-21T12:09:12Z</time>
      </trkpt>
      <trkpt lat="46.6335" lon="5.55719">
        <ele>421.8</ele>
        <time>2020-06-21T12:09:33Z</time>
      </trkpt>
      <trkpt lat="46.6335" lon="5.55712">
        <ele>423.2</ele>
        <time>2020-06-21T12:09:44Z</time>
      </trkpt>
      <trkpt lat="46.63347" lon="5.55705">
        <ele>423.9</ele>
        <time>2020-06-21T12:09:47Z</time>
      </trkpt>
      <trkpt lat="46.63344" lon="5.557">
        <ele>424.7</ele>
        <time>2020-06-21T12:09:50Z</time>
      </trkpt>
      <trkpt lat="46.63342" lon="5.55693">
        <ele>425.5</ele>
        <time>2020-06-21T12:09:53Z</time>
      </trkpt>
      <trkpt lat="46.6334" lon="5.55687">
        <ele>426.4</ele>
        <time>2020-06-21T12:09:56Z</time>
      </trkpt>
      <trkpt lat="46.6334" lon="5.5568">
        <ele>428.3</ele>
        <time>2020-06-21T12:10:03Z</time>
      </trkpt>
      <trkpt lat="46.63341" lon="5.55673">
        <ele>429.3</ele>
        <time>2020-06-21T12:10:08Z</time>
      </trkpt>
      <trkpt lat="46.63341" lon="5.55667">
        <ele>430.7</ele>
        <time>2020-06-21T12:10:17Z</time>
      </trkpt>
      <trkpt lat="46.63343" lon="5.5566">
        <ele>431.1</ele>
        <time>2020-06-21T12:10:25Z</time>
      </trkpt>
      <trkpt lat="46.63347" lon="5.55654">
        <ele>431.3</ele>
        <time>2020-06-21T12:10:35Z</time>
      </trkpt>
      <trkpt lat="46.63349" lon="5.55648">
        <ele>430.5</ele>
        <time>2020-06-21T12:10:44Z</time>
      </trkpt>
      <trkpt lat="46.63354" lon="5.55642">
        <ele>428.4</ele>
        <time>2020-06-21T12:10:51Z</time>
      </trkpt>
      <trkpt lat="46.63359" lon="5.55638">
        <ele>427</ele>
        <time>2020-06-21T12:10:55Z</time>
      </trkpt>
      <trkpt lat="46.63363" lon="5.55636">
        <ele>425.6</ele>
        <time>2020-06-21T12:10:59Z</time>
      </trkpt>
      <trkpt lat="46.63369" lon="5.55637">
        <ele>424.1</ele>
        <time>2020-06-21T12:11:04Z</time>
      </trkpt>
      <trkpt lat="46.63374" lon="5.55637">
        <ele>423</ele>
        <time>2020-06-21T12:11:08Z</time>
      </trkpt>
      <trkpt lat="46.63379" lon="5.55638">
        <ele>421.3</ele>
        <time>2020-06-21T12:11:14Z</time>
      </trkpt>
      <trkpt lat="46.63384" lon="5.5564">
        <ele>420.1</ele>
        <time>2020-06-21T12:11:18Z</time>
      </trkpt>
      <trkpt lat="46.63387" lon="5.55645">
        <ele>416.5</ele>
        <time>2020-06-21T12:11:32Z</time>
      </trkpt>
      <trkpt lat="46.6339" lon="5.55651">
        <ele>414.5</ele>
        <time>2020-06-21T12:11:42Z</time>
      </trkpt>
      <trkpt lat="46.63395" lon="5.55656">
        <ele>413.2</ele>
        <time>2020-06-21T12:11:49Z</time>
      </trkpt>
      <trkpt lat="46.63398" lon="5.5566">
        <ele>412.1</ele>
        <time>2020-06-21T12:11:54Z</time>
      </trkpt>
      <trkpt lat="46.63403" lon="5.55659">
        <ele>409.8</ele>
        <time>2020-06-21T12:12:02Z</time>
      </trkpt>
      <trkpt lat="46.63408" lon="5.5566">
        <ele>406.5</ele>
        <time>2020-06-21T12:12:13Z</time>
      </trkpt>
      <trkpt lat="46.63413" lon="5.55663">
        <ele>404.4</ele>
        <time>2020-06-21T12:12:20Z</time>
      </trkpt>
      <trkpt lat="46.63418" lon="5.55666">
        <ele>402.4</ele>
        <time>2020-06-21T12:12:27Z</time>
      </trkpt>
      <trkpt lat="46.63423" lon="5.55665">
        <ele>401.1</ele>
        <time>2020-06-21T12:12:39Z</time>
      </trkpt>
      <trkpt lat="46.63428" lon="5.55669">
        <ele>401</ele>
        <time>2020-06-21T12:12:44Z</time>
      </trkpt>
      <trkpt lat="46.63433" lon="5.55672">
        <ele>400.8</ele>
        <time>2020-06-21T12:12:48Z</time>
      </trkpt>
      <trkpt lat="46.63438" lon="5.55675">
        <ele>400.5</ele>
        <time>2020-06-21T12:12:54Z</time>
      </trkpt>
      <trkpt lat="46.63443" lon="5.55678">
        <ele>400.4</ele>
        <time>2020-06-21T12:13:01Z</time>
      </trkpt>
      <trkpt lat="46.63448" lon="5.55681">
        <ele>400.2</ele>
        <time>2020-06-21T12:13:05Z</time>
      </trkpt>
      <trkpt lat="46.63453" lon="5.55685">
        <ele>400</ele>
        <time>2020-06-21T12:13:09Z</time>
      </trkpt>
      <trkpt lat="46.63458" lon="5.55688">
        <ele>399.9</ele>
        <time>2020-06-21T12:13:13Z</time>
      </trkpt>
      <trkpt lat="46.63462" lon="5.55692">
        <ele>399.6</ele>
        <time>2020-06-21T12:13:18Z</time>
      </trkpt>
      <trkpt lat="46.63465" lon="5.55696">
        <ele>399.2</ele>
        <time>2020-06-21T12:13:25Z</time>
      </trkpt>
      <trkpt lat="46.63468" lon="5.55702">
        <ele>398.7</ele>
        <time>2020-06-21T12:13:31Z</time>
      </trkpt>
      <trkpt lat="46.63471" lon="5.55708">
        <ele>398.3</ele>
        <time>2020-06-21T12:13:36Z</time>
      </trkpt>
      <trkpt lat="46.63475" lon="5.55713">
        <ele>398</ele>
        <time>2020-06-21T12:13:40Z</time>
      </trkpt>
      <trkpt lat="46.6348" lon="5.55717">
        <ele>397.4</ele>
        <time>2020-06-21T12:13:46Z</time>
      </trkpt>
      <trkpt lat="46.63484" lon="5.55721">
        <ele>396.9</ele>
        <time>2020-06-21T12:13:51Z</time>
      </trkpt>
      <trkpt lat="46.63489" lon="5.55723">
        <ele>396</ele>
        <time>2020-06-21T12:13:56Z</time>
      </trkpt>
      <trkpt lat="46.63493" lon="5.55727">
        <ele>394.9</ele>
        <time>2020-06-21T12:14:01Z</time>
      </trkpt>
      <trkpt lat="46.63498" lon="5.5573">
        <ele>393.7</ele>
        <time>2020-06-21T12:14:07Z</time>
      </trkpt>
      <trkpt lat="46.63501" lon="5.55735">
        <ele>392.8</ele>
        <time>2020-06-21T12:14:13Z</time>
      </trkpt>
      <trkpt lat="46.63505" lon="5.55741">
        <ele>391.9</ele>
        <time>2020-06-21T12:14:18Z</time>
      </trkpt>
      <trkpt lat="46.63508" lon="5.55747">
        <ele>391.2</ele>
        <time>2020-06-21T12:14:23Z</time>
      </trkpt>
      <trkpt lat="46.63512" lon="5.55752">
        <ele>390.3</ele>
        <time>2020-06-21T12:14:29Z</time>
      </trkpt>
      <trkpt lat="46.63517" lon="5.55757">
        <ele>389.5</ele>
        <time>2020-06-21T12:14:34Z</time>
      </trkpt>
      <trkpt lat="46.63521" lon="5.55761">
        <ele>387.9</ele>
        <time>2020-06-21T12:14:42Z</time>
      </trkpt>
      <trkpt lat="46.63524" lon="5.55766">
        <ele>386.6</ele>
        <time>2020-06-21T12:14:48Z</time>
      </trkpt>
      <trkpt lat="46.63528" lon="5.5577">
        <ele>385.3</ele>
        <time>2020-06-21T12:14:53Z</time>
      </trkpt>
      <trkpt lat="46.63533" lon="5.55773">
        <ele>384.3</ele>
        <time>2020-06-21T12:14:57Z</time>
      </trkpt>
      <trkpt lat="46.63538" lon="5.55774">
        <ele>383.4</ele>
        <time>2020-06-21T12:15:01Z</time>
      </trkpt>
      <trkpt lat="46.63542" lon="5.55777">
        <ele>382.6</ele>
        <time>2020-06-21T12:15:05Z</time>
      </trkpt>
      <trkpt lat="46.63547" lon="5.55782">
        <ele>381.8</ele>
        <time>2020-06-21T12:15:10Z</time>
      </trkpt>
      <trkpt lat="46.6355" lon="5.55786">
        <ele>381.3</ele>
        <time>2020-06-21T12:15:14Z</time>
      </trkpt>
      <trkpt lat="46.63555" lon="5.55789">
        <ele>380.6</ele>
        <time>2020-06-21T12:15:20Z</time>
      </trkpt>
      <trkpt lat="46.6356" lon="5.55791">
        <ele>379.1</ele>
        <time>2020-06-21T12:15:27Z</time>
      </trkpt>
      <trkpt lat="46.63564" lon="5.55793">
        <ele>377.3</ele>
        <time>2020-06-21T12:15:34Z</time>
      </trkpt>
      <trkpt lat="46.63569" lon="5.55798">
        <ele>375.6</ele>
        <time>2020-06-21T12:15:40Z</time>
      </trkpt>
      <trkpt lat="46.63572" lon="5.55803">
        <ele>374.4</ele>
        <time>2020-06-21T12:15:45Z</time>
      </trkpt>
      <trkpt lat="46.63575" lon="5.55808">
        <ele>373.4</ele>
        <time>2020-06-21T12:15:50Z</time>
      </trkpt>
      <trkpt lat="46.63579" lon="5.55812">
        <ele>371.8</ele>
        <time>2020-06-21T12:16:00Z</time>
      </trkpt>
      <trkpt lat="46.63582" lon="5.55817">
        <ele>370.2</ele>
        <time>2020-06-21T12:16:10Z</time>
      </trkpt>
      <trkpt lat="46.63584" lon="5.55823">
        <ele>369.3</ele>
        <time>2020-06-21T12:16:15Z</time>
      </trkpt>
      <trkpt lat="46.63588" lon="5.55827">
        <ele>368.4</ele>
        <time>2020-06-21T12:16:22Z</time>
      </trkpt>
      <trkpt lat="46.63592" lon="5.5583">
        <ele>368.2</ele>
        <time>2020-06-21T12:16:27Z</time>
      </trkpt>
      <trkpt lat="46.63596" lon="5.55834">
        <ele>368.1</ele>
        <time>2020-06-21T12:16:32Z</time>
      </trkpt>
      <trkpt lat="46.636" lon="5.55838">
        <ele>367.9</ele>
        <time>2020-06-21T12:16:37Z</time>
      </trkpt>
      <trkpt lat="46.63604" lon="5.55841">
        <ele>367.7</ele>
        <time>2020-06-21T12:16:42Z</time>
      </trkpt>
      <trkpt lat="46.6361" lon="5.55847">
        <ele>367.5</ele>
        <time>2020-06-21T12:16:53Z</time>
      </trkpt>
      <trkpt lat="46.63615" lon="5.55851">
        <ele>366.9</ele>
        <time>2020-06-21T12:16:59Z</time>
      </trkpt>
      <trkpt lat="46.63619" lon="5.55854">
        <ele>366</ele>
        <time>2020-06-21T12:17:04Z</time>
      </trkpt>
      <trkpt lat="46.63624" lon="5.55858">
        <ele>364.8</ele>
        <time>2020-06-21T12:17:09Z</time>
      </trkpt>
      <trkpt lat="46.63628" lon="5.55861">
        <ele>363.1</ele>
        <time>2020-06-21T12:17:16Z</time>
      </trkpt>
      <trkpt lat="46.63632" lon="5.55865">
        <ele>362.1</ele>
        <time>2020-06-21T12:17:21Z</time>
      </trkpt>
      <trkpt lat="46.63636" lon="5.55869">
        <ele>361.4</ele>
        <time>2020-06-21T12:17:26Z</time>
      </trkpt>
      <trkpt lat="46.6364" lon="5.55873">
        <ele>360.7</ele>
        <time>2020-06-21T12:17:32Z</time>
      </trkpt>
      <trkpt lat="46.63644" lon="5.55878">
        <ele>360.3</ele>
        <time>2020-06-21T12:17:36Z</time>
      </trkpt>
      <trkpt lat="46.63648" lon="5.55882">
        <ele>360</ele>
        <time>2020-06-21T12:17:40Z</time>
      </trkpt>
      <trkpt lat="46.63652" lon="5.55886">
        <ele>359.6</ele>
        <time>2020-06-21T12:17:45Z</time>
      </trkpt>
      <trkpt lat="46.63656" lon="5.5589">
        <ele>359.3</ele>
        <time>2020-06-21T12:17:49Z</time>
      </trkpt>
      <trkpt lat="46.63661" lon="5.55894">
        <ele>359</ele>
        <time>2020-06-21T12:17:53Z</time>
      </trkpt>
      <trkpt lat="46.63665" lon="5.55898">
        <ele>358.6</ele>
        <time>2020-06-21T12:17:57Z</time>
      </trkpt>
      <trkpt lat="46.6367" lon="5.55902">
        <ele>358.1</ele>
        <time>2020-06-21T12:18:02Z</time>
      </trkpt>
      <trkpt lat="46.63673" lon="5.55907">
        <ele>357.7</ele>
        <time>2020-06-21T12:18:07Z</time>
      </trkpt>
      <trkpt lat="46.63676" lon="5.55912">
        <ele>357.1</ele>
        <time>2020-06-21T12:18:13Z</time>
      </trkpt>
      <trkpt lat="46.63679" lon="5.55918">
        <ele>356.6</ele>
        <time>2020-06-21T12:18:19Z</time>
      </trkpt>
      <trkpt lat="46.63683" lon="5.55923">
        <ele>356.1</ele>
        <time>2020-06-21T12:18:24Z</time>
      </trkpt>
      <trkpt lat="46.63687" lon="5.55926">
        <ele>355.6</ele>
        <time>2020-06-21T12:18:29Z</time>
      </trkpt>
      <trkpt lat="46.63692" lon="5.55926">
        <ele>355</ele>
        <time>2020-06-21T12:18:38Z</time>
      </trkpt>
      <trkpt lat="46.63696" lon="5.55927">
        <ele>354.4</ele>
        <time>2020-06-21T12:18:44Z</time>
      </trkpt>
      <trkpt lat="46.637" lon="5.55931">
        <ele>353.4</ele>
        <time>2020-06-21T12:18:51Z</time>
      </trkpt>
      <trkpt lat="46.63704" lon="5.55935">
        <ele>352.5</ele>
        <time>2020-06-21T12:18:59Z</time>
      </trkpt>
      <trkpt lat="46.63709" lon="5.55936">
        <ele>351.6</ele>
        <time>2020-06-21T12:19:07Z</time>
      </trkpt>
      <trkpt lat="46.63713" lon="5.55938">
        <ele>350.3</ele>
        <time>2020-06-21T12:19:16Z</time>
      </trkpt>
      <trkpt lat="46.63718" lon="5.55941">
        <ele>348.7</ele>
        <time>2020-06-21T12:19:26Z</time>
      </trkpt>
      <trkpt lat="46.63722" lon="5.55943">
        <ele>347.6</ele>
        <time>2020-06-21T12:19:31Z</time>
      </trkpt>
      <trkpt lat="46.63727" lon="5.55946">
        <ele>346.5</ele>
        <time>2020-06-21T12:19:37Z</time>
      </trkpt>
      <trkpt lat="46.63732" lon="5.55948">
        <ele>345.7</ele>
        <time>2020-06-21T12:19:43Z</time>
      </trkpt>
      <trkpt lat="46.63737" lon="5.55949">
        <ele>344.9</ele>
        <time>2020-06-21T12:19:48Z</time>
      </trkpt>
      <trkpt lat="46.63741" lon="5.55951">
        <ele>344.2</ele>
        <time>2020-06-21T12:19:54Z</time>
      </trkpt>
      <trkpt lat="46.63746" lon="5.55953">
        <ele>343.8</ele>
        <time>2020-06-21T12:20:00Z</time>
      </trkpt>
      <trkpt lat="46.63751" lon="5.55954">
        <ele>343.5</ele>
        <time>2020-06-21T12:20:04Z</time>
      </trkpt>
      <trkpt lat="46.63764" lon="5.5596">
        <ele>342.9</ele>
        <time>2020-06-21T12:20:31Z</time>
      </trkpt>
      <trkpt lat="46.63766" lon="5.55966">
        <ele>343.4</ele>
        <time>2020-06-21T12:20:34Z</time>
      </trkpt>
      <trkpt lat="46.63769" lon="5.55972">
        <ele>343.8</ele>
        <time>2020-06-21T12:20:38Z</time>
      </trkpt>
      <trkpt lat="46.63771" lon="5.55979">
        <ele>344.3</ele>
        <time>2020-06-21T12:20:43Z</time>
      </trkpt>
      <trkpt lat="46.63773" lon="5.55986">
        <ele>344.8</ele>
        <time>2020-06-21T12:20:47Z</time>
      </trkpt>
      <trkpt lat="46.63774" lon="5.55993">
        <ele>345.2</ele>
        <time>2020-06-21T12:20:51Z</time>
      </trkpt>
      <trkpt lat="46.63775" lon="5.56">
        <ele>345.5</ele>
        <time>2020-06-21T12:20:55Z</time>
      </trkpt>
      <trkpt lat="46.63777" lon="5.56007">
        <ele>345.7</ele>
        <time>2020-06-21T12:21:00Z</time>
      </trkpt>
      <trkpt lat="46.63779" lon="5.56015">
        <ele>345.6</ele>
        <time>2020-06-21T12:21:05Z</time>
      </trkpt>
      <trkpt lat="46.6378" lon="5.56022">
        <ele>345.3</ele>
        <time>2020-06-21T12:21:09Z</time>
      </trkpt>
      <trkpt lat="46.63782" lon="5.5603">
        <ele>344.6</ele>
        <time>2020-06-21T12:21:16Z</time>
      </trkpt>
      <trkpt lat="46.63782" lon="5.56037">
        <ele>344.2</ele>
        <time>2020-06-21T12:21:20Z</time>
      </trkpt>
      <trkpt lat="46.63784" lon="5.56044">
        <ele>343.8</ele>
        <time>2020-06-21T12:21:24Z</time>
      </trkpt>
      <trkpt lat="46.63785" lon="5.56052">
        <ele>343.4</ele>
        <time>2020-06-21T12:21:29Z</time>
      </trkpt>
      <trkpt lat="46.63787" lon="5.56058">
        <ele>343</ele>
        <time>2020-06-21T12:21:34Z</time>
      </trkpt>
      <trkpt lat="46.63789" lon="5.56065">
        <ele>342.8</ele>
        <time>2020-06-21T12:21:40Z</time>
      </trkpt>
      <trkpt lat="46.63787" lon="5.56072">
        <ele>344.3</ele>
        <time>2020-06-21T12:22:07Z</time>
      </trkpt>
      <trkpt lat="46.63789" lon="5.56079">
        <ele>344.1</ele>
        <time>2020-06-21T12:22:11Z</time>
      </trkpt>
      <trkpt lat="46.63785" lon="5.56083">
        <ele>343.9</ele>
        <time>2020-06-21T12:22:19Z</time>
      </trkpt>
      <trkpt lat="46.63784" lon="5.5609">
        <ele>343.3</ele>
        <time>2020-06-21T12:22:27Z</time>
      </trkpt>
      <trkpt lat="46.63785" lon="5.56097">
        <ele>342.7</ele>
        <time>2020-06-21T12:22:33Z</time>
      </trkpt>
      <trkpt lat="46.63785" lon="5.56104">
        <ele>341.8</ele>
        <time>2020-06-21T12:22:39Z</time>
      </trkpt>
      <trkpt lat="46.63786" lon="5.56112">
        <ele>341</ele>
        <time>2020-06-21T12:22:44Z</time>
      </trkpt>
      <trkpt lat="46.63787" lon="5.5612">
        <ele>340.3</ele>
        <time>2020-06-21T12:22:48Z</time>
      </trkpt>
      <trkpt lat="46.63788" lon="5.56127">
        <ele>339.6</ele>
        <time>2020-06-21T12:22:52Z</time>
      </trkpt>
      <trkpt lat="46.63789" lon="5.56134">
        <ele>339.1</ele>
        <time>2020-06-21T12:22:56Z</time>
      </trkpt>
      <trkpt lat="46.63791" lon="5.56142">
        <ele>338.8</ele>
        <time>2020-06-21T12:23:01Z</time>
      </trkpt>
      <trkpt lat="46.63793" lon="5.56148">
        <ele>338.4</ele>
        <time>2020-06-21T12:23:05Z</time>
      </trkpt>
      <trkpt lat="46.63795" lon="5.56154">
        <ele>338</ele>
        <time>2020-06-21T12:23:09Z</time>
      </trkpt>
      <trkpt lat="46.63796" lon="5.5616">
        <ele>337.3</ele>
        <time>2020-06-21T12:23:14Z</time>
      </trkpt>
      <trkpt lat="46.63798" lon="5.56167">
        <ele>336.8</ele>
        <time>2020-06-21T12:23:18Z</time>
      </trkpt>
      <trkpt lat="46.63801" lon="5.56173">
        <ele>336.4</ele>
        <time>2020-06-21T12:23:23Z</time>
      </trkpt>
      <trkpt lat="46.63805" lon="5.56178">
        <ele>335.9</ele>
        <time>2020-06-21T12:23:28Z</time>
      </trkpt>
      <trkpt lat="46.63808" lon="5.56183">
        <ele>335.2</ele>
        <time>2020-06-21T12:23:36Z</time>
      </trkpt>
      <trkpt lat="46.63812" lon="5.56188">
        <ele>334.4</ele>
        <time>2020-06-21T12:23:42Z</time>
      </trkpt>
      <trkpt lat="46.63815" lon="5.56194">
        <ele>333.4</ele>
        <time>2020-06-21T12:23:48Z</time>
      </trkpt>
      <trkpt lat="46.63819" lon="5.56199">
        <ele>332.4</ele>
        <time>2020-06-21T12:23:53Z</time>
      </trkpt>
      <trkpt lat="46.63822" lon="5.56204">
        <ele>331.3</ele>
        <time>2020-06-21T12:23:59Z</time>
      </trkpt>
      <trkpt lat="46.63825" lon="5.56209">
        <ele>329.3</ele>
        <time>2020-06-21T12:24:08Z</time>
      </trkpt>
      <trkpt lat="46.6383" lon="5.56211">
        <ele>324.1</ele>
        <time>2020-06-21T12:24:24Z</time>
      </trkpt>
      <trkpt lat="46.63836" lon="5.56211">
        <ele>323</ele>
        <time>2020-06-21T12:24:28Z</time>
      </trkpt>
      <trkpt lat="46.63841" lon="5.56213">
        <ele>321.8</ele>
        <time>2020-06-21T12:24:32Z</time>
      </trkpt>
      <trkpt lat="46.63846" lon="5.56214">
        <ele>320.7</ele>
        <time>2020-06-21T12:24:36Z</time>
      </trkpt>
      <trkpt lat="46.63851" lon="5.56216">
        <ele>319.7</ele>
        <time>2020-06-21T12:24:42Z</time>
      </trkpt>
      <trkpt lat="46.63855" lon="5.56219">
        <ele>319.2</ele>
        <time>2020-06-21T12:24:48Z</time>
      </trkpt>
      <trkpt lat="46.6386" lon="5.56221">
        <ele>319</ele>
        <time>2020-06-21T12:24:51Z</time>
      </trkpt>
      <trkpt lat="46.63867" lon="5.56223">
        <ele>318.9</ele>
        <time>2020-06-21T12:24:54Z</time>
      </trkpt>
      <trkpt lat="46.63872" lon="5.56224">
        <ele>318.8</ele>
        <time>2020-06-21T12:24:57Z</time>
      </trkpt>
      <trkpt lat="46.63876" lon="5.56227">
        <ele>318.7</ele>
        <time>2020-06-21T12:25:01Z</time>
      </trkpt>
      <trkpt lat="46.63881" lon="5.56231">
        <ele>318.5</ele>
        <time>2020-06-21T12:25:06Z</time>
      </trkpt>
      <trkpt lat="46.63885" lon="5.56236">
        <ele>317.7</ele>
        <time>2020-06-21T12:25:13Z</time>
      </trkpt>
      <trkpt lat="46.63889" lon="5.56239">
        <ele>316.5</ele>
        <time>2020-06-21T12:25:20Z</time>
      </trkpt>
      <trkpt lat="46.63893" lon="5.56244">
        <ele>315.2</ele>
        <time>2020-06-21T12:25:27Z</time>
      </trkpt>
      <trkpt lat="46.63898" lon="5.56247">
        <ele>315</ele>
        <time>2020-06-21T12:25:30Z</time>
      </trkpt>
      <trkpt lat="46.63903" lon="5.56251">
        <ele>315</ele>
        <time>2020-06-21T12:25:34Z</time>
      </trkpt>
      <trkpt lat="46.63907" lon="5.56255">
        <ele>315.1</ele>
        <time>2020-06-21T12:25:37Z</time>
      </trkpt>
      <trkpt lat="46.63912" lon="5.56259">
        <ele>315.4</ele>
        <time>2020-06-21T12:25:44Z</time>
      </trkpt>
      <trkpt lat="46.63918" lon="5.56261">
        <ele>315.3</ele>
        <time>2020-06-21T12:25:47Z</time>
      </trkpt>
      <trkpt lat="46.63924" lon="5.56263">
        <ele>315</ele>
        <time>2020-06-21T12:25:50Z</time>
      </trkpt>
      <trkpt lat="46.63929" lon="5.56265">
        <ele>314.4</ele>
        <time>2020-06-21T12:25:55Z</time>
      </trkpt>
      <trkpt lat="46.63933" lon="5.5627">
        <ele>313.7</ele>
        <time>2020-06-21T12:26:01Z</time>
      </trkpt>
      <trkpt lat="46.63936" lon="5.56276">
        <ele>312.9</ele>
        <time>2020-06-21T12:26:08Z</time>
      </trkpt>
      <trkpt lat="46.63941" lon="5.56278">
        <ele>312.3</ele>
        <time>2020-06-21T12:26:13Z</time>
      </trkpt>
      <trkpt lat="46.63946" lon="5.56282">
        <ele>311.7</ele>
        <time>2020-06-21T12:26:18Z</time>
      </trkpt>
      <trkpt lat="46.63951" lon="5.56285">
        <ele>311.4</ele>
        <time>2020-06-21T12:26:21Z</time>
      </trkpt>
      <trkpt lat="46.63956" lon="5.56287">
        <ele>311.2</ele>
        <time>2020-06-21T12:26:24Z</time>
      </trkpt>
      <trkpt lat="46.63961" lon="5.5629">
        <ele>310.9</ele>
        <time>2020-06-21T12:26:28Z</time>
      </trkpt>
      <trkpt lat="46.63965" lon="5.56292">
        <ele>310.6</ele>
        <time>2020-06-21T12:26:32Z</time>
      </trkpt>
      <trkpt lat="46.6397" lon="5.56294">
        <ele>310.2</ele>
        <time>2020-06-21T12:26:38Z</time>
      </trkpt>
      <trkpt lat="46.63975" lon="5.56294">
        <ele>309.7</ele>
        <time>2020-06-21T12:26:45Z</time>
      </trkpt>
      <trkpt lat="46.63979" lon="5.56297">
        <ele>308.2</ele>
        <time>2020-06-21T12:27:13Z</time>
      </trkpt>
      <trkpt lat="46.63984" lon="5.563">
        <ele>307.9</ele>
        <time>2020-06-21T12:27:19Z</time>
      </trkpt>
      <trkpt lat="46.63988" lon="5.56305">
        <ele>307.7</ele>
        <time>2020-06-21T12:27:22Z</time>
      </trkpt>
      <trkpt lat="46.63991" lon="5.56311">
        <ele>307.4</ele>
        <time>2020-06-21T12:27:29Z</time>
      </trkpt>
      <trkpt lat="46.63993" lon="5.56317">
        <ele>306.5</ele>
        <time>2020-06-21T12:27:41Z</time>
      </trkpt>
      <trkpt lat="46.63998" lon="5.56317">
        <ele>306.1</ele>
        <time>2020-06-21T12:27:48Z</time>
      </trkpt>
      <trkpt lat="46.64001" lon="5.56315">
        <ele>302.5</ele>
        <time>2020-06-21T12:29:32Z</time>
      </trkpt>
      <trkpt lat="46.64004" lon="5.56321">
        <ele>302.3</ele>
        <time>2020-06-21T12:29:36Z</time>
      </trkpt>
      <trkpt lat="46.64008" lon="5.56325">
        <ele>302.3</ele>
        <time>2020-06-21T12:29:40Z</time>
      </trkpt>
      <trkpt lat="46.64013" lon="5.56328">
        <ele>302.3</ele>
        <time>2020-06-21T12:29:45Z</time>
      </trkpt>
      <trkpt lat="46.64016" lon="5.56333">
        <ele>302.4</ele>
        <time>2020-06-21T12:29:48Z</time>
      </trkpt>
      <trkpt lat="46.64021" lon="5.56338">
        <ele>302.4</ele>
        <time>2020-06-21T12:29:52Z</time>
      </trkpt>
      <trkpt lat="46.64025" lon="5.5634">
        <ele>302.4</ele>
        <time>2020-06-21T12:29:56Z</time>
      </trkpt>
      <trkpt lat="46.6403" lon="5.56341">
        <ele>302.4</ele>
        <time>2020-06-21T12:29:59Z</time>
      </trkpt>
      <trkpt lat="46.64034" lon="5.56342">
        <ele>302.5</ele>
        <time>2020-06-21T12:30:02Z</time>
      </trkpt>
      <trkpt lat="46.64041" lon="5.56343">
        <ele>302.6</ele>
        <time>2020-06-21T12:30:05Z</time>
      </trkpt>
      <trkpt lat="46.64045" lon="5.56344">
        <ele>302.6</ele>
        <time>2020-06-21T12:30:08Z</time>
      </trkpt>
      <trkpt lat="46.64051" lon="5.56345">
        <ele>302.7</ele>
        <time>2020-06-21T12:30:11Z</time>
      </trkpt>
      <trkpt lat="46.64055" lon="5.56346">
        <ele>302.6</ele>
        <time>2020-06-21T12:30:14Z</time>
      </trkpt>
      <trkpt lat="46.6406" lon="5.56347">
        <ele>302.5</ele>
        <time>2020-06-21T12:30:19Z</time>
      </trkpt>
      <trkpt lat="46.64065" lon="5.56348">
        <ele>302.2</ele>
        <time>2020-06-21T12:30:25Z</time>
      </trkpt>
      <trkpt lat="46.6407" lon="5.56349">
        <ele>301.8</ele>
        <time>2020-06-21T12:30:32Z</time>
      </trkpt>
      <trkpt lat="46.64074" lon="5.56347">
        <ele>301.4</ele>
        <time>2020-06-21T12:30:38Z</time>
      </trkpt>
      <trkpt lat="46.64079" lon="5.56345">
        <ele>301.2</ele>
        <time>2020-06-21T12:30:44Z</time>
      </trkpt>
      <trkpt lat="46.64084" lon="5.56345">
        <ele>301.3</ele>
        <time>2020-06-21T12:30:48Z</time>
      </trkpt>
      <trkpt lat="46.64089" lon="5.56346">
        <ele>301.5</ele>
        <time>2020-06-21T12:30:52Z</time>
      </trkpt>
      <trkpt lat="46.641" lon="5.56347">
        <ele>302.1</ele>
        <time>2020-06-21T12:31:00Z</time>
      </trkpt>
      <trkpt lat="46.64105" lon="5.56345">
        <ele>302.2</ele>
        <time>2020-06-21T12:31:03Z</time>
      </trkpt>
      <trkpt lat="46.6411" lon="5.56345">
        <ele>302.5</ele>
        <time>2020-06-21T12:31:06Z</time>
      </trkpt>
      <trkpt lat="46.64115" lon="5.56347">
        <ele>302.8</ele>
        <time>2020-06-21T12:31:10Z</time>
      </trkpt>
      <trkpt lat="46.6412" lon="5.56352">
        <ele>303</ele>
        <time>2020-06-21T12:31:14Z</time>
      </trkpt>
      <trkpt lat="46.64124" lon="5.56355">
        <ele>303.1</ele>
        <time>2020-06-21T12:31:17Z</time>
      </trkpt>
      <trkpt lat="46.64127" lon="5.5636">
        <ele>303.1</ele>
        <time>2020-06-21T12:31:20Z</time>
      </trkpt>
      <trkpt lat="46.64131" lon="5.56364">
        <ele>303</ele>
        <time>2020-06-21T12:31:23Z</time>
      </trkpt>
      <trkpt lat="46.64134" lon="5.56371">
        <ele>302.9</ele>
        <time>2020-06-21T12:31:27Z</time>
      </trkpt>
      <trkpt lat="46.64138" lon="5.56376">
        <ele>302.9</ele>
        <time>2020-06-21T12:31:31Z</time>
      </trkpt>
      <trkpt lat="46.64143" lon="5.56381">
        <ele>302.7</ele>
        <time>2020-06-21T12:31:37Z</time>
      </trkpt>
      <trkpt lat="46.64145" lon="5.56386">
        <ele>302.6</ele>
        <time>2020-06-21T12:31:41Z</time>
      </trkpt>
      <trkpt lat="46.64149" lon="5.5639">
        <ele>302.5</ele>
        <time>2020-06-21T12:31:47Z</time>
      </trkpt>
      <trkpt lat="46.64154" lon="5.56394">
        <ele>302</ele>
        <time>2020-06-21T12:31:55Z</time>
      </trkpt>
      <trkpt lat="46.64158" lon="5.56398">
        <ele>301.4</ele>
        <time>2020-06-21T12:32:00Z</time>
      </trkpt>
      <trkpt lat="46.64162" lon="5.56403">
        <ele>301</ele>
        <time>2020-06-21T12:32:04Z</time>
      </trkpt>
      <trkpt lat="46.64166" lon="5.56407">
        <ele>300.6</ele>
        <time>2020-06-21T12:32:07Z</time>
      </trkpt>
      <trkpt lat="46.64171" lon="5.5641">
        <ele>300.3</ele>
        <time>2020-06-21T12:32:10Z</time>
      </trkpt>
      <trkpt lat="46.64175" lon="5.56412">
        <ele>299.9</ele>
        <time>2020-06-21T12:32:13Z</time>
      </trkpt>
      <trkpt lat="46.64179" lon="5.56416">
        <ele>299.4</ele>
        <time>2020-06-21T12:32:18Z</time>
      </trkpt>
      <trkpt lat="46.64183" lon="5.56419">
        <ele>299.3</ele>
        <time>2020-06-21T12:32:22Z</time>
      </trkpt>
      <trkpt lat="46.64188" lon="5.56423">
        <ele>299</ele>
        <time>2020-06-21T12:32:27Z</time>
      </trkpt>
      <trkpt lat="46.64193" lon="5.56425">
        <ele>298.8</ele>
        <time>2020-06-21T12:32:31Z</time>
      </trkpt>
      <trkpt lat="46.64197" lon="5.56427">
        <ele>298.9</ele>
        <time>2020-06-21T12:32:35Z</time>
      </trkpt>
      <trkpt lat="46.64203" lon="5.56429">
        <ele>298.9</ele>
        <time>2020-06-21T12:32:39Z</time>
      </trkpt>
      <trkpt lat="46.64207" lon="5.56431">
        <ele>299</ele>
        <time>2020-06-21T12:32:43Z</time>
      </trkpt>
      <trkpt lat="46.64227" lon="5.56437">
        <ele>301.9</ele>
        <time>2020-06-21T12:33:22Z</time>
      </trkpt>
      <trkpt lat="46.64232" lon="5.56437">
        <ele>302.3</ele>
        <time>2020-06-21T12:33:27Z</time>
      </trkpt>
      <trkpt lat="46.64236" lon="5.56436">
        <ele>302.9</ele>
        <time>2020-06-21T12:33:32Z</time>
      </trkpt>
      <trkpt lat="46.64242" lon="5.56437">
        <ele>303.8</ele>
        <time>2020-06-21T12:33:38Z</time>
      </trkpt>
      <trkpt lat="46.64246" lon="5.56434">
        <ele>304.8</ele>
        <time>2020-06-21T12:33:43Z</time>
      </trkpt>
      <trkpt lat="46.64251" lon="5.56432">
        <ele>305.5</ele>
        <time>2020-06-21T12:33:47Z</time>
      </trkpt>
      <trkpt lat="46.64256" lon="5.56433">
        <ele>306.5</ele>
        <time>2020-06-21T12:33:53Z</time>
      </trkpt>
      <trkpt lat="46.64261" lon="5.56432">
        <ele>307.6</ele>
        <time>2020-06-21T12:33:59Z</time>
      </trkpt>
      <trkpt lat="46.64265" lon="5.56434">
        <ele>308.5</ele>
        <time>2020-06-21T12:34:06Z</time>
      </trkpt>
      <trkpt lat="46.64271" lon="5.56435">
        <ele>308.7</ele>
        <time>2020-06-21T12:34:10Z</time>
      </trkpt>
      <trkpt lat="46.64276" lon="5.56432">
        <ele>308.9</ele>
        <time>2020-06-21T12:34:16Z</time>
      </trkpt>
      <trkpt lat="46.64273" lon="5.56427">
        <ele>308.8</ele>
        <time>2020-06-21T12:34:22Z</time>
      </trkpt>
      <trkpt lat="46.64271" lon="5.5642">
        <ele>308.2</ele>
        <time>2020-06-21T12:34:28Z</time>
      </trkpt>
      <trkpt lat="46.6427" lon="5.56413">
        <ele>307.1</ele>
        <time>2020-06-21T12:34:35Z</time>
      </trkpt>
      <trkpt lat="46.6427" lon="5.56406">
        <ele>306.4</ele>
        <time>2020-06-21T12:34:39Z</time>
      </trkpt>
      <trkpt lat="46.64272" lon="5.564">
        <ele>305.7</ele>
        <time>2020-06-21T12:34:44Z</time>
      </trkpt>
      <trkpt lat="46.64274" lon="5.56394">
        <ele>305.2</ele>
        <time>2020-06-21T12:34:49Z</time>
      </trkpt>
      <trkpt lat="46.64278" lon="5.56388">
        <ele>304.8</ele>
        <time>2020-06-21T12:34:55Z</time>
      </trkpt>
      <trkpt lat="46.64281" lon="5.56383">
        <ele>304.4</ele>
        <time>2020-06-21T12:35:02Z</time>
      </trkpt>
      <trkpt lat="46.64283" lon="5.56376">
        <ele>304.3</ele>
        <time>2020-06-21T12:35:09Z</time>
      </trkpt>
      <trkpt lat="46.64283" lon="5.56368">
        <ele>304.3</ele>
        <time>2020-06-21T12:35:13Z</time>
      </trkpt>
      <trkpt lat="46.64283" lon="5.56362">
        <ele>304.3</ele>
        <time>2020-06-21T12:35:16Z</time>
      </trkpt>
      <trkpt lat="46.64283" lon="5.56355">
        <ele>304.2</ele>
        <time>2020-06-21T12:35:20Z</time>
      </trkpt>
      <trkpt lat="46.64285" lon="5.56348">
        <ele>304.1</ele>
        <time>2020-06-21T12:35:24Z</time>
      </trkpt>
      <trkpt lat="46.64284" lon="5.56339">
        <ele>304.5</ele>
        <time>2020-06-21T12:35:27Z</time>
      </trkpt>
      <trkpt lat="46.64285" lon="5.5633">
        <ele>305.1</ele>
        <time>2020-06-21T12:35:30Z</time>
      </trkpt>
      <trkpt lat="46.64286" lon="5.56324">
        <ele>305.6</ele>
        <time>2020-06-21T12:35:32Z</time>
      </trkpt>
      <trkpt lat="46.64285" lon="5.56316">
        <ele>306.3</ele>
        <time>2020-06-21T12:35:34Z</time>
      </trkpt>
      <trkpt lat="46.64285" lon="5.56308">
        <ele>307.4</ele>
        <time>2020-06-21T12:35:37Z</time>
      </trkpt>
      <trkpt lat="46.64283" lon="5.56301">
        <ele>309.2</ele>
        <time>2020-06-21T12:35:42Z</time>
      </trkpt>
      <trkpt lat="46.64282" lon="5.56294">
        <ele>310.4</ele>
        <time>2020-06-21T12:35:46Z</time>
      </trkpt>
      <trkpt lat="46.64284" lon="5.56287">
        <ele>311.8</ele>
        <time>2020-06-21T12:35:52Z</time>
      </trkpt>
      <trkpt lat="46.64286" lon="5.5628">
        <ele>312.6</ele>
        <time>2020-06-21T12:35:58Z</time>
      </trkpt>
      <trkpt lat="46.64289" lon="5.56274">
        <ele>313.3</ele>
        <time>2020-06-21T12:36:04Z</time>
      </trkpt>
      <trkpt lat="46.64292" lon="5.56267">
        <ele>313.8</ele>
        <time>2020-06-21T12:36:08Z</time>
      </trkpt>
      <trkpt lat="46.64295" lon="5.56263">
        <ele>314.2</ele>
        <time>2020-06-21T12:36:13Z</time>
      </trkpt>
      <trkpt lat="46.64298" lon="5.56256">
        <ele>314.3</ele>
        <time>2020-06-21T12:36:20Z</time>
      </trkpt>
      <trkpt lat="46.64301" lon="5.5625">
        <ele>314</ele>
        <time>2020-06-21T12:36:25Z</time>
      </trkpt>
      <trkpt lat="46.64304" lon="5.56244">
        <ele>313.7</ele>
        <time>2020-06-21T12:36:30Z</time>
      </trkpt>
      <trkpt lat="46.64306" lon="5.56239">
        <ele>313</ele>
        <time>2020-06-21T12:36:36Z</time>
      </trkpt>
      <trkpt lat="46.64307" lon="5.56232">
        <ele>312.4</ele>
        <time>2020-06-21T12:36:42Z</time>
      </trkpt>
      <trkpt lat="46.64306" lon="5.56225">
        <ele>311.8</ele>
        <time>2020-06-21T12:36:49Z</time>
      </trkpt>
      <trkpt lat="46.64305" lon="5.56219">
        <ele>311.3</ele>
        <time>2020-06-21T12:36:55Z</time>
      </trkpt>
      <trkpt lat="46.64306" lon="5.56212">
        <ele>311</ele>
        <time>2020-06-21T12:37:00Z</time>
      </trkpt>
      <trkpt lat="46.6431" lon="5.56208">
        <ele>310.4</ele>
        <time>2020-06-21T12:37:10Z</time>
      </trkpt>
      <trkpt lat="46.64314" lon="5.56205">
        <ele>310</ele>
        <time>2020-06-21T12:37:22Z</time>
      </trkpt>
      <trkpt lat="46.64316" lon="5.56199">
        <ele>309.7</ele>
        <time>2020-06-21T12:37:28Z</time>
      </trkpt>
      <trkpt lat="46.64319" lon="5.56194">
        <ele>309.4</ele>
        <time>2020-06-21T12:37:32Z</time>
      </trkpt>
      <trkpt lat="46.64322" lon="5.56187">
        <ele>309.1</ele>
        <time>2020-06-21T12:37:36Z</time>
      </trkpt>
      <trkpt lat="46.64325" lon="5.56182">
        <ele>308.7</ele>
        <time>2020-06-21T12:37:40Z</time>
      </trkpt>
      <trkpt lat="46.64328" lon="5.56175">
        <ele>308</ele>
        <time>2020-06-21T12:37:46Z</time>
      </trkpt>
      <trkpt lat="46.64331" lon="5.5617">
        <ele>307.5</ele>
        <time>2020-06-21T12:37:51Z</time>
      </trkpt>
      <trkpt lat="46.64334" lon="5.56166">
        <ele>306.9</ele>
        <time>2020-06-21T12:37:56Z</time>
      </trkpt>
      <trkpt lat="46.64338" lon="5.56161">
        <ele>306.4</ele>
        <time>2020-06-21T12:38:01Z</time>
      </trkpt>
      <trkpt lat="46.64341" lon="5.56156">
        <ele>306.1</ele>
        <time>2020-06-21T12:38:05Z</time>
      </trkpt>
      <trkpt lat="46.64345" lon="5.56151">
        <ele>305.8</ele>
        <time>2020-06-21T12:38:10Z</time>
      </trkpt>
      <trkpt lat="46.64347" lon="5.56144">
        <ele>305.5</ele>
        <time>2020-06-21T12:38:16Z</time>
      </trkpt>
      <trkpt lat="46.6435" lon="5.56139">
        <ele>305.5</ele>
        <time>2020-06-21T12:38:20Z</time>
      </trkpt>
      <trkpt lat="46.64353" lon="5.56133">
        <ele>305.5</ele>
        <time>2020-06-21T12:38:24Z</time>
      </trkpt>
      <trkpt lat="46.64356" lon="5.56127">
        <ele>305.7</ele>
        <time>2020-06-21T12:38:29Z</time>
      </trkpt>
      <trkpt lat="46.64358" lon="5.5612">
        <ele>305.9</ele>
        <time>2020-06-21T12:38:34Z</time>
      </trkpt>
      <trkpt lat="46.6436" lon="5.56113">
        <ele>306</ele>
        <time>2020-06-21T12:38:39Z</time>
      </trkpt>
      <trkpt lat="46.64362" lon="5.56107">
        <ele>306</ele>
        <time>2020-06-21T12:38:44Z</time>
      </trkpt>
      <trkpt lat="46.64365" lon="5.56101">
        <ele>306.1</ele>
        <time>2020-06-21T12:38:48Z</time>
      </trkpt>
      <trkpt lat="46.64367" lon="5.56096">
        <ele>305.9</ele>
        <time>2020-06-21T12:38:53Z</time>
      </trkpt>
      <trkpt lat="46.6437" lon="5.56089">
        <ele>305.7</ele>
        <time>2020-06-21T12:38:58Z</time>
      </trkpt>
      <trkpt lat="46.64372" lon="5.56082">
        <ele>305.5</ele>
        <time>2020-06-21T12:39:03Z</time>
      </trkpt>
      <trkpt lat="46.64374" lon="5.56075">
        <ele>305.3</ele>
        <time>2020-06-21T12:39:09Z</time>
      </trkpt>
      <trkpt lat="46.64375" lon="5.56068">
        <ele>305.2</ele>
        <time>2020-06-21T12:39:14Z</time>
      </trkpt>
      <trkpt lat="46.64375" lon="5.5606">
        <ele>304.9</ele>
        <time>2020-06-21T12:39:20Z</time>
      </trkpt>
      <trkpt lat="46.64373" lon="5.56054">
        <ele>304.1</ele>
        <time>2020-06-21T12:39:27Z</time>
      </trkpt>
      <trkpt lat="46.64374" lon="5.56048">
        <ele>302.8</ele>
        <time>2020-06-21T12:39:39Z</time>
      </trkpt>
      <trkpt lat="46.64374" lon="5.5604">
        <ele>302.1</ele>
        <time>2020-06-21T12:39:45Z</time>
      </trkpt>
      <trkpt lat="46.64373" lon="5.56033">
        <ele>301.6</ele>
        <time>2020-06-21T12:39:50Z</time>
      </trkpt>
      <trkpt lat="46.64371" lon="5.56026">
        <ele>301.2</ele>
        <time>2020-06-21T12:39:54Z</time>
      </trkpt>
      <trkpt lat="46.64369" lon="5.5602">
        <ele>300.7</ele>
        <time>2020-06-21T12:39:59Z</time>
      </trkpt>
      <trkpt lat="46.64369" lon="5.56013">
        <ele>300.4</ele>
        <time>2020-06-21T12:40:04Z</time>
      </trkpt>
      <trkpt lat="46.64369" lon="5.56007">
        <ele>300.2</ele>
        <time>2020-06-21T12:40:08Z</time>
      </trkpt>
      <trkpt lat="46.64369" lon="5.56">
        <ele>299.6</ele>
        <time>2020-06-21T12:40:14Z</time>
      </trkpt>
      <trkpt lat="46.64372" lon="5.55993">
        <ele>298.6</ele>
        <time>2020-06-21T12:40:20Z</time>
      </trkpt>
      <trkpt lat="46.64376" lon="5.55988">
        <ele>298</ele>
        <time>2020-06-21T12:40:24Z</time>
      </trkpt>
      <trkpt lat="46.64379" lon="5.55983">
        <ele>297.4</ele>
        <time>2020-06-21T12:40:28Z</time>
      </trkpt>
      <trkpt lat="46.64383" lon="5.55978">
        <ele>296.7</ele>
        <time>2020-06-21T12:40:33Z</time>
      </trkpt>
      <trkpt lat="46.64387" lon="5.55974">
        <ele>296</ele>
        <time>2020-06-21T12:40:38Z</time>
      </trkpt>
      <trkpt lat="46.64393" lon="5.55973">
        <ele>295.5</ele>
        <time>2020-06-21T12:40:43Z</time>
      </trkpt>
      <trkpt lat="46.64398" lon="5.55972">
        <ele>295.1</ele>
        <time>2020-06-21T12:40:48Z</time>
      </trkpt>
      <trkpt lat="46.64403" lon="5.55972">
        <ele>294.8</ele>
        <time>2020-06-21T12:40:54Z</time>
      </trkpt>
      <trkpt lat="46.64408" lon="5.55971">
        <ele>294.7</ele>
        <time>2020-06-21T12:40:59Z</time>
      </trkpt>
      <trkpt lat="46.64413" lon="5.55971">
        <ele>294.6</ele>
        <time>2020-06-21T12:41:03Z</time>
      </trkpt>
      <trkpt lat="46.64418" lon="5.5597">
        <ele>294.4</ele>
        <time>2020-06-21T12:41:07Z</time>
      </trkpt>
      <trkpt lat="46.64423" lon="5.5597">
        <ele>294.2</ele>
        <time>2020-06-21T12:41:11Z</time>
      </trkpt>
      <trkpt lat="46.64428" lon="5.5597">
        <ele>293.8</ele>
        <time>2020-06-21T12:41:16Z</time>
      </trkpt>
      <trkpt lat="46.64433" lon="5.5597">
        <ele>293.5</ele>
        <time>2020-06-21T12:41:21Z</time>
      </trkpt>
      <trkpt lat="46.64438" lon="5.55968">
        <ele>293.2</ele>
        <time>2020-06-21T12:41:26Z</time>
      </trkpt>
      <trkpt lat="46.64443" lon="5.55968">
        <ele>293.1</ele>
        <time>2020-06-21T12:41:31Z</time>
      </trkpt>
      <trkpt lat="46.64448" lon="5.55966">
        <ele>292.8</ele>
        <time>2020-06-21T12:41:36Z</time>
      </trkpt>
      <trkpt lat="46.64452" lon="5.55965">
        <ele>292.8</ele>
        <time>2020-06-21T12:41:40Z</time>
      </trkpt>
      <trkpt lat="46.64458" lon="5.55963">
        <ele>293</ele>
        <time>2020-06-21T12:41:45Z</time>
      </trkpt>
      <trkpt lat="46.64462" lon="5.55961">
        <ele>293.3</ele>
        <time>2020-06-21T12:41:49Z</time>
      </trkpt>
      <trkpt lat="46.64467" lon="5.55959">
        <ele>293.5</ele>
        <time>2020-06-21T12:41:53Z</time>
      </trkpt>
      <trkpt lat="46.64472" lon="5.55958">
        <ele>293.6</ele>
        <time>2020-06-21T12:41:57Z</time>
      </trkpt>
      <trkpt lat="46.64477" lon="5.55956">
        <ele>293.7</ele>
        <time>2020-06-21T12:42:01Z</time>
      </trkpt>
      <trkpt lat="46.64482" lon="5.55954">
        <ele>293.8</ele>
        <time>2020-06-21T12:42:05Z</time>
      </trkpt>
      <trkpt lat="46.64488" lon="5.55953">
        <ele>293.8</ele>
        <time>2020-06-21T12:42:09Z</time>
      </trkpt>
      <trkpt lat="46.64492" lon="5.55952">
        <ele>293.7</ele>
        <time>2020-06-21T12:42:13Z</time>
      </trkpt>
      <trkpt lat="46.64497" lon="5.5595">
        <ele>293.1</ele>
        <time>2020-06-21T12:42:19Z</time>
      </trkpt>
      <trkpt lat="46.64502" lon="5.55948">
        <ele>292.5</ele>
        <time>2020-06-21T12:42:24Z</time>
      </trkpt>
      <trkpt lat="46.64507" lon="5.55946">
        <ele>292</ele>
        <time>2020-06-21T12:42:29Z</time>
      </trkpt>
      <trkpt lat="46.64511" lon="5.55944">
        <ele>291.5</ele>
        <time>2020-06-21T12:42:33Z</time>
      </trkpt>
      <trkpt lat="46.64516" lon="5.55943">
        <ele>291</ele>
        <time>2020-06-21T12:42:38Z</time>
      </trkpt>
      <trkpt lat="46.64521" lon="5.55941">
        <ele>290.6</ele>
        <time>2020-06-21T12:42:42Z</time>
      </trkpt>
      <trkpt lat="46.64525" lon="5.55939">
        <ele>290.4</ele>
        <time>2020-06-21T12:42:47Z</time>
      </trkpt>
      <trkpt lat="46.6453" lon="5.55937">
        <ele>290.2</ele>
        <time>2020-06-21T12:42:52Z</time>
      </trkpt>
      <trkpt lat="46.64534" lon="5.55934">
        <ele>289.9</ele>
        <time>2020-06-21T12:42:57Z</time>
      </trkpt>
      <trkpt lat="46.64539" lon="5.55931">
        <ele>289.5</ele>
        <time>2020-06-21T12:43:05Z</time>
      </trkpt>
      <trkpt lat="46.64538" lon="5.55924">
        <ele>290</ele>
        <time>2020-06-21T12:43:22Z</time>
      </trkpt>
      <trkpt lat="46.64541" lon="5.55919">
        <ele>290.3</ele>
        <time>2020-06-21T12:43:28Z</time>
      </trkpt>
      <trkpt lat="46.64546" lon="5.55915">
        <ele>290.6</ele>
        <time>2020-06-21T12:43:34Z</time>
      </trkpt>
      <trkpt lat="46.64551" lon="5.55913">
        <ele>290.5</ele>
        <time>2020-06-21T12:43:40Z</time>
      </trkpt>
      <trkpt lat="46.64556" lon="5.55912">
        <ele>290.2</ele>
        <time>2020-06-21T12:43:44Z</time>
      </trkpt>
      <trkpt lat="46.6456" lon="5.55909">
        <ele>289.7</ele>
        <time>2020-06-21T12:43:49Z</time>
      </trkpt>
      <trkpt lat="46.64565" lon="5.55905">
        <ele>289.3</ele>
        <time>2020-06-21T12:43:54Z</time>
      </trkpt>
      <trkpt lat="46.64569" lon="5.55902">
        <ele>289</ele>
        <time>2020-06-21T12:43:58Z</time>
      </trkpt>
      <trkpt lat="46.64573" lon="5.55898">
        <ele>288.7</ele>
        <time>2020-06-21T12:44:02Z</time>
      </trkpt>
      <trkpt lat="46.64577" lon="5.55895">
        <ele>288.5</ele>
        <time>2020-06-21T12:44:07Z</time>
      </trkpt>
      <trkpt lat="46.64582" lon="5.55893">
        <ele>288.5</ele>
        <time>2020-06-21T12:44:12Z</time>
      </trkpt>
      <trkpt lat="46.64587" lon="5.55891">
        <ele>288.4</ele>
        <time>2020-06-21T12:44:17Z</time>
      </trkpt>
      <trkpt lat="46.64591" lon="5.55888">
        <ele>288.3</ele>
        <time>2020-06-21T12:44:21Z</time>
      </trkpt>
      <trkpt lat="46.64595" lon="5.55885">
        <ele>288.2</ele>
        <time>2020-06-21T12:44:24Z</time>
      </trkpt>
      <trkpt lat="46.64599" lon="5.55883">
        <ele>287.9</ele>
        <time>2020-06-21T12:44:28Z</time>
      </trkpt>
      <trkpt lat="46.64604" lon="5.5588">
        <ele>287.7</ele>
        <time>2020-06-21T12:44:32Z</time>
      </trkpt>
      <trkpt lat="46.64608" lon="5.55877">
        <ele>287.7</ele>
        <time>2020-06-21T12:44:37Z</time>
      </trkpt>
      <trkpt lat="46.64613" lon="5.55875">
        <ele>288.2</ele>
        <time>2020-06-21T12:44:41Z</time>
      </trkpt>
      <trkpt lat="46.64618" lon="5.55875">
        <ele>289.3</ele>
        <time>2020-06-21T12:44:45Z</time>
      </trkpt>
      <trkpt lat="46.64623" lon="5.55873">
        <ele>290.5</ele>
        <time>2020-06-21T12:44:50Z</time>
      </trkpt>
      <trkpt lat="46.64628" lon="5.55871">
        <ele>291</ele>
        <time>2020-06-21T12:44:54Z</time>
      </trkpt>
      <trkpt lat="46.64632" lon="5.5587">
        <ele>291.2</ele>
        <time>2020-06-21T12:45:01Z</time>
      </trkpt>
      <trkpt lat="46.64637" lon="5.55867">
        <ele>290.8</ele>
        <time>2020-06-21T12:45:07Z</time>
      </trkpt>
      <trkpt lat="46.64642" lon="5.55863">
        <ele>290</ele>
        <time>2020-06-21T12:45:12Z</time>
      </trkpt>
      <trkpt lat="46.64646" lon="5.55859">
        <ele>289</ele>
        <time>2020-06-21T12:45:17Z</time>
      </trkpt>
      <trkpt lat="46.64651" lon="5.55857">
        <ele>287.7</ele>
        <time>2020-06-21T12:45:23Z</time>
      </trkpt>
      <trkpt lat="46.64656" lon="5.55854">
        <ele>286.9</ele>
        <time>2020-06-21T12:45:28Z</time>
      </trkpt>
      <trkpt lat="46.64666" lon="5.55843">
        <ele>285.3</ele>
        <time>2020-06-21T12:45:38Z</time>
      </trkpt>
      <trkpt lat="46.6467" lon="5.55839">
        <ele>285.1</ele>
        <time>2020-06-21T12:45:43Z</time>
      </trkpt>
      <trkpt lat="46.64674" lon="5.55836">
        <ele>284.8</ele>
        <time>2020-06-21T12:45:48Z</time>
      </trkpt>
      <trkpt lat="46.64678" lon="5.55831">
        <ele>284.5</ele>
        <time>2020-06-21T12:45:54Z</time>
      </trkpt>
      <trkpt lat="46.64683" lon="5.55827">
        <ele>284.5</ele>
        <time>2020-06-21T12:45:59Z</time>
      </trkpt>
      <trkpt lat="46.64687" lon="5.55825">
        <ele>284.3</ele>
        <time>2020-06-21T12:46:04Z</time>
      </trkpt>
      <trkpt lat="46.64692" lon="5.55822">
        <ele>284.1</ele>
        <time>2020-06-21T12:46:10Z</time>
      </trkpt>
      <trkpt lat="46.64696" lon="5.55819">
        <ele>284</ele>
        <time>2020-06-21T12:46:15Z</time>
      </trkpt>
      <trkpt lat="46.647" lon="5.55816">
        <ele>284</ele>
        <time>2020-06-21T12:46:19Z</time>
      </trkpt>
      <trkpt lat="46.64705" lon="5.55813">
        <ele>284.2</ele>
        <time>2020-06-21T12:46:24Z</time>
      </trkpt>
      <trkpt lat="46.6471" lon="5.55809">
        <ele>284.6</ele>
        <time>2020-06-21T12:46:28Z</time>
      </trkpt>
      <trkpt lat="46.64714" lon="5.55805">
        <ele>285</ele>
        <time>2020-06-21T12:46:32Z</time>
      </trkpt>
      <trkpt lat="46.64718" lon="5.55803">
        <ele>285.3</ele>
        <time>2020-06-21T12:46:36Z</time>
      </trkpt>
      <trkpt lat="46.64723" lon="5.558">
        <ele>285.6</ele>
        <time>2020-06-21T12:46:41Z</time>
      </trkpt>
      <trkpt lat="46.64727" lon="5.55797">
        <ele>285.7</ele>
        <time>2020-06-21T12:46:46Z</time>
      </trkpt>
      <trkpt lat="46.64731" lon="5.55793">
        <ele>285.9</ele>
        <time>2020-06-21T12:46:50Z</time>
      </trkpt>
      <trkpt lat="46.64736" lon="5.55788">
        <ele>286.1</ele>
        <time>2020-06-21T12:46:55Z</time>
      </trkpt>
      <trkpt lat="46.6474" lon="5.55785">
        <ele>286.3</ele>
        <time>2020-06-21T12:47:00Z</time>
      </trkpt>
      <trkpt lat="46.64746" lon="5.55782">
        <ele>286.4</ele>
        <time>2020-06-21T12:47:05Z</time>
      </trkpt>
      <trkpt lat="46.6475" lon="5.55779">
        <ele>286.5</ele>
        <time>2020-06-21T12:47:10Z</time>
      </trkpt>
      <trkpt lat="46.64754" lon="5.55775">
        <ele>286.3</ele>
        <time>2020-06-21T12:47:16Z</time>
      </trkpt>
      <trkpt lat="46.64759" lon="5.55772">
        <ele>286.3</ele>
        <time>2020-06-21T12:47:22Z</time>
      </trkpt>
      <trkpt lat="46.64763" lon="5.5577">
        <ele>286.2</ele>
        <time>2020-06-21T12:47:26Z</time>
      </trkpt>
      <trkpt lat="46.64767" lon="5.55767">
        <ele>286.1</ele>
        <time>2020-06-21T12:47:30Z</time>
      </trkpt>
      <trkpt lat="46.64771" lon="5.55763">
        <ele>286.1</ele>
        <time>2020-06-21T12:47:34Z</time>
      </trkpt>
      <trkpt lat="46.64775" lon="5.55759">
        <ele>286.1</ele>
        <time>2020-06-21T12:47:39Z</time>
      </trkpt>
      <trkpt lat="46.6478" lon="5.55757">
        <ele>286.3</ele>
        <time>2020-06-21T12:47:46Z</time>
      </trkpt>
      <trkpt lat="46.64784" lon="5.55752">
        <ele>286.6</ele>
        <time>2020-06-21T12:47:51Z</time>
      </trkpt>
      <trkpt lat="46.64788" lon="5.55749">
        <ele>286.8</ele>
        <time>2020-06-21T12:47:54Z</time>
      </trkpt>
      <trkpt lat="46.64793" lon="5.55747">
        <ele>287.1</ele>
        <time>2020-06-21T12:47:58Z</time>
      </trkpt>
      <trkpt lat="46.64798" lon="5.55745">
        <ele>287.4</ele>
        <time>2020-06-21T12:48:03Z</time>
      </trkpt>
      <trkpt lat="46.64803" lon="5.55742">
        <ele>287.6</ele>
        <time>2020-06-21T12:48:08Z</time>
      </trkpt>
      <trkpt lat="46.64808" lon="5.5574">
        <ele>287.6</ele>
        <time>2020-06-21T12:48:13Z</time>
      </trkpt>
      <trkpt lat="46.64813" lon="5.55737">
        <ele>287.7</ele>
        <time>2020-06-21T12:48:17Z</time>
      </trkpt>
      <trkpt lat="46.64817" lon="5.55734">
        <ele>287.9</ele>
        <time>2020-06-21T12:48:20Z</time>
      </trkpt>
      <trkpt lat="46.64822" lon="5.55732">
        <ele>288.2</ele>
        <time>2020-06-21T12:48:25Z</time>
      </trkpt>
      <trkpt lat="46.64827" lon="5.55729">
        <ele>288.7</ele>
        <time>2020-06-21T12:48:31Z</time>
      </trkpt>
      <trkpt lat="46.64832" lon="5.55727">
        <ele>288.9</ele>
        <time>2020-06-21T12:48:35Z</time>
      </trkpt>
      <trkpt lat="46.64837" lon="5.55725">
        <ele>289.1</ele>
        <time>2020-06-21T12:48:40Z</time>
      </trkpt>
      <trkpt lat="46.64842" lon="5.55724">
        <ele>289.2</ele>
        <time>2020-06-21T12:48:45Z</time>
      </trkpt>
      <trkpt lat="46.64846" lon="5.55722">
        <ele>289.2</ele>
        <time>2020-06-21T12:48:50Z</time>
      </trkpt>
      <trkpt lat="46.64851" lon="5.55721">
        <ele>289.4</ele>
        <time>2020-06-21T12:48:56Z</time>
      </trkpt>
      <trkpt lat="46.64855" lon="5.55718">
        <ele>289.6</ele>
        <time>2020-06-21T12:49:01Z</time>
      </trkpt>
      <trkpt lat="46.64859" lon="5.55715">
        <ele>289.8</ele>
        <time>2020-06-21T12:49:06Z</time>
      </trkpt>
      <trkpt lat="46.64863" lon="5.55712">
        <ele>289.8</ele>
        <time>2020-06-21T12:49:11Z</time>
      </trkpt>
      <trkpt lat="46.64871" lon="5.55705">
        <ele>291.2</ele>
        <time>2020-06-21T12:49:36Z</time>
      </trkpt>
      <trkpt lat="46.64876" lon="5.55703">
        <ele>291.2</ele>
        <time>2020-06-21T12:49:41Z</time>
      </trkpt>
      <trkpt lat="46.64881" lon="5.55706">
        <ele>291.3</ele>
        <time>2020-06-21T12:49:49Z</time>
      </trkpt>
      <trkpt lat="46.64885" lon="5.55709">
        <ele>291.6</ele>
        <time>2020-06-21T12:49:53Z</time>
      </trkpt>
      <trkpt lat="46.64889" lon="5.55711">
        <ele>291.8</ele>
        <time>2020-06-21T12:49:57Z</time>
      </trkpt>
      <trkpt lat="46.64894" lon="5.55714">
        <ele>292.3</ele>
        <time>2020-06-21T12:50:03Z</time>
      </trkpt>
      <trkpt lat="46.64899" lon="5.55718">
        <ele>292.6</ele>
        <time>2020-06-21T12:50:08Z</time>
      </trkpt>
      <trkpt lat="46.64903" lon="5.55721">
        <ele>292.9</ele>
        <time>2020-06-21T12:50:12Z</time>
      </trkpt>
      <trkpt lat="46.64908" lon="5.55721">
        <ele>293.1</ele>
        <time>2020-06-21T12:50:17Z</time>
      </trkpt>
      <trkpt lat="46.64913" lon="5.55723">
        <ele>293.3</ele>
        <time>2020-06-21T12:50:23Z</time>
      </trkpt>
      <trkpt lat="46.64917" lon="5.55725">
        <ele>293.6</ele>
        <time>2020-06-21T12:50:27Z</time>
      </trkpt>
      <trkpt lat="46.64922" lon="5.55726">
        <ele>294</ele>
        <time>2020-06-21T12:50:30Z</time>
      </trkpt>
      <trkpt lat="46.64927" lon="5.55728">
        <ele>294.8</ele>
        <time>2020-06-21T12:50:35Z</time>
      </trkpt>
      <trkpt lat="46.64932" lon="5.5573">
        <ele>295.6</ele>
        <time>2020-06-21T12:50:39Z</time>
      </trkpt>
      <trkpt lat="46.64937" lon="5.55732">
        <ele>296.6</ele>
        <time>2020-06-21T12:50:44Z</time>
      </trkpt>
      <trkpt lat="46.64941" lon="5.55733">
        <ele>297.1</ele>
        <time>2020-06-21T12:50:48Z</time>
      </trkpt>
      <trkpt lat="46.64946" lon="5.55734">
        <ele>297.5</ele>
        <time>2020-06-21T12:50:53Z</time>
      </trkpt>
      <trkpt lat="46.64951" lon="5.55737">
        <ele>297.9</ele>
        <time>2020-06-21T12:51:01Z</time>
      </trkpt>
      <trkpt lat="46.64956" lon="5.55739">
        <ele>298.1</ele>
        <time>2020-06-21T12:51:05Z</time>
      </trkpt>
      <trkpt lat="46.64961" lon="5.55741">
        <ele>298.4</ele>
        <time>2020-06-21T12:51:10Z</time>
      </trkpt>
      <trkpt lat="46.64967" lon="5.55743">
        <ele>298.6</ele>
        <time>2020-06-21T12:51:15Z</time>
      </trkpt>
      <trkpt lat="46.64972" lon="5.55745">
        <ele>298.9</ele>
        <time>2020-06-21T12:51:19Z</time>
      </trkpt>
      <trkpt lat="46.64977" lon="5.55748">
        <ele>299.3</ele>
        <time>2020-06-21T12:51:25Z</time>
      </trkpt>
      <trkpt lat="46.64981" lon="5.5575">
        <ele>299.6</ele>
        <time>2020-06-21T12:51:29Z</time>
      </trkpt>
      <trkpt lat="46.64986" lon="5.55753">
        <ele>299.8</ele>
        <time>2020-06-21T12:51:33Z</time>
      </trkpt>
      <trkpt lat="46.64991" lon="5.55755">
        <ele>300.1</ele>
        <time>2020-06-21T12:51:37Z</time>
      </trkpt>
      <trkpt lat="46.64994" lon="5.55759">
        <ele>300.2</ele>
        <time>2020-06-21T12:51:42Z</time>
      </trkpt>
      <trkpt lat="46.64999" lon="5.55763">
        <ele>300.5</ele>
        <time>2020-06-21T12:51:48Z</time>
      </trkpt>
      <trkpt lat="46.65003" lon="5.55767">
        <ele>300.9</ele>
        <time>2020-06-21T12:51:53Z</time>
      </trkpt>
      <trkpt lat="46.65008" lon="5.55771">
        <ele>301.4</ele>
        <time>2020-06-21T12:51:58Z</time>
      </trkpt>
      <trkpt lat="46.65013" lon="5.55775">
        <ele>301.8</ele>
        <time>2020-06-21T12:52:01Z</time>
      </trkpt>
      <trkpt lat="46.65017" lon="5.5578">
        <ele>302.3</ele>
        <time>2020-06-21T12:52:04Z</time>
      </trkpt>
      <trkpt lat="46.65022" lon="5.55786">
        <ele>302.6</ele>
        <time>2020-06-21T12:52:08Z</time>
      </trkpt>
      <trkpt lat="46.65025" lon="5.5579">
        <ele>302.9</ele>
        <time>2020-06-21T12:52:12Z</time>
      </trkpt>
      <trkpt lat="46.6503" lon="5.55795">
        <ele>303.3</ele>
        <time>2020-06-21T12:52:17Z</time>
      </trkpt>
      <trkpt lat="46.65034" lon="5.55799">
        <ele>303.5</ele>
        <time>2020-06-21T12:52:22Z</time>
      </trkpt>
      <trkpt lat="46.65038" lon="5.55804">
        <ele>303.4</ele>
        <time>2020-06-21T12:52:27Z</time>
      </trkpt>
      <trkpt lat="46.65041" lon="5.5581">
        <ele>303.9</ele>
        <time>2020-06-21T12:52:34Z</time>
      </trkpt>
      <trkpt lat="46.65044" lon="5.55814">
        <ele>304.3</ele>
        <time>2020-06-21T12:52:39Z</time>
      </trkpt>
      <trkpt lat="46.65041" lon="5.55808">
        <ele>305.4</ele>
        <time>2020-06-21T12:52:47Z</time>
      </trkpt>
      <trkpt lat="46.65036" lon="5.55805">
        <ele>306.1</ele>
        <time>2020-06-21T12:52:53Z</time>
      </trkpt>
      <trkpt lat="46.65037" lon="5.55812">
        <ele>307.6</ele>
        <time>2020-06-21T12:53:07Z</time>
      </trkpt>
      <trkpt lat="46.6504" lon="5.55819">
        <ele>308</ele>
        <time>2020-06-21T12:53:11Z</time>
      </trkpt>
      <trkpt lat="46.65043" lon="5.55825">
        <ele>308.5</ele>
        <time>2020-06-21T12:53:17Z</time>
      </trkpt>
      <trkpt lat="46.65047" lon="5.5583">
        <ele>308.6</ele>
        <time>2020-06-21T12:53:22Z</time>
      </trkpt>
      <trkpt lat="46.65051" lon="5.55834">
        <ele>308.6</ele>
        <time>2020-06-21T12:53:28Z</time>
      </trkpt>
      <trkpt lat="46.65056" lon="5.55838">
        <ele>308.6</ele>
        <time>2020-06-21T12:53:35Z</time>
      </trkpt>
      <trkpt lat="46.6506" lon="5.55841">
        <ele>308.5</ele>
        <time>2020-06-21T12:53:40Z</time>
      </trkpt>
      <trkpt lat="46.65065" lon="5.55844">
        <ele>308.1</ele>
        <time>2020-06-21T12:53:46Z</time>
      </trkpt>
      <trkpt lat="46.65069" lon="5.55847">
        <ele>307.7</ele>
        <time>2020-06-21T12:53:52Z</time>
      </trkpt>
      <trkpt lat="46.65074" lon="5.5585">
        <ele>307.7</ele>
        <time>2020-06-21T12:53:57Z</time>
      </trkpt>
      <trkpt lat="46.65078" lon="5.55853">
        <ele>307.7</ele>
        <time>2020-06-21T12:54:03Z</time>
      </trkpt>
      <trkpt lat="46.65081" lon="5.55859">
        <ele>307.2</ele>
        <time>2020-06-21T12:54:12Z</time>
      </trkpt>
      <trkpt lat="46.65095" lon="5.5587">
        <ele>306.5</ele>
        <time>2020-06-21T12:54:30Z</time>
      </trkpt>
      <trkpt lat="46.65099" lon="5.55872">
        <ele>306.7</ele>
        <time>2020-06-21T12:54:34Z</time>
      </trkpt>
      <trkpt lat="46.65104" lon="5.55875">
        <ele>307.1</ele>
        <time>2020-06-21T12:54:39Z</time>
      </trkpt>
      <trkpt lat="46.65108" lon="5.55878">
        <ele>307.7</ele>
        <time>2020-06-21T12:54:46Z</time>
      </trkpt>
      <trkpt lat="46.65112" lon="5.55881">
        <ele>308.1</ele>
        <time>2020-06-21T12:54:51Z</time>
      </trkpt>
      <trkpt lat="46.65117" lon="5.55883">
        <ele>308.4</ele>
        <time>2020-06-21T12:54:54Z</time>
      </trkpt>
      <trkpt lat="46.65121" lon="5.55886">
        <ele>308.8</ele>
        <time>2020-06-21T12:54:58Z</time>
      </trkpt>
      <trkpt lat="46.65125" lon="5.55889">
        <ele>309.1</ele>
        <time>2020-06-21T12:55:02Z</time>
      </trkpt>
      <trkpt lat="46.65131" lon="5.5589">
        <ele>309.4</ele>
        <time>2020-06-21T12:55:06Z</time>
      </trkpt>
      <trkpt lat="46.65135" lon="5.55891">
        <ele>310</ele>
        <time>2020-06-21T12:55:21Z</time>
      </trkpt>
      <trkpt lat="46.65139" lon="5.55895">
        <ele>310.4</ele>
        <time>2020-06-21T12:55:38Z</time>
      </trkpt>
      <trkpt lat="46.65143" lon="5.55899">
        <ele>313.2</ele>
        <time>2020-06-21T12:56:02Z</time>
      </trkpt>
      <trkpt lat="46.65147" lon="5.55902">
        <ele>313.7</ele>
        <time>2020-06-21T12:56:06Z</time>
      </trkpt>
      <trkpt lat="46.65151" lon="5.55905">
        <ele>314.4</ele>
        <time>2020-06-21T12:56:11Z</time>
      </trkpt>
      <trkpt lat="46.65156" lon="5.55909">
        <ele>315.2</ele>
        <time>2020-06-21T12:56:17Z</time>
      </trkpt>
      <trkpt lat="46.6516" lon="5.55913">
        <ele>315.7</ele>
        <time>2020-06-21T12:56:22Z</time>
      </trkpt>
      <trkpt lat="46.65165" lon="5.55916">
        <ele>316</ele>
        <time>2020-06-21T12:56:27Z</time>
      </trkpt>
      <trkpt lat="46.6517" lon="5.55919">
        <ele>316.2</ele>
        <time>2020-06-21T12:56:32Z</time>
      </trkpt>
      <trkpt lat="46.65174" lon="5.55923">
        <ele>316.8</ele>
        <time>2020-06-21T12:56:38Z</time>
      </trkpt>
      <trkpt lat="46.65178" lon="5.55927">
        <ele>317.6</ele>
        <time>2020-06-21T12:56:45Z</time>
      </trkpt>
      <trkpt lat="46.65183" lon="5.5593">
        <ele>318.4</ele>
        <time>2020-06-21T12:56:51Z</time>
      </trkpt>
      <trkpt lat="46.65187" lon="5.55934">
        <ele>319.1</ele>
        <time>2020-06-21T12:56:55Z</time>
      </trkpt>
      <trkpt lat="46.6519" lon="5.5594">
        <ele>319.8</ele>
        <time>2020-06-21T12:57:00Z</time>
      </trkpt>
      <trkpt lat="46.65194" lon="5.55945">
        <ele>320.4</ele>
        <time>2020-06-21T12:57:06Z</time>
      </trkpt>
      <trkpt lat="46.65198" lon="5.55949">
        <ele>320.8</ele>
        <time>2020-06-21T12:57:11Z</time>
      </trkpt>
      <trkpt lat="46.65201" lon="5.55953">
        <ele>321.2</ele>
        <time>2020-06-21T12:57:17Z</time>
      </trkpt>
      <trkpt lat="46.65206" lon="5.55956">
        <ele>321.7</ele>
        <time>2020-06-21T12:57:23Z</time>
      </trkpt>
      <trkpt lat="46.6521" lon="5.5596">
        <ele>322</ele>
        <time>2020-06-21T12:57:27Z</time>
      </trkpt>
      <trkpt lat="46.65214" lon="5.55965">
        <ele>322</ele>
        <time>2020-06-21T12:57:33Z</time>
      </trkpt>
      <trkpt lat="46.65218" lon="5.5597">
        <ele>321.9</ele>
        <time>2020-06-21T12:57:37Z</time>
      </trkpt>
      <trkpt lat="46.65227" lon="5.55979">
        <ele>321.5</ele>
        <time>2020-06-21T12:57:48Z</time>
      </trkpt>
      <trkpt lat="46.65231" lon="5.55985">
        <ele>321.4</ele>
        <time>2020-06-21T12:57:53Z</time>
      </trkpt>
      <trkpt lat="46.65235" lon="5.55989">
        <ele>321.4</ele>
        <time>2020-06-21T12:57:56Z</time>
      </trkpt>
      <trkpt lat="46.6524" lon="5.55992">
        <ele>321.5</ele>
        <time>2020-06-21T12:58:03Z</time>
      </trkpt>
      <trkpt lat="46.65244" lon="5.55996">
        <ele>321.7</ele>
        <time>2020-06-21T12:58:09Z</time>
      </trkpt>
      <trkpt lat="46.65249" lon="5.56001">
        <ele>322</ele>
        <time>2020-06-21T12:58:13Z</time>
      </trkpt>
      <trkpt lat="46.65254" lon="5.56005">
        <ele>322.4</ele>
        <time>2020-06-21T12:58:17Z</time>
      </trkpt>
      <trkpt lat="46.65253" lon="5.56009">
        <ele>322.8</ele>
        <time>2020-06-21T12:58:52Z</time>
      </trkpt>
      <trkpt lat="46.65257" lon="5.56015">
        <ele>322.1</ele>
        <time>2020-06-21T12:58:56Z</time>
      </trkpt>
      <trkpt lat="46.6526" lon="5.5602">
        <ele>321.7</ele>
        <time>2020-06-21T12:59:00Z</time>
      </trkpt>
      <trkpt lat="46.65264" lon="5.56027">
        <ele>321.3</ele>
        <time>2020-06-21T12:59:05Z</time>
      </trkpt>
      <trkpt lat="46.65268" lon="5.56033">
        <ele>321.1</ele>
        <time>2020-06-21T12:59:09Z</time>
      </trkpt>
      <trkpt lat="46.65271" lon="5.56038">
        <ele>321.3</ele>
        <time>2020-06-21T12:59:14Z</time>
      </trkpt>
      <trkpt lat="46.65275" lon="5.56043">
        <ele>321.4</ele>
        <time>2020-06-21T12:59:17Z</time>
      </trkpt>
      <trkpt lat="46.65278" lon="5.56049">
        <ele>321.7</ele>
        <time>2020-06-21T12:59:21Z</time>
      </trkpt>
      <trkpt lat="46.65281" lon="5.56056">
        <ele>322.9</ele>
        <time>2020-06-21T12:59:34Z</time>
      </trkpt>
      <trkpt lat="46.65283" lon="5.56063">
        <ele>323.4</ele>
        <time>2020-06-21T12:59:40Z</time>
      </trkpt>
      <trkpt lat="46.65286" lon="5.56067">
        <ele>323.6</ele>
        <time>2020-06-21T12:59:44Z</time>
      </trkpt>
      <trkpt lat="46.6529" lon="5.56073">
        <ele>323.8</ele>
        <time>2020-06-21T12:59:49Z</time>
      </trkpt>
      <trkpt lat="46.65294" lon="5.56087">
        <ele>324</ele>
        <time>2020-06-21T13:00:01Z</time>
      </trkpt>
      <trkpt lat="46.65295" lon="5.56095">
        <ele>324</ele>
        <time>2020-06-21T13:00:07Z</time>
      </trkpt>
      <trkpt lat="46.65299" lon="5.561">
        <ele>324</ele>
        <time>2020-06-21T13:00:12Z</time>
      </trkpt>
      <trkpt lat="46.65304" lon="5.56104">
        <ele>324.2</ele>
        <time>2020-06-21T13:00:16Z</time>
      </trkpt>
      <trkpt lat="46.65309" lon="5.56108">
        <ele>324.6</ele>
        <time>2020-06-21T13:00:20Z</time>
      </trkpt>
      <trkpt lat="46.65313" lon="5.56111">
        <ele>325.1</ele>
        <time>2020-06-21T13:00:25Z</time>
      </trkpt>
      <trkpt lat="46.65317" lon="5.56115">
        <ele>325.6</ele>
        <time>2020-06-21T13:00:31Z</time>
      </trkpt>
      <trkpt lat="46.65321" lon="5.56118">
        <ele>326</ele>
        <time>2020-06-21T13:00:36Z</time>
      </trkpt>
      <trkpt lat="46.65325" lon="5.56122">
        <ele>326.4</ele>
        <time>2020-06-21T13:00:41Z</time>
      </trkpt>
      <trkpt lat="46.65328" lon="5.56128">
        <ele>327.2</ele>
        <time>2020-06-21T13:00:49Z</time>
      </trkpt>
      <trkpt lat="46.65332" lon="5.56133">
        <ele>327.5</ele>
        <time>2020-06-21T13:00:58Z</time>
      </trkpt>
      <trkpt lat="46.65335" lon="5.56139">
        <ele>327.6</ele>
        <time>2020-06-21T13:01:04Z</time>
      </trkpt>
      <trkpt lat="46.65339" lon="5.56143">
        <ele>327.7</ele>
        <time>2020-06-21T13:01:09Z</time>
      </trkpt>
      <trkpt lat="46.65344" lon="5.56148">
        <ele>328.1</ele>
        <time>2020-06-21T13:01:14Z</time>
      </trkpt>
      <trkpt lat="46.65348" lon="5.56152">
        <ele>328.5</ele>
        <time>2020-06-21T13:01:18Z</time>
      </trkpt>
      <trkpt lat="46.65351" lon="5.56157">
        <ele>329.1</ele>
        <time>2020-06-21T13:01:22Z</time>
      </trkpt>
      <trkpt lat="46.65354" lon="5.56163">
        <ele>330</ele>
        <time>2020-06-21T13:01:28Z</time>
      </trkpt>
      <trkpt lat="46.65358" lon="5.56167">
        <ele>330.8</ele>
        <time>2020-06-21T13:01:33Z</time>
      </trkpt>
      <trkpt lat="46.65362" lon="5.56171">
        <ele>332.3</ele>
        <time>2020-06-21T13:01:40Z</time>
      </trkpt>
      <trkpt lat="46.65367" lon="5.56175">
        <ele>333.2</ele>
        <time>2020-06-21T13:01:44Z</time>
      </trkpt>
      <trkpt lat="46.65371" lon="5.56179">
        <ele>334</ele>
        <time>2020-06-21T13:01:48Z</time>
      </trkpt>
      <trkpt lat="46.65375" lon="5.56184">
        <ele>335.1</ele>
        <time>2020-06-21T13:01:53Z</time>
      </trkpt>
      <trkpt lat="46.65378" lon="5.56188">
        <ele>335.7</ele>
        <time>2020-06-21T13:01:56Z</time>
      </trkpt>
      <trkpt lat="46.65382" lon="5.56194">
        <ele>336.2</ele>
        <time>2020-06-21T13:02:00Z</time>
      </trkpt>
      <trkpt lat="46.65385" lon="5.562">
        <ele>336.6</ele>
        <time>2020-06-21T13:02:06Z</time>
      </trkpt>
      <trkpt lat="46.6539" lon="5.56204">
        <ele>336.8</ele>
        <time>2020-06-21T13:02:10Z</time>
      </trkpt>
      <trkpt lat="46.65394" lon="5.56207">
        <ele>337.1</ele>
        <time>2020-06-21T13:02:14Z</time>
      </trkpt>
      <trkpt lat="46.65399" lon="5.5621">
        <ele>337.7</ele>
        <time>2020-06-21T13:02:19Z</time>
      </trkpt>
      <trkpt lat="46.65404" lon="5.56214">
        <ele>338.3</ele>
        <time>2020-06-21T13:02:23Z</time>
      </trkpt>
      <trkpt lat="46.65408" lon="5.56217">
        <ele>338.9</ele>
        <time>2020-06-21T13:02:27Z</time>
      </trkpt>
      <trkpt lat="46.65412" lon="5.56221">
        <ele>339.6</ele>
        <time>2020-06-21T13:02:32Z</time>
      </trkpt>
      <trkpt lat="46.65416" lon="5.56226">
        <ele>340.3</ele>
        <time>2020-06-21T13:02:38Z</time>
      </trkpt>
      <trkpt lat="46.6542" lon="5.56229">
        <ele>340.9</ele>
        <time>2020-06-21T13:02:42Z</time>
      </trkpt>
      <trkpt lat="46.65425" lon="5.56232">
        <ele>341.3</ele>
        <time>2020-06-21T13:02:46Z</time>
      </trkpt>
      <trkpt lat="46.65429" lon="5.56235">
        <ele>341.6</ele>
        <time>2020-06-21T13:02:51Z</time>
      </trkpt>
      <trkpt lat="46.65433" lon="5.5624">
        <ele>341.6</ele>
        <time>2020-06-21T13:02:57Z</time>
      </trkpt>
      <trkpt lat="46.65437" lon="5.56245">
        <ele>341.5</ele>
        <time>2020-06-21T13:03:01Z</time>
      </trkpt>
      <trkpt lat="46.6544" lon="5.56249">
        <ele>341.6</ele>
        <time>2020-06-21T13:03:06Z</time>
      </trkpt>
      <trkpt lat="46.65445" lon="5.56253">
        <ele>341.8</ele>
        <time>2020-06-21T13:03:12Z</time>
      </trkpt>
      <trkpt lat="46.65448" lon="5.56258">
        <ele>342.4</ele>
        <time>2020-06-21T13:03:19Z</time>
      </trkpt>
      <trkpt lat="46.65452" lon="5.56262">
        <ele>342.7</ele>
        <time>2020-06-21T13:03:24Z</time>
      </trkpt>
      <trkpt lat="46.65457" lon="5.56266">
        <ele>342.8</ele>
        <time>2020-06-21T13:03:30Z</time>
      </trkpt>
      <trkpt lat="46.65461" lon="5.56269">
        <ele>342.9</ele>
        <time>2020-06-21T13:03:37Z</time>
      </trkpt>
      <trkpt lat="46.65467" lon="5.56272">
        <ele>343.3</ele>
        <time>2020-06-21T13:03:42Z</time>
      </trkpt>
      <trkpt lat="46.65472" lon="5.56273">
        <ele>343.6</ele>
        <time>2020-06-21T13:03:46Z</time>
      </trkpt>
      <trkpt lat="46.65477" lon="5.56274">
        <ele>343.9</ele>
        <time>2020-06-21T13:03:49Z</time>
      </trkpt>
      <trkpt lat="46.65482" lon="5.56275">
        <ele>344.3</ele>
        <time>2020-06-21T13:03:52Z</time>
      </trkpt>
      <trkpt lat="46.65487" lon="5.56276">
        <ele>344.9</ele>
        <time>2020-06-21T13:03:57Z</time>
      </trkpt>
      <trkpt lat="46.65492" lon="5.56278">
        <ele>345.6</ele>
        <time>2020-06-21T13:04:02Z</time>
      </trkpt>
      <trkpt lat="46.65496" lon="5.56279">
        <ele>346.5</ele>
        <time>2020-06-21T13:04:07Z</time>
      </trkpt>
      <trkpt lat="46.65501" lon="5.5628">
        <ele>347.4</ele>
        <time>2020-06-21T13:04:13Z</time>
      </trkpt>
      <trkpt lat="46.65505" lon="5.56283">
        <ele>348.9</ele>
        <time>2020-06-21T13:04:39Z</time>
      </trkpt>
      <trkpt lat="46.6551" lon="5.56283">
        <ele>348.1</ele>
        <time>2020-06-21T13:04:50Z</time>
      </trkpt>
      <trkpt lat="46.65516" lon="5.5628">
        <ele>348</ele>
        <time>2020-06-21T13:04:55Z</time>
      </trkpt>
      <trkpt lat="46.65521" lon="5.56277">
        <ele>348</ele>
        <time>2020-06-21T13:04:58Z</time>
      </trkpt>
      <trkpt lat="46.65525" lon="5.56275">
        <ele>348.3</ele>
        <time>2020-06-21T13:05:03Z</time>
      </trkpt>
      <trkpt lat="46.6553" lon="5.56274">
        <ele>349.1</ele>
        <time>2020-06-21T13:05:09Z</time>
      </trkpt>
      <trkpt lat="46.6554" lon="5.56271">
        <ele>350.8</ele>
        <time>2020-06-21T13:05:21Z</time>
      </trkpt>
      <trkpt lat="46.65545" lon="5.5627">
        <ele>351</ele>
        <time>2020-06-21T13:05:25Z</time>
      </trkpt>
      <trkpt lat="46.65556" lon="5.56268">
        <ele>350.7</ele>
        <time>2020-06-21T13:05:37Z</time>
      </trkpt>
      <trkpt lat="46.65561" lon="5.56267">
        <ele>349.8</ele>
        <time>2020-06-21T13:05:43Z</time>
      </trkpt>
      <trkpt lat="46.65565" lon="5.56266">
        <ele>349.1</ele>
        <time>2020-06-21T13:05:47Z</time>
      </trkpt>
      <trkpt lat="46.6557" lon="5.56265">
        <ele>347.8</ele>
        <time>2020-06-21T13:05:53Z</time>
      </trkpt>
      <trkpt lat="46.65575" lon="5.56264">
        <ele>346.9</ele>
        <time>2020-06-21T13:05:58Z</time>
      </trkpt>
      <trkpt lat="46.65579" lon="5.56263">
        <ele>346.2</ele>
        <time>2020-06-21T13:06:02Z</time>
      </trkpt>
      <trkpt lat="46.65584" lon="5.56262">
        <ele>345.2</ele>
        <time>2020-06-21T13:06:09Z</time>
      </trkpt>
      <trkpt lat="46.65589" lon="5.56261">
        <ele>344.3</ele>
        <time>2020-06-21T13:06:15Z</time>
      </trkpt>
      <trkpt lat="46.65612" lon="5.56252">
        <ele>339.8</ele>
        <time>2020-06-21T13:06:45Z</time>
      </trkpt>
      <trkpt lat="46.65618" lon="5.5625">
        <ele>339.8</ele>
        <time>2020-06-21T13:06:49Z</time>
      </trkpt>
      <trkpt lat="46.65625" lon="5.56238">
        <ele>340.4</ele>
        <time>2020-06-21T13:06:59Z</time>
      </trkpt>
      <trkpt lat="46.65637" lon="5.56229">
        <ele>339.7</ele>
        <time>2020-06-21T13:09:16Z</time>
      </trkpt>
      <trkpt lat="46.6564" lon="5.56223">
        <ele>339.2</ele>
        <time>2020-06-21T13:09:19Z</time>
      </trkpt>
      <trkpt lat="46.65641" lon="5.56216">
        <ele>338.3</ele>
        <time>2020-06-21T13:09:23Z</time>
      </trkpt>
      <trkpt lat="46.6564" lon="5.56208">
        <ele>337.4</ele>
        <time>2020-06-21T13:09:26Z</time>
      </trkpt>
      <trkpt lat="46.65638" lon="5.56202">
        <ele>336.3</ele>
        <time>2020-06-21T13:09:30Z</time>
      </trkpt>
      <trkpt lat="46.65635" lon="5.56196">
        <ele>334.5</ele>
        <time>2020-06-21T13:09:37Z</time>
      </trkpt>
      <trkpt lat="46.65632" lon="5.56185">
        <ele>330.4</ele>
        <time>2020-06-21T13:09:49Z</time>
      </trkpt>
      <trkpt lat="46.65629" lon="5.56179">
        <ele>329.4</ele>
        <time>2020-06-21T13:09:53Z</time>
      </trkpt>
      <trkpt lat="46.65626" lon="5.56174">
        <ele>328.4</ele>
        <time>2020-06-21T13:09:57Z</time>
      </trkpt>
      <trkpt lat="46.65623" lon="5.56169">
        <ele>328.1</ele>
        <time>2020-06-21T13:09:59Z</time>
      </trkpt>
      <trkpt lat="46.65619" lon="5.56163">
        <ele>327.7</ele>
        <time>2020-06-21T13:10:03Z</time>
      </trkpt>
      <trkpt lat="46.65615" lon="5.5616">
        <ele>327.7</ele>
        <time>2020-06-21T13:10:08Z</time>
      </trkpt>
      <trkpt lat="46.65603" lon="5.56156">
        <ele>328.6</ele>
        <time>2020-06-21T13:10:24Z</time>
      </trkpt>
      <trkpt lat="46.65598" lon="5.56153">
        <ele>329</ele>
        <time>2020-06-21T13:10:30Z</time>
      </trkpt>
      <trkpt lat="46.65594" lon="5.5615">
        <ele>329.8</ele>
        <time>2020-06-21T13:10:40Z</time>
      </trkpt>
      <trkpt lat="46.6559" lon="5.56147">
        <ele>330.6</ele>
        <time>2020-06-21T13:10:45Z</time>
      </trkpt>
      <trkpt lat="46.65585" lon="5.56144">
        <ele>331</ele>
        <time>2020-06-21T13:10:49Z</time>
      </trkpt>
      <trkpt lat="46.65581" lon="5.56141">
        <ele>331.8</ele>
        <time>2020-06-21T13:10:54Z</time>
      </trkpt>
      <trkpt lat="46.65573" lon="5.56134">
        <ele>333.5</ele>
        <time>2020-06-21T13:11:04Z</time>
      </trkpt>
      <trkpt lat="46.65569" lon="5.56131">
        <ele>334.1</ele>
        <time>2020-06-21T13:11:10Z</time>
      </trkpt>
      <trkpt lat="46.65564" lon="5.56127">
        <ele>334.9</ele>
        <time>2020-06-21T13:11:16Z</time>
      </trkpt>
      <trkpt lat="46.6556" lon="5.56123">
        <ele>335.7</ele>
        <time>2020-06-21T13:11:21Z</time>
      </trkpt>
      <trkpt lat="46.65555" lon="5.5612">
        <ele>336.3</ele>
        <time>2020-06-21T13:11:26Z</time>
      </trkpt>
      <trkpt lat="46.65552" lon="5.56115">
        <ele>336.7</ele>
        <time>2020-06-21T13:11:30Z</time>
      </trkpt>
      <trkpt lat="46.65548" lon="5.5611">
        <ele>337</ele>
        <time>2020-06-21T13:11:34Z</time>
      </trkpt>
      <trkpt lat="46.65544" lon="5.56105">
        <ele>337.2</ele>
        <time>2020-06-21T13:11:39Z</time>
      </trkpt>
      <trkpt lat="46.6554" lon="5.56101">
        <ele>337.2</ele>
        <time>2020-06-21T13:11:44Z</time>
      </trkpt>
      <trkpt lat="46.65537" lon="5.56096">
        <ele>337.1</ele>
        <time>2020-06-21T13:11:49Z</time>
      </trkpt>
      <trkpt lat="46.65533" lon="5.56092">
        <ele>337.1</ele>
        <time>2020-06-21T13:11:56Z</time>
      </trkpt>
      <trkpt lat="46.65528" lon="5.5609">
        <ele>337.4</ele>
        <time>2020-06-21T13:12:00Z</time>
      </trkpt>
      <trkpt lat="46.65523" lon="5.56089">
        <ele>337.6</ele>
        <time>2020-06-21T13:12:02Z</time>
      </trkpt>
      <trkpt lat="46.65518" lon="5.56087">
        <ele>338</ele>
        <time>2020-06-21T13:12:05Z</time>
      </trkpt>
      <trkpt lat="46.65509" lon="5.56083">
        <ele>339.9</ele>
        <time>2020-06-21T13:12:17Z</time>
      </trkpt>
      <trkpt lat="46.65506" lon="5.56078">
        <ele>341.7</ele>
        <time>2020-06-21T13:12:24Z</time>
      </trkpt>
      <trkpt lat="46.655" lon="5.56069">
        <ele>345</ele>
        <time>2020-06-21T13:12:33Z</time>
      </trkpt>
      <trkpt lat="46.65497" lon="5.56065">
        <ele>345.6</ele>
        <time>2020-06-21T13:12:37Z</time>
      </trkpt>
      <trkpt lat="46.65492" lon="5.56058">
        <ele>345.9</ele>
        <time>2020-06-21T13:12:39Z</time>
      </trkpt>
      <trkpt lat="46.65488" lon="5.56053">
        <ele>346.3</ele>
        <time>2020-06-21T13:12:41Z</time>
      </trkpt>
      <trkpt lat="46.65484" lon="5.56048">
        <ele>347.3</ele>
        <time>2020-06-21T13:12:46Z</time>
      </trkpt>
      <trkpt lat="46.65479" lon="5.56036">
        <ele>351.4</ele>
        <time>2020-06-21T13:13:04Z</time>
      </trkpt>
      <trkpt lat="46.65475" lon="5.56032">
        <ele>352.5</ele>
        <time>2020-06-21T13:13:12Z</time>
      </trkpt>
      <trkpt lat="46.6547" lon="5.5603">
        <ele>352.9</ele>
        <time>2020-06-21T13:13:16Z</time>
      </trkpt>
      <trkpt lat="46.65465" lon="5.56026">
        <ele>353.3</ele>
        <time>2020-06-21T13:13:20Z</time>
      </trkpt>
      <trkpt lat="46.65461" lon="5.56022">
        <ele>353.5</ele>
        <time>2020-06-21T13:13:28Z</time>
      </trkpt>
      <trkpt lat="46.65456" lon="5.56017">
        <ele>354.2</ele>
        <time>2020-06-21T13:13:37Z</time>
      </trkpt>
      <trkpt lat="46.65455" lon="5.5601">
        <ele>354.3</ele>
        <time>2020-06-21T13:13:39Z</time>
      </trkpt>
      <trkpt lat="46.65453" lon="5.56003">
        <ele>354.5</ele>
        <time>2020-06-21T13:13:43Z</time>
      </trkpt>
      <trkpt lat="46.65449" lon="5.55997">
        <ele>354.6</ele>
        <time>2020-06-21T13:13:46Z</time>
      </trkpt>
      <trkpt lat="46.65445" lon="5.55992">
        <ele>354.5</ele>
        <time>2020-06-21T13:13:49Z</time>
      </trkpt>
      <trkpt lat="46.65441" lon="5.55988">
        <ele>354.3</ele>
        <time>2020-06-21T13:13:51Z</time>
      </trkpt>
      <trkpt lat="46.65437" lon="5.55985">
        <ele>353.7</ele>
        <time>2020-06-21T13:13:55Z</time>
      </trkpt>
      <trkpt lat="46.65433" lon="5.55982">
        <ele>352.4</ele>
        <time>2020-06-21T13:14:04Z</time>
      </trkpt>
      <trkpt lat="46.65427" lon="5.55977">
        <ele>351.6</ele>
        <time>2020-06-21T13:14:11Z</time>
      </trkpt>
      <trkpt lat="46.65424" lon="5.55972">
        <ele>351.4</ele>
        <time>2020-06-21T13:14:13Z</time>
      </trkpt>
      <trkpt lat="46.65421" lon="5.55965">
        <ele>351.3</ele>
        <time>2020-06-21T13:14:15Z</time>
      </trkpt>
      <trkpt lat="46.65416" lon="5.55961">
        <ele>351.3</ele>
        <time>2020-06-21T13:14:18Z</time>
      </trkpt>
      <trkpt lat="46.65412" lon="5.55956">
        <ele>351.3</ele>
        <time>2020-06-21T13:14:25Z</time>
      </trkpt>
      <trkpt lat="46.65409" lon="5.55951">
        <ele>351.2</ele>
        <time>2020-06-21T13:14:27Z</time>
      </trkpt>
      <trkpt lat="46.65407" lon="5.55945">
        <ele>351.1</ele>
        <time>2020-06-21T13:14:30Z</time>
      </trkpt>
      <trkpt lat="46.654" lon="5.55936">
        <ele>349.7</ele>
        <time>2020-06-21T13:15:04Z</time>
      </trkpt>
      <trkpt lat="46.65395" lon="5.55933">
        <ele>349.3</ele>
        <time>2020-06-21T13:15:09Z</time>
      </trkpt>
      <trkpt lat="46.6539" lon="5.5593">
        <ele>349.5</ele>
        <time>2020-06-21T13:15:14Z</time>
      </trkpt>
      <trkpt lat="46.65385" lon="5.55927">
        <ele>349.9</ele>
        <time>2020-06-21T13:15:20Z</time>
      </trkpt>
      <trkpt lat="46.65381" lon="5.55924">
        <ele>350.6</ele>
        <time>2020-06-21T13:15:24Z</time>
      </trkpt>
      <trkpt lat="46.65375" lon="5.55921">
        <ele>352.3</ele>
        <time>2020-06-21T13:15:41Z</time>
      </trkpt>
      <trkpt lat="46.65371" lon="5.55918">
        <ele>352.9</ele>
        <time>2020-06-21T13:15:51Z</time>
      </trkpt>
      <trkpt lat="46.65367" lon="5.55912">
        <ele>354.2</ele>
        <time>2020-06-21T13:16:04Z</time>
      </trkpt>
      <trkpt lat="46.65363" lon="5.55906">
        <ele>354.2</ele>
        <time>2020-06-21T13:16:08Z</time>
      </trkpt>
      <trkpt lat="46.65353" lon="5.55888">
        <ele>353.4</ele>
        <time>2020-06-21T13:16:21Z</time>
      </trkpt>
      <trkpt lat="46.65352" lon="5.55882">
        <ele>352.9</ele>
        <time>2020-06-21T13:16:29Z</time>
      </trkpt>
      <trkpt lat="46.65349" lon="5.55876">
        <ele>353.3</ele>
        <time>2020-06-21T13:17:07Z</time>
      </trkpt>
      <trkpt lat="46.65346" lon="5.5587">
        <ele>352.9</ele>
        <time>2020-06-21T13:17:13Z</time>
      </trkpt>
      <trkpt lat="46.65343" lon="5.55864">
        <ele>352.5</ele>
        <time>2020-06-21T13:17:18Z</time>
      </trkpt>
      <trkpt lat="46.65334" lon="5.55845">
        <ele>354.6</ele>
        <time>2020-06-21T13:18:31Z</time>
      </trkpt>
      <trkpt lat="46.6533" lon="5.5584">
        <ele>354.7</ele>
        <time>2020-06-21T13:18:35Z</time>
      </trkpt>
      <trkpt lat="46.65322" lon="5.5583">
        <ele>356.2</ele>
        <time>2020-06-21T13:18:50Z</time>
      </trkpt>
      <trkpt lat="46.65319" lon="5.55825">
        <ele>356</ele>
        <time>2020-06-21T13:18:53Z</time>
      </trkpt>
      <trkpt lat="46.65317" lon="5.55819">
        <ele>355.9</ele>
        <time>2020-06-21T13:18:57Z</time>
      </trkpt>
      <trkpt lat="46.65313" lon="5.55804">
        <ele>354.2</ele>
        <time>2020-06-21T13:19:14Z</time>
      </trkpt>
      <trkpt lat="46.65311" lon="5.55797">
        <ele>354.1</ele>
        <time>2020-06-21T13:19:18Z</time>
      </trkpt>
      <trkpt lat="46.65308" lon="5.55791">
        <ele>353.8</ele>
        <time>2020-06-21T13:19:23Z</time>
      </trkpt>
      <trkpt lat="46.65305" lon="5.55785">
        <ele>353.3</ele>
        <time>2020-06-21T13:19:30Z</time>
      </trkpt>
      <trkpt lat="46.65301" lon="5.55768">
        <ele>353.1</ele>
        <time>2020-06-21T13:19:41Z</time>
      </trkpt>
      <trkpt lat="46.653" lon="5.55762">
        <ele>353.1</ele>
        <time>2020-06-21T13:19:45Z</time>
      </trkpt>
      <trkpt lat="46.65297" lon="5.55755">
        <ele>353.2</ele>
        <time>2020-06-21T13:19:50Z</time>
      </trkpt>
      <trkpt lat="46.65288" lon="5.5574">
        <ele>353.3</ele>
        <time>2020-06-21T13:20:03Z</time>
      </trkpt>
      <trkpt lat="46.65282" lon="5.55727">
        <ele>353.3</ele>
        <time>2020-06-21T13:20:13Z</time>
      </trkpt>
      <trkpt lat="46.65279" lon="5.55722">
        <ele>352.6</ele>
        <time>2020-06-21T13:20:20Z</time>
      </trkpt>
      <trkpt lat="46.65272" lon="5.55708">
        <ele>343.3</ele>
        <time>2020-06-21T13:21:25Z</time>
      </trkpt>
      <trkpt lat="46.65263" lon="5.55704">
        <ele>340.1</ele>
        <time>2020-06-21T13:21:39Z</time>
      </trkpt>
      <trkpt lat="46.6526" lon="5.557">
        <ele>339.7</ele>
        <time>2020-06-21T13:21:43Z</time>
      </trkpt>
      <trkpt lat="46.65256" lon="5.55695">
        <ele>339.1</ele>
        <time>2020-06-21T13:21:48Z</time>
      </trkpt>
      <trkpt lat="46.65255" lon="5.55688">
        <ele>338.4</ele>
        <time>2020-06-21T13:21:55Z</time>
      </trkpt>
      <trkpt lat="46.6525" lon="5.55684">
        <ele>336.6</ele>
        <time>2020-06-21T13:22:03Z</time>
      </trkpt>
      <trkpt lat="46.65246" lon="5.55681">
        <ele>333.5</ele>
        <time>2020-06-21T13:22:24Z</time>
      </trkpt>
      <trkpt lat="46.65242" lon="5.55676">
        <ele>332</ele>
        <time>2020-06-21T13:22:30Z</time>
      </trkpt>
      <trkpt lat="46.65238" lon="5.55672">
        <ele>331.6</ele>
        <time>2020-06-21T13:22:34Z</time>
      </trkpt>
      <trkpt lat="46.65234" lon="5.55668">
        <ele>331.2</ele>
        <time>2020-06-21T13:22:39Z</time>
      </trkpt>
      <trkpt lat="46.65229" lon="5.55665">
        <ele>330.4</ele>
        <time>2020-06-21T13:22:45Z</time>
      </trkpt>
      <trkpt lat="46.65224" lon="5.55662">
        <ele>329.8</ele>
        <time>2020-06-21T13:22:50Z</time>
      </trkpt>
      <trkpt lat="46.6522" lon="5.55658">
        <ele>329.4</ele>
        <time>2020-06-21T13:22:55Z</time>
      </trkpt>
      <trkpt lat="46.65216" lon="5.55655">
        <ele>329</ele>
        <time>2020-06-21T13:23:00Z</time>
      </trkpt>
      <trkpt lat="46.65212" lon="5.55651">
        <ele>328.5</ele>
        <time>2020-06-21T13:23:05Z</time>
      </trkpt>
      <trkpt lat="46.65207" lon="5.55648">
        <ele>328.1</ele>
        <time>2020-06-21T13:23:10Z</time>
      </trkpt>
      <trkpt lat="46.65202" lon="5.55644">
        <ele>327.7</ele>
        <time>2020-06-21T13:23:15Z</time>
      </trkpt>
      <trkpt lat="46.65197" lon="5.55643">
        <ele>327.7</ele>
        <time>2020-06-21T13:23:20Z</time>
      </trkpt>
      <trkpt lat="46.65192" lon="5.5564">
        <ele>328.2</ele>
        <time>2020-06-21T13:23:26Z</time>
      </trkpt>
      <trkpt lat="46.65188" lon="5.55636">
        <ele>328.4</ele>
        <time>2020-06-21T13:23:31Z</time>
      </trkpt>
      <trkpt lat="46.65185" lon="5.55631">
        <ele>328.1</ele>
        <time>2020-06-21T13:23:36Z</time>
      </trkpt>
      <trkpt lat="46.65182" lon="5.55625">
        <ele>327.6</ele>
        <time>2020-06-21T13:23:41Z</time>
      </trkpt>
      <trkpt lat="46.65178" lon="5.55619">
        <ele>326.6</ele>
        <time>2020-06-21T13:23:46Z</time>
      </trkpt>
      <trkpt lat="46.65174" lon="5.55614">
        <ele>325</ele>
        <time>2020-06-21T13:23:51Z</time>
      </trkpt>
      <trkpt lat="46.6517" lon="5.55608">
        <ele>322.9</ele>
        <time>2020-06-21T13:23:57Z</time>
      </trkpt>
      <trkpt lat="46.65166" lon="5.55604">
        <ele>321.6</ele>
        <time>2020-06-21T13:24:02Z</time>
      </trkpt>
      <trkpt lat="46.65162" lon="5.556">
        <ele>320.7</ele>
        <time>2020-06-21T13:24:06Z</time>
      </trkpt>
      <trkpt lat="46.65158" lon="5.55598">
        <ele>319.9</ele>
        <time>2020-06-21T13:24:10Z</time>
      </trkpt>
      <trkpt lat="46.65153" lon="5.55595">
        <ele>319.2</ele>
        <time>2020-06-21T13:24:14Z</time>
      </trkpt>
      <trkpt lat="46.65149" lon="5.55592">
        <ele>318.8</ele>
        <time>2020-06-21T13:24:18Z</time>
      </trkpt>
      <trkpt lat="46.65145" lon="5.55587">
        <ele>318.3</ele>
        <time>2020-06-21T13:24:23Z</time>
      </trkpt>
      <trkpt lat="46.65139" lon="5.55586">
        <ele>317.9</ele>
        <time>2020-06-21T13:24:28Z</time>
      </trkpt>
      <trkpt lat="46.65131" lon="5.55578">
        <ele>317.7</ele>
        <time>2020-06-21T13:24:38Z</time>
      </trkpt>
      <trkpt lat="46.65127" lon="5.55573">
        <ele>318.2</ele>
        <time>2020-06-21T13:24:43Z</time>
      </trkpt>
      <trkpt lat="46.65123" lon="5.55568">
        <ele>318.9</ele>
        <time>2020-06-21T13:24:47Z</time>
      </trkpt>
      <trkpt lat="46.6512" lon="5.55562">
        <ele>319.8</ele>
        <time>2020-06-21T13:24:52Z</time>
      </trkpt>
      <trkpt lat="46.65116" lon="5.55556">
        <ele>320.6</ele>
        <time>2020-06-21T13:24:56Z</time>
      </trkpt>
      <trkpt lat="46.65112" lon="5.5555">
        <ele>321.2</ele>
        <time>2020-06-21T13:25:00Z</time>
      </trkpt>
      <trkpt lat="46.65109" lon="5.55545">
        <ele>322.7</ele>
        <time>2020-06-21T13:25:08Z</time>
      </trkpt>
      <trkpt lat="46.65106" lon="5.55539">
        <ele>323.3</ele>
        <time>2020-06-21T13:25:13Z</time>
      </trkpt>
      <trkpt lat="46.65104" lon="5.55533">
        <ele>323.4</ele>
        <time>2020-06-21T13:25:17Z</time>
      </trkpt>
      <trkpt lat="46.65101" lon="5.55526">
        <ele>323.1</ele>
        <time>2020-06-21T13:25:22Z</time>
      </trkpt>
      <trkpt lat="46.65098" lon="5.5552">
        <ele>322.5</ele>
        <time>2020-06-21T13:25:27Z</time>
      </trkpt>
      <trkpt lat="46.65095" lon="5.55514">
        <ele>321.7</ele>
        <time>2020-06-21T13:25:32Z</time>
      </trkpt>
      <trkpt lat="46.65092" lon="5.55509">
        <ele>321</ele>
        <time>2020-06-21T13:25:37Z</time>
      </trkpt>
      <trkpt lat="46.65091" lon="5.55502">
        <ele>320.5</ele>
        <time>2020-06-21T13:25:41Z</time>
      </trkpt>
      <trkpt lat="46.65096" lon="5.55499">
        <ele>315.5</ele>
        <time>2020-06-21T13:26:43Z</time>
      </trkpt>
      <trkpt lat="46.65093" lon="5.55496">
        <ele>307.8</ele>
        <time>2020-06-21T13:27:48Z</time>
      </trkpt>
      <trkpt lat="46.65089" lon="5.55492">
        <ele>307.5</ele>
        <time>2020-06-21T13:27:51Z</time>
      </trkpt>
      <trkpt lat="46.65085" lon="5.55488">
        <ele>307.2</ele>
        <time>2020-06-21T13:27:56Z</time>
      </trkpt>
      <trkpt lat="46.6508" lon="5.55485">
        <ele>307.2</ele>
        <time>2020-06-21T13:27:58Z</time>
      </trkpt>
      <trkpt lat="46.65076" lon="5.55482">
        <ele>307</ele>
        <time>2020-06-21T13:28:01Z</time>
      </trkpt>
      <trkpt lat="46.65073" lon="5.55476">
        <ele>306.6</ele>
        <time>2020-06-21T13:28:07Z</time>
      </trkpt>
      <trkpt lat="46.6507" lon="5.55472">
        <ele>308.4</ele>
        <time>2020-06-21T13:28:44Z</time>
      </trkpt>
      <trkpt lat="46.65058" lon="5.55465">
        <ele>313.5</ele>
        <time>2020-06-21T13:30:13Z</time>
      </trkpt>
      <trkpt lat="46.65053" lon="5.5546">
        <ele>312.4</ele>
        <time>2020-06-21T13:30:20Z</time>
      </trkpt>
      <trkpt lat="46.6505" lon="5.55456">
        <ele>311.7</ele>
        <time>2020-06-21T13:30:23Z</time>
      </trkpt>
      <trkpt lat="46.65046" lon="5.55452">
        <ele>310.8</ele>
        <time>2020-06-21T13:30:27Z</time>
      </trkpt>
      <trkpt lat="46.65042" lon="5.55447">
        <ele>309.7</ele>
        <time>2020-06-21T13:30:32Z</time>
      </trkpt>
      <trkpt lat="46.65037" lon="5.55444">
        <ele>309.1</ele>
        <time>2020-06-21T13:30:37Z</time>
      </trkpt>
      <trkpt lat="46.65032" lon="5.55439">
        <ele>308.4</ele>
        <time>2020-06-21T13:30:42Z</time>
      </trkpt>
      <trkpt lat="46.65029" lon="5.55434">
        <ele>307.8</ele>
        <time>2020-06-21T13:30:46Z</time>
      </trkpt>
      <trkpt lat="46.65026" lon="5.55429">
        <ele>307.2</ele>
        <time>2020-06-21T13:30:51Z</time>
      </trkpt>
      <trkpt lat="46.65023" lon="5.55423">
        <ele>306.8</ele>
        <time>2020-06-21T13:30:54Z</time>
      </trkpt>
      <trkpt lat="46.6502" lon="5.55417">
        <ele>305.8</ele>
        <time>2020-06-21T13:31:01Z</time>
      </trkpt>
      <trkpt lat="46.65018" lon="5.55411">
        <ele>305.4</ele>
        <time>2020-06-21T13:31:05Z</time>
      </trkpt>
      <trkpt lat="46.65015" lon="5.55405">
        <ele>305.1</ele>
        <time>2020-06-21T13:31:09Z</time>
      </trkpt>
      <trkpt lat="46.65012" lon="5.55401">
        <ele>304.7</ele>
        <time>2020-06-21T13:31:14Z</time>
      </trkpt>
      <trkpt lat="46.65009" lon="5.55396">
        <ele>304.4</ele>
        <time>2020-06-21T13:31:19Z</time>
      </trkpt>
      <trkpt lat="46.65006" lon="5.5539">
        <ele>304.3</ele>
        <time>2020-06-21T13:31:25Z</time>
      </trkpt>
      <trkpt lat="46.65003" lon="5.55384">
        <ele>304</ele>
        <time>2020-06-21T13:31:31Z</time>
      </trkpt>
      <trkpt lat="46.65002" lon="5.55376">
        <ele>303.6</ele>
        <time>2020-06-21T13:31:36Z</time>
      </trkpt>
      <trkpt lat="46.65" lon="5.55369">
        <ele>303.3</ele>
        <time>2020-06-21T13:31:40Z</time>
      </trkpt>
      <trkpt lat="46.64997" lon="5.55364">
        <ele>303.3</ele>
        <time>2020-06-21T13:31:44Z</time>
      </trkpt>
      <trkpt lat="46.64993" lon="5.55359">
        <ele>303.5</ele>
        <time>2020-06-21T13:31:49Z</time>
      </trkpt>
      <trkpt lat="46.6499" lon="5.55354">
        <ele>303.7</ele>
        <time>2020-06-21T13:31:54Z</time>
      </trkpt>
      <trkpt lat="46.64987" lon="5.55349">
        <ele>303.9</ele>
        <time>2020-06-21T13:31:59Z</time>
      </trkpt>
      <trkpt lat="46.64984" lon="5.55343">
        <ele>303.9</ele>
        <time>2020-06-21T13:32:04Z</time>
      </trkpt>
      <trkpt lat="46.64982" lon="5.55337">
        <ele>303.8</ele>
        <time>2020-06-21T13:32:09Z</time>
      </trkpt>
      <trkpt lat="46.64979" lon="5.55331">
        <ele>303.5</ele>
        <time>2020-06-21T13:32:14Z</time>
      </trkpt>
      <trkpt lat="46.64976" lon="5.55326">
        <ele>302.3</ele>
        <time>2020-06-21T13:32:22Z</time>
      </trkpt>
      <trkpt lat="46.64972" lon="5.5532">
        <ele>300.4</ele>
        <time>2020-06-21T13:32:30Z</time>
      </trkpt>
      <trkpt lat="46.64968" lon="5.55315">
        <ele>298.7</ele>
        <time>2020-06-21T13:32:35Z</time>
      </trkpt>
      <trkpt lat="46.64965" lon="5.55311">
        <ele>296.8</ele>
        <time>2020-06-21T13:32:40Z</time>
      </trkpt>
      <trkpt lat="46.64961" lon="5.55305">
        <ele>294.7</ele>
        <time>2020-06-21T13:32:45Z</time>
      </trkpt>
      <trkpt lat="46.64958" lon="5.55299">
        <ele>293.1</ele>
        <time>2020-06-21T13:32:49Z</time>
      </trkpt>
      <trkpt lat="46.64954" lon="5.55293">
        <ele>291.7</ele>
        <time>2020-06-21T13:32:53Z</time>
      </trkpt>
      <trkpt lat="46.64952" lon="5.55287">
        <ele>290.4</ele>
        <time>2020-06-21T13:32:57Z</time>
      </trkpt>
      <trkpt lat="46.6495" lon="5.55281">
        <ele>289.1</ele>
        <time>2020-06-21T13:33:02Z</time>
      </trkpt>
      <trkpt lat="46.64948" lon="5.55274">
        <ele>287.9</ele>
        <time>2020-06-21T13:33:07Z</time>
      </trkpt>
      <trkpt lat="46.64945" lon="5.55268">
        <ele>287</ele>
        <time>2020-06-21T13:33:12Z</time>
      </trkpt>
      <trkpt lat="46.64941" lon="5.55263">
        <ele>286.2</ele>
        <time>2020-06-21T13:33:17Z</time>
      </trkpt>
      <trkpt lat="46.64938" lon="5.55257">
        <ele>285.5</ele>
        <time>2020-06-21T13:33:23Z</time>
      </trkpt>
      <trkpt lat="46.64935" lon="5.55252">
        <ele>285.2</ele>
        <time>2020-06-21T13:33:27Z</time>
      </trkpt>
      <trkpt lat="46.64932" lon="5.55246">
        <ele>284.9</ele>
        <time>2020-06-21T13:33:31Z</time>
      </trkpt>
      <trkpt lat="46.64929" lon="5.5524">
        <ele>284.6</ele>
        <time>2020-06-21T13:33:36Z</time>
      </trkpt>
      <trkpt lat="46.64926" lon="5.55234">
        <ele>283.6</ele>
        <time>2020-06-21T13:33:45Z</time>
      </trkpt>
      <trkpt lat="46.64923" lon="5.55229">
        <ele>282.3</ele>
        <time>2020-06-21T13:33:50Z</time>
      </trkpt>
      <trkpt lat="46.6492" lon="5.55224">
        <ele>280.7</ele>
        <time>2020-06-21T13:33:56Z</time>
      </trkpt>
      <trkpt lat="46.64916" lon="5.55219">
        <ele>279.3</ele>
        <time>2020-06-21T13:34:01Z</time>
      </trkpt>
      <trkpt lat="46.64912" lon="5.55214">
        <ele>277.9</ele>
        <time>2020-06-21T13:34:06Z</time>
      </trkpt>
      <trkpt lat="46.64908" lon="5.55209">
        <ele>276.1</ele>
        <time>2020-06-21T13:34:12Z</time>
      </trkpt>
      <trkpt lat="46.64904" lon="5.55205">
        <ele>274.2</ele>
        <time>2020-06-21T13:34:18Z</time>
      </trkpt>
      <trkpt lat="46.64899" lon="5.55202">
        <ele>272.6</ele>
        <time>2020-06-21T13:34:23Z</time>
      </trkpt>
      <trkpt lat="46.64894" lon="5.55199">
        <ele>271.1</ele>
        <time>2020-06-21T13:34:28Z</time>
      </trkpt>
      <trkpt lat="46.6489" lon="5.55195">
        <ele>269.3</ele>
        <time>2020-06-21T13:34:34Z</time>
      </trkpt>
      <trkpt lat="46.64885" lon="5.55191">
        <ele>267.9</ele>
        <time>2020-06-21T13:34:39Z</time>
      </trkpt>
      <trkpt lat="46.64881" lon="5.55186">
        <ele>266.9</ele>
        <time>2020-06-21T13:34:43Z</time>
      </trkpt>
      <trkpt lat="46.64878" lon="5.5518">
        <ele>265.6</ele>
        <time>2020-06-21T13:34:49Z</time>
      </trkpt>
      <trkpt lat="46.64874" lon="5.55175">
        <ele>264.6</ele>
        <time>2020-06-21T13:34:53Z</time>
      </trkpt>
      <trkpt lat="46.64871" lon="5.5517">
        <ele>263.5</ele>
        <time>2020-06-21T13:34:57Z</time>
      </trkpt>
      <trkpt lat="46.64867" lon="5.55165">
        <ele>261.6</ele>
        <time>2020-06-21T13:35:03Z</time>
      </trkpt>
      <trkpt lat="46.64864" lon="5.55159">
        <ele>260</ele>
        <time>2020-06-21T13:35:08Z</time>
      </trkpt>
      <trkpt lat="46.64861" lon="5.55152">
        <ele>258.8</ele>
        <time>2020-06-21T13:35:12Z</time>
      </trkpt>
      <trkpt lat="46.64858" lon="5.55147">
        <ele>257.7</ele>
        <time>2020-06-21T13:35:16Z</time>
      </trkpt>
      <trkpt lat="46.64855" lon="5.55141">
        <ele>256.5</ele>
        <time>2020-06-21T13:35:21Z</time>
      </trkpt>
      <trkpt lat="46.64853" lon="5.55135">
        <ele>255</ele>
        <time>2020-06-21T13:35:27Z</time>
      </trkpt>
      <trkpt lat="46.6485" lon="5.55128">
        <ele>253.6</ele>
        <time>2020-06-21T13:35:32Z</time>
      </trkpt>
      <trkpt lat="46.64847" lon="5.55123">
        <ele>252.4</ele>
        <time>2020-06-21T13:35:36Z</time>
      </trkpt>
      <trkpt lat="46.64844" lon="5.55118">
        <ele>251.4</ele>
        <time>2020-06-21T13:35:40Z</time>
      </trkpt>
      <trkpt lat="46.64841" lon="5.55113">
        <ele>250.4</ele>
        <time>2020-06-21T13:35:45Z</time>
      </trkpt>
      <trkpt lat="46.64837" lon="5.55108">
        <ele>250</ele>
        <time>2020-06-21T13:35:49Z</time>
      </trkpt>
      <trkpt lat="46.64832" lon="5.55106">
        <ele>250.3</ele>
        <time>2020-06-21T13:35:52Z</time>
      </trkpt>
      <trkpt lat="46.64827" lon="5.55103">
        <ele>251.7</ele>
        <time>2020-06-21T13:35:56Z</time>
      </trkpt>
      <trkpt lat="46.64817" lon="5.55094">
        <ele>257.3</ele>
        <time>2020-06-21T13:36:03Z</time>
      </trkpt>
      <trkpt lat="46.64812" lon="5.55089">
        <ele>258.5</ele>
        <time>2020-06-21T13:36:06Z</time>
      </trkpt>
      <trkpt lat="46.64808" lon="5.55085">
        <ele>260.7</ele>
        <time>2020-06-21T13:36:11Z</time>
      </trkpt>
      <trkpt lat="46.64804" lon="5.55081">
        <ele>263.2</ele>
        <time>2020-06-21T13:36:20Z</time>
      </trkpt>
      <trkpt lat="46.648" lon="5.55076">
        <ele>263.5</ele>
        <time>2020-06-21T13:36:25Z</time>
      </trkpt>
      <trkpt lat="46.64796" lon="5.5507">
        <ele>263.3</ele>
        <time>2020-06-21T13:36:30Z</time>
      </trkpt>
      <trkpt lat="46.64795" lon="5.55064">
        <ele>262.8</ele>
        <time>2020-06-21T13:36:36Z</time>
      </trkpt>
      <trkpt lat="46.64793" lon="5.55058">
        <ele>262.1</ele>
        <time>2020-06-21T13:36:41Z</time>
      </trkpt>
      <trkpt lat="46.64792" lon="5.55051">
        <ele>261.4</ele>
        <time>2020-06-21T13:36:46Z</time>
      </trkpt>
      <trkpt lat="46.64791" lon="5.55043">
        <ele>260.7</ele>
        <time>2020-06-21T13:36:50Z</time>
      </trkpt>
      <trkpt lat="46.64791" lon="5.55035">
        <ele>259.7</ele>
        <time>2020-06-21T13:36:54Z</time>
      </trkpt>
      <trkpt lat="46.64793" lon="5.55028">
        <ele>258.4</ele>
        <time>2020-06-21T13:36:59Z</time>
      </trkpt>
      <trkpt lat="46.64794" lon="5.55021">
        <ele>257.7</ele>
        <time>2020-06-21T13:37:02Z</time>
      </trkpt>
      <trkpt lat="46.64795" lon="5.55014">
        <ele>256.7</ele>
        <time>2020-06-21T13:37:07Z</time>
      </trkpt>
      <trkpt lat="46.64796" lon="5.55007">
        <ele>255.3</ele>
        <time>2020-06-21T13:37:13Z</time>
      </trkpt>
      <trkpt lat="46.64794" lon="5.54993">
        <ele>254.2</ele>
        <time>2020-06-21T13:37:25Z</time>
      </trkpt>
      <trkpt lat="46.64792" lon="5.54984">
        <ele>255.4</ele>
        <time>2020-06-21T13:37:29Z</time>
      </trkpt>
      <trkpt lat="46.6479" lon="5.54977">
        <ele>256.6</ele>
        <time>2020-06-21T13:37:32Z</time>
      </trkpt>
      <trkpt lat="46.64788" lon="5.5497">
        <ele>258.3</ele>
        <time>2020-06-21T13:37:35Z</time>
      </trkpt>
      <trkpt lat="46.64787" lon="5.54962">
        <ele>260.3</ele>
        <time>2020-06-21T13:37:38Z</time>
      </trkpt>
      <trkpt lat="46.64783" lon="5.54932">
        <ele>273.1</ele>
        <time>2020-06-21T13:37:49Z</time>
      </trkpt>
      <trkpt lat="46.64778" lon="5.54907">
        <ele>282.4</ele>
        <time>2020-06-21T13:37:57Z</time>
      </trkpt>
      <trkpt lat="46.64777" lon="5.54874">
        <ele>296.1</ele>
        <time>2020-06-21T13:38:10Z</time>
      </trkpt>
      <trkpt lat="46.64799" lon="5.54845">
        <ele>305.9</ele>
        <time>2020-06-21T13:39:00Z</time>
      </trkpt>
      <trkpt lat="46.64803" lon="5.54829">
        <ele>295.7</ele>
        <time>2020-06-21T13:39:17Z</time>
      </trkpt>
      <trkpt lat="46.64801" lon="5.5482">
        <ele>295</ele>
        <time>2020-06-21T13:39:21Z</time>
      </trkpt>
      <trkpt lat="46.64799" lon="5.54813">
        <ele>294.3</ele>
        <time>2020-06-21T13:39:24Z</time>
      </trkpt>
      <trkpt lat="46.64798" lon="5.54807">
        <ele>293.8</ele>
        <time>2020-06-21T13:39:27Z</time>
      </trkpt>
      <trkpt lat="46.64795" lon="5.54799">
        <ele>293.1</ele>
        <time>2020-06-21T13:39:30Z</time>
      </trkpt>
      <trkpt lat="46.64794" lon="5.54792">
        <ele>291.5</ele>
        <time>2020-06-21T13:39:35Z</time>
      </trkpt>
      <trkpt lat="46.64793" lon="5.54785">
        <ele>289.7</ele>
        <time>2020-06-21T13:39:40Z</time>
      </trkpt>
      <trkpt lat="46.64797" lon="5.54781">
        <ele>286.8</ele>
        <time>2020-06-21T13:39:48Z</time>
      </trkpt>
      <trkpt lat="46.64802" lon="5.54782">
        <ele>281.9</ele>
        <time>2020-06-21T13:39:58Z</time>
      </trkpt>
      <trkpt lat="46.64806" lon="5.54786">
        <ele>279</ele>
        <time>2020-06-21T13:40:05Z</time>
      </trkpt>
      <trkpt lat="46.64808" lon="5.54791">
        <ele>278.2</ele>
        <time>2020-06-21T13:40:09Z</time>
      </trkpt>
      <trkpt lat="46.64812" lon="5.54795">
        <ele>277.5</ele>
        <time>2020-06-21T13:40:15Z</time>
      </trkpt>
      <trkpt lat="46.64818" lon="5.54795">
        <ele>277.2</ele>
        <time>2020-06-21T13:40:18Z</time>
      </trkpt>
      <trkpt lat="46.64823" lon="5.54792">
        <ele>277</ele>
        <time>2020-06-21T13:40:21Z</time>
      </trkpt>
      <trkpt lat="46.6482" lon="5.54789">
        <ele>276.4</ele>
        <time>2020-06-21T13:41:10Z</time>
      </trkpt>
      <trkpt lat="46.64808" lon="5.54786">
        <ele>273.6</ele>
        <time>2020-06-21T13:41:29Z</time>
      </trkpt>
      <trkpt lat="46.64803" lon="5.54785">
        <ele>272.8</ele>
        <time>2020-06-21T13:41:32Z</time>
      </trkpt>
      <trkpt lat="46.64798" lon="5.54781">
        <ele>271.3</ele>
        <time>2020-06-21T13:41:36Z</time>
      </trkpt>
      <trkpt lat="46.64794" lon="5.54778">
        <ele>269.5</ele>
        <time>2020-06-21T13:41:40Z</time>
      </trkpt>
      <trkpt lat="46.6479" lon="5.54776">
        <ele>266.9</ele>
        <time>2020-06-21T13:41:45Z</time>
      </trkpt>
      <trkpt lat="46.64785" lon="5.54771">
        <ele>264.6</ele>
        <time>2020-06-21T13:41:50Z</time>
      </trkpt>
      <trkpt lat="46.64782" lon="5.54767">
        <ele>262.9</ele>
        <time>2020-06-21T13:41:54Z</time>
      </trkpt>
      <trkpt lat="46.64778" lon="5.54762">
        <ele>261.2</ele>
        <time>2020-06-21T13:41:59Z</time>
      </trkpt>
      <trkpt lat="46.64776" lon="5.54756">
        <ele>260.5</ele>
        <time>2020-06-21T13:42:02Z</time>
      </trkpt>
      <trkpt lat="46.64772" lon="5.54749">
        <ele>259.6</ele>
        <time>2020-06-21T13:42:06Z</time>
      </trkpt>
      <trkpt lat="46.64768" lon="5.54744">
        <ele>259.1</ele>
        <time>2020-06-21T13:42:11Z</time>
      </trkpt>
      <trkpt lat="46.64765" lon="5.5474">
        <ele>258.5</ele>
        <time>2020-06-21T13:42:17Z</time>
      </trkpt>
      <trkpt lat="46.64757" lon="5.5472">
        <ele>257.3</ele>
        <time>2020-06-21T13:42:28Z</time>
      </trkpt>
      <trkpt lat="46.64754" lon="5.54714">
        <ele>257.8</ele>
        <time>2020-06-21T13:42:32Z</time>
      </trkpt>
      <trkpt lat="46.64742" lon="5.54696">
        <ele>260.4</ele>
        <time>2020-06-21T13:42:52Z</time>
      </trkpt>
      <trkpt lat="46.64739" lon="5.5469">
        <ele>261.1</ele>
        <time>2020-06-21T13:42:58Z</time>
      </trkpt>
      <trkpt lat="46.64735" lon="5.54682">
        <ele>261.7</ele>
        <time>2020-06-21T13:43:00Z</time>
      </trkpt>
      <trkpt lat="46.64732" lon="5.54674">
        <ele>262.6</ele>
        <time>2020-06-21T13:43:03Z</time>
      </trkpt>
      <trkpt lat="46.64729" lon="5.54652">
        <ele>266</ele>
        <time>2020-06-21T13:43:17Z</time>
      </trkpt>
      <trkpt lat="46.64728" lon="5.54645">
        <ele>266.7</ele>
        <time>2020-06-21T13:43:22Z</time>
      </trkpt>
      <trkpt lat="46.64728" lon="5.54638">
        <ele>267.4</ele>
        <time>2020-06-21T13:43:29Z</time>
      </trkpt>
      <trkpt lat="46.64727" lon="5.5463">
        <ele>267.9</ele>
        <time>2020-06-21T13:43:34Z</time>
      </trkpt>
      <trkpt lat="46.64725" lon="5.54623">
        <ele>268.3</ele>
        <time>2020-06-21T13:43:40Z</time>
      </trkpt>
      <trkpt lat="46.64722" lon="5.54617">
        <ele>268.6</ele>
        <time>2020-06-21T13:43:44Z</time>
      </trkpt>
      <trkpt lat="46.6472" lon="5.54609">
        <ele>269.1</ele>
        <time>2020-06-21T13:43:49Z</time>
      </trkpt>
      <trkpt lat="46.64717" lon="5.54605">
        <ele>269.7</ele>
        <time>2020-06-21T13:43:52Z</time>
      </trkpt>
      <trkpt lat="46.64714" lon="5.54593">
        <ele>273</ele>
        <time>2020-06-21T13:44:06Z</time>
      </trkpt>
      <trkpt lat="46.64704" lon="5.54564">
        <ele>275.7</ele>
        <time>2020-06-21T13:44:26Z</time>
      </trkpt>
      <trkpt lat="46.64702" lon="5.54557">
        <ele>276.1</ele>
        <time>2020-06-21T13:44:31Z</time>
      </trkpt>
      <trkpt lat="46.64701" lon="5.5455">
        <ele>276.6</ele>
        <time>2020-06-21T13:44:35Z</time>
      </trkpt>
      <trkpt lat="46.64698" lon="5.54543">
        <ele>277</ele>
        <time>2020-06-21T13:44:40Z</time>
      </trkpt>
      <trkpt lat="46.64696" lon="5.54538">
        <ele>277.2</ele>
        <time>2020-06-21T13:44:46Z</time>
      </trkpt>
      <trkpt lat="46.64687" lon="5.54531">
        <ele>277.4</ele>
        <time>2020-06-21T13:44:56Z</time>
      </trkpt>
      <trkpt lat="46.64682" lon="5.54528">
        <ele>277.7</ele>
        <time>2020-06-21T13:45:02Z</time>
      </trkpt>
      <trkpt lat="46.64679" lon="5.54522">
        <ele>277.6</ele>
        <time>2020-06-21T13:45:09Z</time>
      </trkpt>
      <trkpt lat="46.64676" lon="5.54516">
        <ele>277.4</ele>
        <time>2020-06-21T13:45:15Z</time>
      </trkpt>
      <trkpt lat="46.64673" lon="5.5451">
        <ele>276.7</ele>
        <time>2020-06-21T13:45:21Z</time>
      </trkpt>
      <trkpt lat="46.64671" lon="5.54504">
        <ele>275.6</ele>
        <time>2020-06-21T13:45:27Z</time>
      </trkpt>
      <trkpt lat="46.6467" lon="5.54497">
        <ele>274.3</ele>
        <time>2020-06-21T13:45:33Z</time>
      </trkpt>
      <trkpt lat="46.64668" lon="5.5449">
        <ele>272.7</ele>
        <time>2020-06-21T13:45:39Z</time>
      </trkpt>
      <trkpt lat="46.64666" lon="5.54483">
        <ele>271.4</ele>
        <time>2020-06-21T13:45:44Z</time>
      </trkpt>
      <trkpt lat="46.64663" lon="5.54477">
        <ele>270.4</ele>
        <time>2020-06-21T13:45:49Z</time>
      </trkpt>
      <trkpt lat="46.64661" lon="5.5447">
        <ele>269.9</ele>
        <time>2020-06-21T13:45:54Z</time>
      </trkpt>
      <trkpt lat="46.64658" lon="5.54465">
        <ele>269.7</ele>
        <time>2020-06-21T13:45:58Z</time>
      </trkpt>
      <trkpt lat="46.64655" lon="5.54459">
        <ele>269.6</ele>
        <time>2020-06-21T13:46:02Z</time>
      </trkpt>
      <trkpt lat="46.64653" lon="5.54451">
        <ele>269.8</ele>
        <time>2020-06-21T13:46:07Z</time>
      </trkpt>
      <trkpt lat="46.64653" lon="5.54444">
        <ele>270</ele>
        <time>2020-06-21T13:46:13Z</time>
      </trkpt>
      <trkpt lat="46.64653" lon="5.54437">
        <ele>270.2</ele>
        <time>2020-06-21T13:46:18Z</time>
      </trkpt>
      <trkpt lat="46.64651" lon="5.5443">
        <ele>270.7</ele>
        <time>2020-06-21T13:46:23Z</time>
      </trkpt>
      <trkpt lat="46.64648" lon="5.54424">
        <ele>271.1</ele>
        <time>2020-06-21T13:46:28Z</time>
      </trkpt>
      <trkpt lat="46.64645" lon="5.54418">
        <ele>271.6</ele>
        <time>2020-06-21T13:46:32Z</time>
      </trkpt>
      <trkpt lat="46.64642" lon="5.54413">
        <ele>272.5</ele>
        <time>2020-06-21T13:46:36Z</time>
      </trkpt>
      <trkpt lat="46.64639" lon="5.54407">
        <ele>273.4</ele>
        <time>2020-06-21T13:46:40Z</time>
      </trkpt>
      <trkpt lat="46.64638" lon="5.544">
        <ele>274.8</ele>
        <time>2020-06-21T13:46:45Z</time>
      </trkpt>
      <trkpt lat="46.64636" lon="5.54394">
        <ele>275.7</ele>
        <time>2020-06-21T13:46:58Z</time>
      </trkpt>
      <trkpt lat="46.64634" lon="5.54387">
        <ele>275</ele>
        <time>2020-06-21T13:47:03Z</time>
      </trkpt>
      <trkpt lat="46.64632" lon="5.54381">
        <ele>274.3</ele>
        <time>2020-06-21T13:47:07Z</time>
      </trkpt>
      <trkpt lat="46.64632" lon="5.54373">
        <ele>273.6</ele>
        <time>2020-06-21T13:47:12Z</time>
      </trkpt>
      <trkpt lat="46.6463" lon="5.54367">
        <ele>272.6</ele>
        <time>2020-06-21T13:47:17Z</time>
      </trkpt>
      <trkpt lat="46.64628" lon="5.54361">
        <ele>271.8</ele>
        <time>2020-06-21T13:47:22Z</time>
      </trkpt>
      <trkpt lat="46.64627" lon="5.54354">
        <ele>271.3</ele>
        <time>2020-06-21T13:47:25Z</time>
      </trkpt>
      <trkpt lat="46.64626" lon="5.54346">
        <ele>270.7</ele>
        <time>2020-06-21T13:47:29Z</time>
      </trkpt>
      <trkpt lat="46.64625" lon="5.5434">
        <ele>270.2</ele>
        <time>2020-06-21T13:47:32Z</time>
      </trkpt>
      <trkpt lat="46.64623" lon="5.54332">
        <ele>269.8</ele>
        <time>2020-06-21T13:47:36Z</time>
      </trkpt>
      <trkpt lat="46.6462" lon="5.54325">
        <ele>269.2</ele>
        <time>2020-06-21T13:47:41Z</time>
      </trkpt>
      <trkpt lat="46.64617" lon="5.54319">
        <ele>268.5</ele>
        <time>2020-06-21T13:47:46Z</time>
      </trkpt>
      <trkpt lat="46.64614" lon="5.54313">
        <ele>267.5</ele>
        <time>2020-06-21T13:47:51Z</time>
      </trkpt>
      <trkpt lat="46.64611" lon="5.54308">
        <ele>266.7</ele>
        <time>2020-06-21T13:47:55Z</time>
      </trkpt>
      <trkpt lat="46.6461" lon="5.54301">
        <ele>266</ele>
        <time>2020-06-21T13:47:59Z</time>
      </trkpt>
      <trkpt lat="46.64608" lon="5.54293">
        <ele>265.2</ele>
        <time>2020-06-21T13:48:03Z</time>
      </trkpt>
      <trkpt lat="46.64606" lon="5.54286">
        <ele>264.6</ele>
        <time>2020-06-21T13:48:07Z</time>
      </trkpt>
      <trkpt lat="46.64601" lon="5.54256">
        <ele>263.7</ele>
        <time>2020-06-21T13:48:25Z</time>
      </trkpt>
      <trkpt lat="46.646" lon="5.54248">
        <ele>263.7</ele>
        <time>2020-06-21T13:48:29Z</time>
      </trkpt>
      <trkpt lat="46.64598" lon="5.54241">
        <ele>263.8</ele>
        <time>2020-06-21T13:48:33Z</time>
      </trkpt>
      <trkpt lat="46.64595" lon="5.54234">
        <ele>264.2</ele>
        <time>2020-06-21T13:48:36Z</time>
      </trkpt>
      <trkpt lat="46.64592" lon="5.54228">
        <ele>265.4</ele>
        <time>2020-06-21T13:48:40Z</time>
      </trkpt>
      <trkpt lat="46.64579" lon="5.54207">
        <ele>273.7</ele>
        <time>2020-06-21T13:48:57Z</time>
      </trkpt>
      <trkpt lat="46.64575" lon="5.54201">
        <ele>274.7</ele>
        <time>2020-06-21T13:49:03Z</time>
      </trkpt>
      <trkpt lat="46.64572" lon="5.54196">
        <ele>275.3</ele>
        <time>2020-06-21T13:49:08Z</time>
      </trkpt>
      <trkpt lat="46.64569" lon="5.54189">
        <ele>275.8</ele>
        <time>2020-06-21T13:49:14Z</time>
      </trkpt>
      <trkpt lat="46.64566" lon="5.54184">
        <ele>275.1</ele>
        <time>2020-06-21T13:49:21Z</time>
      </trkpt>
      <trkpt lat="46.64563" lon="5.54178">
        <ele>274.5</ele>
        <time>2020-06-21T13:49:26Z</time>
      </trkpt>
      <trkpt lat="46.6456" lon="5.54173">
        <ele>274</ele>
        <time>2020-06-21T13:49:32Z</time>
      </trkpt>
      <trkpt lat="46.64554" lon="5.54163">
        <ele>272.3</ele>
        <time>2020-06-21T13:49:44Z</time>
      </trkpt>
      <trkpt lat="46.64551" lon="5.54158">
        <ele>270.2</ele>
        <time>2020-06-21T13:49:56Z</time>
      </trkpt>
      <trkpt lat="46.64549" lon="5.54152">
        <ele>267.8</ele>
        <time>2020-06-21T13:50:06Z</time>
      </trkpt>
      <trkpt lat="46.64543" lon="5.54146">
        <ele>267.3</ele>
        <time>2020-06-21T13:50:10Z</time>
      </trkpt>
      <trkpt lat="46.64539" lon="5.54143">
        <ele>266.9</ele>
        <time>2020-06-21T13:50:13Z</time>
      </trkpt>
      <trkpt lat="46.64535" lon="5.54139">
        <ele>266.5</ele>
        <time>2020-06-21T13:50:17Z</time>
      </trkpt>
      <trkpt lat="46.64531" lon="5.54135">
        <ele>266.3</ele>
        <time>2020-06-21T13:50:24Z</time>
      </trkpt>
      <trkpt lat="46.64531" lon="5.54129">
        <ele>265.6</ele>
        <time>2020-06-21T13:50:32Z</time>
      </trkpt>
      <trkpt lat="46.64529" lon="5.54122">
        <ele>263.9</ele>
        <time>2020-06-21T13:50:39Z</time>
      </trkpt>
      <trkpt lat="46.64525" lon="5.5412">
        <ele>261.5</ele>
        <time>2020-06-21T13:50:47Z</time>
      </trkpt>
      <trkpt lat="46.64518" lon="5.54118">
        <ele>260.5</ele>
        <time>2020-06-21T13:50:50Z</time>
      </trkpt>
      <trkpt lat="46.64514" lon="5.54117">
        <ele>259.9</ele>
        <time>2020-06-21T13:50:52Z</time>
      </trkpt>
      <trkpt lat="46.64509" lon="5.54116">
        <ele>259</ele>
        <time>2020-06-21T13:50:56Z</time>
      </trkpt>
      <trkpt lat="46.64487" lon="5.54109">
        <ele>253.5</ele>
        <time>2020-06-21T13:51:17Z</time>
      </trkpt>
      <trkpt lat="46.64484" lon="5.54104">
        <ele>252.8</ele>
        <time>2020-06-21T13:51:22Z</time>
      </trkpt>
      <trkpt lat="46.64463" lon="5.54113">
        <ele>250.9</ele>
        <time>2020-06-21T13:51:31Z</time>
      </trkpt>
      <trkpt lat="46.64458" lon="5.54115">
        <ele>251.1</ele>
        <time>2020-06-21T13:51:35Z</time>
      </trkpt>
      <trkpt lat="46.64453" lon="5.54113">
        <ele>251.4</ele>
        <time>2020-06-21T13:51:38Z</time>
      </trkpt>
      <trkpt lat="46.64449" lon="5.5411">
        <ele>251.7</ele>
        <time>2020-06-21T13:51:43Z</time>
      </trkpt>
      <trkpt lat="46.64444" lon="5.54109">
        <ele>251.9</ele>
        <time>2020-06-21T13:51:49Z</time>
      </trkpt>
      <trkpt lat="46.64439" lon="5.54105">
        <ele>252</ele>
        <time>2020-06-21T13:51:55Z</time>
      </trkpt>
      <trkpt lat="46.64437" lon="5.54099">
        <ele>252</ele>
        <time>2020-06-21T13:51:58Z</time>
      </trkpt>
      <trkpt lat="46.64435" lon="5.54093">
        <ele>252.1</ele>
        <time>2020-06-21T13:52:02Z</time>
      </trkpt>
      <trkpt lat="46.64433" lon="5.54086">
        <ele>251.9</ele>
        <time>2020-06-21T13:52:06Z</time>
      </trkpt>
      <trkpt lat="46.64423" lon="5.54087">
        <ele>250.8</ele>
        <time>2020-06-21T13:52:15Z</time>
      </trkpt>
      <trkpt lat="46.64417" lon="5.54085">
        <ele>250.8</ele>
        <time>2020-06-21T13:52:19Z</time>
      </trkpt>
      <trkpt lat="46.64411" lon="5.54082">
        <ele>250.7</ele>
        <time>2020-06-21T13:52:23Z</time>
      </trkpt>
      <trkpt lat="46.64407" lon="5.54077">
        <ele>250.1</ele>
        <time>2020-06-21T13:52:28Z</time>
      </trkpt>
      <trkpt lat="46.64404" lon="5.54071">
        <ele>248.8</ele>
        <time>2020-06-21T13:52:35Z</time>
      </trkpt>
    </trkseg>
  </trk>
</gpx>